<?xml version="1.0" encoding="UTF-8" standalone="no" ?>
<gpx xmlns="http://www.topografix.com/GPX/1/1" xmlns:xsi="http://www.w3.org/2001/XMLSchema-instance" xsi:schemaLocation="http://www.topografix.com/GPX/1/1 http://www.topografix.com/GPX/1/1/gpx.xsd" version="1.1" creator="VisuGPX - https://www.visugpx.com">
  <metadata>
    <name>La Frette-sur-Seine (95)</name>
    <desc><![CDATA[Randonnée de 17 km en bouche à partir de la Gare de La Frette.]]></desc>
  </metadata>
  <trk>
    <name><![CDATA[la Frette-Herblay bo15k]]></name>
    <trkseg>
      <trkpt lat="48.97918" lon="2.18071">
        <ele>72</ele>
        <time>2026-07-19T07:29:23Z</time>
      </trkpt>
      <trkpt lat="48.97909" lon="2.18072">
        <ele>70</ele>
        <time>2026-07-19T07:29:29Z</time>
      </trkpt>
      <trkpt lat="48.97904" lon="2.18074">
        <ele>70</ele>
        <time>2026-07-19T07:29:37Z</time>
      </trkpt>
      <trkpt lat="48.97896" lon="2.18075">
        <ele>69</ele>
        <time>2026-07-19T07:29:46Z</time>
      </trkpt>
      <trkpt lat="48.97891" lon="2.18066">
        <ele>68</ele>
        <time>2026-07-19T07:29:56Z</time>
      </trkpt>
      <trkpt lat="48.97887" lon="2.18047">
        <ele>60</ele>
        <time>2026-07-19T07:30:07Z</time>
      </trkpt>
      <trkpt lat="48.97885" lon="2.1804">
        <ele>60</ele>
        <time>2026-07-19T07:30:16Z</time>
      </trkpt>
      <trkpt lat="48.97882" lon="2.18028">
        <ele>61</ele>
        <time>2026-07-19T07:30:27Z</time>
      </trkpt>
      <trkpt lat="48.97878" lon="2.18015">
        <ele>60</ele>
        <time>2026-07-19T07:30:36Z</time>
      </trkpt>
      <trkpt lat="48.97874" lon="2.18003">
        <ele>61</ele>
        <time>2026-07-19T07:30:44Z</time>
      </trkpt>
      <trkpt lat="48.9787" lon="2.1799">
        <ele>61</ele>
        <time>2026-07-19T07:30:53Z</time>
      </trkpt>
      <trkpt lat="48.97866" lon="2.17976">
        <ele>63</ele>
        <time>2026-07-19T07:31:02Z</time>
      </trkpt>
      <trkpt lat="48.97862" lon="2.17963">
        <ele>64</ele>
        <time>2026-07-19T07:31:11Z</time>
      </trkpt>
      <trkpt lat="48.97859" lon="2.1795">
        <ele>64</ele>
        <time>2026-07-19T07:31:19Z</time>
      </trkpt>
      <trkpt lat="48.97854" lon="2.17937">
        <ele>63</ele>
        <time>2026-07-19T07:31:28Z</time>
      </trkpt>
      <trkpt lat="48.9785" lon="2.17924">
        <ele>64</ele>
        <time>2026-07-19T07:31:39Z</time>
      </trkpt>
      <trkpt lat="48.97845" lon="2.17912">
        <ele>62</ele>
        <time>2026-07-19T07:31:48Z</time>
      </trkpt>
      <trkpt lat="48.9784" lon="2.179">
        <ele>60</ele>
        <time>2026-07-19T07:31:56Z</time>
      </trkpt>
      <trkpt lat="48.97837" lon="2.17886">
        <ele>58</ele>
        <time>2026-07-19T07:32:03Z</time>
      </trkpt>
      <trkpt lat="48.97832" lon="2.17875">
        <ele>57</ele>
        <time>2026-07-19T07:32:14Z</time>
      </trkpt>
      <trkpt lat="48.97828" lon="2.17862">
        <ele>56</ele>
        <time>2026-07-19T07:32:22Z</time>
      </trkpt>
      <trkpt lat="48.97823" lon="2.1785">
        <ele>56</ele>
        <time>2026-07-19T07:32:32Z</time>
      </trkpt>
      <trkpt lat="48.97815" lon="2.17844">
        <ele>54</ele>
        <time>2026-07-19T07:32:44Z</time>
      </trkpt>
      <trkpt lat="48.97807" lon="2.17837">
        <ele>51</ele>
        <time>2026-07-19T07:32:56Z</time>
      </trkpt>
      <trkpt lat="48.978" lon="2.17829">
        <ele>50</ele>
        <time>2026-07-19T07:33:05Z</time>
      </trkpt>
      <trkpt lat="48.97793" lon="2.17819">
        <ele>51</ele>
        <time>2026-07-19T07:33:10Z</time>
      </trkpt>
      <trkpt lat="48.97785" lon="2.17812">
        <ele>53</ele>
        <time>2026-07-19T07:33:18Z</time>
      </trkpt>
      <trkpt lat="48.97776" lon="2.1781">
        <ele>55</ele>
        <time>2026-07-19T07:33:26Z</time>
      </trkpt>
      <trkpt lat="48.97766" lon="2.17809">
        <ele>56</ele>
        <time>2026-07-19T07:33:33Z</time>
      </trkpt>
      <trkpt lat="48.97757" lon="2.17806">
        <ele>57</ele>
        <time>2026-07-19T07:33:41Z</time>
      </trkpt>
      <trkpt lat="48.97748" lon="2.17804">
        <ele>58</ele>
        <time>2026-07-19T07:33:50Z</time>
      </trkpt>
      <trkpt lat="48.97738" lon="2.17804">
        <ele>59</ele>
        <time>2026-07-19T07:34:00Z</time>
      </trkpt>
      <trkpt lat="48.97729" lon="2.178">
        <ele>58</ele>
        <time>2026-07-19T07:34:05Z</time>
      </trkpt>
      <trkpt lat="48.9772" lon="2.17796">
        <ele>58</ele>
        <time>2026-07-19T07:34:13Z</time>
      </trkpt>
      <trkpt lat="48.9771" lon="2.17796">
        <ele>58</ele>
        <time>2026-07-19T07:34:24Z</time>
      </trkpt>
      <trkpt lat="48.97701" lon="2.17797">
        <ele>59</ele>
        <time>2026-07-19T07:34:31Z</time>
      </trkpt>
      <trkpt lat="48.97691" lon="2.17798">
        <ele>60</ele>
        <time>2026-07-19T07:34:58Z</time>
      </trkpt>
      <trkpt lat="48.97682" lon="2.17803">
        <ele>60</ele>
        <time>2026-07-19T07:35:11Z</time>
      </trkpt>
      <trkpt lat="48.97673" lon="2.17805">
        <ele>59</ele>
        <time>2026-07-19T07:35:19Z</time>
      </trkpt>
      <trkpt lat="48.97664" lon="2.17811">
        <ele>60</ele>
        <time>2026-07-19T07:35:28Z</time>
      </trkpt>
      <trkpt lat="48.97655" lon="2.17816">
        <ele>57</ele>
        <time>2026-07-19T07:35:40Z</time>
      </trkpt>
      <trkpt lat="48.97646" lon="2.17821">
        <ele>55</ele>
        <time>2026-07-19T07:35:47Z</time>
      </trkpt>
      <trkpt lat="48.97638" lon="2.17828">
        <ele>55</ele>
        <time>2026-07-19T07:35:54Z</time>
      </trkpt>
      <trkpt lat="48.97628" lon="2.1783">
        <ele>54</ele>
        <time>2026-07-19T07:36:05Z</time>
      </trkpt>
      <trkpt lat="48.97619" lon="2.17833">
        <ele>55</ele>
        <time>2026-07-19T07:36:13Z</time>
      </trkpt>
      <trkpt lat="48.9761" lon="2.17839">
        <ele>56</ele>
        <time>2026-07-19T07:36:21Z</time>
      </trkpt>
      <trkpt lat="48.97602" lon="2.17847">
        <ele>55</ele>
        <time>2026-07-19T07:36:29Z</time>
      </trkpt>
      <trkpt lat="48.97594" lon="2.17855">
        <ele>57</ele>
        <time>2026-07-19T07:36:35Z</time>
      </trkpt>
      <trkpt lat="48.97585" lon="2.17857">
        <ele>60</ele>
        <time>2026-07-19T07:36:46Z</time>
      </trkpt>
      <trkpt lat="48.97576" lon="2.17862">
        <ele>61</ele>
        <time>2026-07-19T07:36:53Z</time>
      </trkpt>
      <trkpt lat="48.97567" lon="2.17867">
        <ele>62</ele>
        <time>2026-07-19T07:37:03Z</time>
      </trkpt>
      <trkpt lat="48.97558" lon="2.17873">
        <ele>63</ele>
        <time>2026-07-19T07:37:12Z</time>
      </trkpt>
      <trkpt lat="48.97549" lon="2.17876">
        <ele>63</ele>
        <time>2026-07-19T07:37:19Z</time>
      </trkpt>
      <trkpt lat="48.97541" lon="2.17882">
        <ele>63</ele>
        <time>2026-07-19T07:37:26Z</time>
      </trkpt>
      <trkpt lat="48.97535" lon="2.17891">
        <ele>62</ele>
        <time>2026-07-19T07:37:34Z</time>
      </trkpt>
      <trkpt lat="48.97526" lon="2.17895">
        <ele>61</ele>
        <time>2026-07-19T07:37:41Z</time>
      </trkpt>
      <trkpt lat="48.97517" lon="2.17896">
        <ele>60</ele>
        <time>2026-07-19T07:37:51Z</time>
      </trkpt>
      <trkpt lat="48.97508" lon="2.17899">
        <ele>60</ele>
        <time>2026-07-19T07:37:59Z</time>
      </trkpt>
      <trkpt lat="48.97499" lon="2.17904">
        <ele>59</ele>
        <time>2026-07-19T07:38:09Z</time>
      </trkpt>
      <trkpt lat="48.97491" lon="2.17909">
        <ele>60</ele>
        <time>2026-07-19T07:38:16Z</time>
      </trkpt>
      <trkpt lat="48.97482" lon="2.17916">
        <ele>59</ele>
        <time>2026-07-19T07:38:23Z</time>
      </trkpt>
      <trkpt lat="48.97473" lon="2.17923">
        <ele>61</ele>
        <time>2026-07-19T07:38:31Z</time>
      </trkpt>
      <trkpt lat="48.97464" lon="2.17929">
        <ele>62</ele>
        <time>2026-07-19T07:38:38Z</time>
      </trkpt>
      <trkpt lat="48.97455" lon="2.17934">
        <ele>63</ele>
        <time>2026-07-19T07:38:46Z</time>
      </trkpt>
      <trkpt lat="48.97446" lon="2.17938">
        <ele>63</ele>
        <time>2026-07-19T07:38:54Z</time>
      </trkpt>
      <trkpt lat="48.97439" lon="2.17947">
        <ele>62</ele>
        <time>2026-07-19T07:39:03Z</time>
      </trkpt>
      <trkpt lat="48.97434" lon="2.17959">
        <ele>62</ele>
        <time>2026-07-19T07:39:11Z</time>
      </trkpt>
      <trkpt lat="48.97431" lon="2.17973">
        <ele>61</ele>
        <time>2026-07-19T07:39:21Z</time>
      </trkpt>
      <trkpt lat="48.97429" lon="2.17987">
        <ele>61</ele>
        <time>2026-07-19T07:39:31Z</time>
      </trkpt>
      <trkpt lat="48.97427" lon="2.18002">
        <ele>60</ele>
        <time>2026-07-19T07:39:39Z</time>
      </trkpt>
      <trkpt lat="48.97427" lon="2.18016">
        <ele>59</ele>
        <time>2026-07-19T07:39:49Z</time>
      </trkpt>
      <trkpt lat="48.97425" lon="2.1803">
        <ele>58</ele>
        <time>2026-07-19T07:39:56Z</time>
      </trkpt>
      <trkpt lat="48.97418" lon="2.18039">
        <ele>57</ele>
        <time>2026-07-19T07:40:10Z</time>
      </trkpt>
      <trkpt lat="48.9741" lon="2.18042">
        <ele>55</ele>
        <time>2026-07-19T07:40:19Z</time>
      </trkpt>
      <trkpt lat="48.97402" lon="2.18041">
        <ele>53</ele>
        <time>2026-07-19T07:40:34Z</time>
      </trkpt>
      <trkpt lat="48.97393" lon="2.18041">
        <ele>50</ele>
        <time>2026-07-19T07:40:45Z</time>
      </trkpt>
      <trkpt lat="48.97383" lon="2.18041">
        <ele>48</ele>
        <time>2026-07-19T07:40:56Z</time>
      </trkpt>
      <trkpt lat="48.97374" lon="2.18044">
        <ele>44</ele>
        <time>2026-07-19T07:41:09Z</time>
      </trkpt>
      <trkpt lat="48.97364" lon="2.18047">
        <ele>38</ele>
        <time>2026-07-19T07:41:26Z</time>
      </trkpt>
      <trkpt lat="48.97355" lon="2.18051">
        <ele>32</ele>
        <time>2026-07-19T07:41:40Z</time>
      </trkpt>
      <trkpt lat="48.97352" lon="2.18043">
        <ele>28</ele>
        <time>2026-07-19T07:41:51Z</time>
      </trkpt>
      <trkpt lat="48.97352" lon="2.18032">
        <ele>26</ele>
        <time>2026-07-19T07:42:05Z</time>
      </trkpt>
      <trkpt lat="48.97352" lon="2.18018">
        <ele>26</ele>
        <time>2026-07-19T07:42:18Z</time>
      </trkpt>
      <trkpt lat="48.9735" lon="2.18005">
        <ele>21</ele>
        <time>2026-07-19T07:42:29Z</time>
      </trkpt>
      <trkpt lat="48.97346" lon="2.17993">
        <ele>20</ele>
        <time>2026-07-19T07:42:41Z</time>
      </trkpt>
      <trkpt lat="48.97339" lon="2.17987">
        <ele>18</ele>
        <time>2026-07-19T07:42:52Z</time>
      </trkpt>
      <trkpt lat="48.97332" lon="2.17978">
        <ele>14</ele>
        <time>2026-07-19T07:43:02Z</time>
      </trkpt>
      <trkpt lat="48.97332" lon="2.17965">
        <ele>12</ele>
        <time>2026-07-19T07:43:09Z</time>
      </trkpt>
      <trkpt lat="48.97332" lon="2.17952">
        <ele>11</ele>
        <time>2026-07-19T07:43:17Z</time>
      </trkpt>
      <trkpt lat="48.97332" lon="2.17938">
        <ele>10</ele>
        <time>2026-07-19T07:43:26Z</time>
      </trkpt>
      <trkpt lat="48.97331" lon="2.17923">
        <ele>8</ele>
        <time>2026-07-19T07:43:35Z</time>
      </trkpt>
      <trkpt lat="48.97331" lon="2.17908">
        <ele>8</ele>
        <time>2026-07-19T07:43:43Z</time>
      </trkpt>
      <trkpt lat="48.97331" lon="2.17893">
        <ele>5</ele>
        <time>2026-07-19T07:43:59Z</time>
      </trkpt>
      <trkpt lat="48.97327" lon="2.17881">
        <ele>4</ele>
        <time>2026-07-19T07:44:20Z</time>
      </trkpt>
      <trkpt lat="48.9732" lon="2.17875">
        <ele>6</ele>
        <time>2026-07-19T07:44:29Z</time>
      </trkpt>
      <trkpt lat="48.97311" lon="2.17869">
        <ele>8</ele>
        <time>2026-07-19T07:44:38Z</time>
      </trkpt>
      <trkpt lat="48.97302" lon="2.17866">
        <ele>9</ele>
        <time>2026-07-19T07:44:47Z</time>
      </trkpt>
      <trkpt lat="48.97295" lon="2.17859">
        <ele>9</ele>
        <time>2026-07-19T07:44:55Z</time>
      </trkpt>
      <trkpt lat="48.97295" lon="2.17864">
        <ele>10</ele>
        <time>2026-07-19T07:45:10Z</time>
      </trkpt>
      <trkpt lat="48.97292" lon="2.17873">
        <ele>9</ele>
        <time>2026-07-19T07:45:23Z</time>
      </trkpt>
      <trkpt lat="48.97288" lon="2.17884">
        <ele>8</ele>
        <time>2026-07-19T07:45:34Z</time>
      </trkpt>
      <trkpt lat="48.97282" lon="2.17893">
        <ele>7</ele>
        <time>2026-07-19T07:45:44Z</time>
      </trkpt>
      <trkpt lat="48.97274" lon="2.17899">
        <ele>7</ele>
        <time>2026-07-19T07:45:51Z</time>
      </trkpt>
      <trkpt lat="48.97265" lon="2.17899">
        <ele>8</ele>
        <time>2026-07-19T07:46:00Z</time>
      </trkpt>
      <trkpt lat="48.97256" lon="2.17902">
        <ele>10</ele>
        <time>2026-07-19T07:46:06Z</time>
      </trkpt>
      <trkpt lat="48.97246" lon="2.17907">
        <ele>13</ele>
        <time>2026-07-19T07:46:16Z</time>
      </trkpt>
      <trkpt lat="48.97237" lon="2.1791">
        <ele>14</ele>
        <time>2026-07-19T07:46:24Z</time>
      </trkpt>
      <trkpt lat="48.97228" lon="2.17915">
        <ele>17</ele>
        <time>2026-07-19T07:46:32Z</time>
      </trkpt>
      <trkpt lat="48.97219" lon="2.17916">
        <ele>13</ele>
        <time>2026-07-19T07:47:19Z</time>
      </trkpt>
      <trkpt lat="48.97216" lon="2.17925">
        <ele>11</ele>
        <time>2026-07-19T07:51:44Z</time>
      </trkpt>
      <trkpt lat="48.97214" lon="2.1792">
        <ele>8</ele>
        <time>2026-07-19T07:53:14Z</time>
      </trkpt>
      <trkpt lat="48.97213" lon="2.17908">
        <ele>9</ele>
        <time>2026-07-19T07:53:24Z</time>
      </trkpt>
      <trkpt lat="48.97213" lon="2.17895">
        <ele>11</ele>
        <time>2026-07-19T07:54:18Z</time>
      </trkpt>
      <trkpt lat="48.97215" lon="2.17882">
        <ele>8</ele>
        <time>2026-07-19T07:54:50Z</time>
      </trkpt>
      <trkpt lat="48.97215" lon="2.17867">
        <ele>7</ele>
        <time>2026-07-19T07:54:58Z</time>
      </trkpt>
      <trkpt lat="48.97214" lon="2.17853">
        <ele>7</ele>
        <time>2026-07-19T07:55:04Z</time>
      </trkpt>
      <trkpt lat="48.97213" lon="2.17838">
        <ele>7</ele>
        <time>2026-07-19T07:55:11Z</time>
      </trkpt>
      <trkpt lat="48.97209" lon="2.17823">
        <ele>8</ele>
        <time>2026-07-19T07:55:16Z</time>
      </trkpt>
      <trkpt lat="48.97207" lon="2.17809">
        <ele>11</ele>
        <time>2026-07-19T07:55:21Z</time>
      </trkpt>
      <trkpt lat="48.97204" lon="2.17795">
        <ele>12</ele>
        <time>2026-07-19T07:55:26Z</time>
      </trkpt>
      <trkpt lat="48.972" lon="2.17782">
        <ele>13</ele>
        <time>2026-07-19T07:55:33Z</time>
      </trkpt>
      <trkpt lat="48.97194" lon="2.1777">
        <ele>14</ele>
        <time>2026-07-19T07:55:41Z</time>
      </trkpt>
      <trkpt lat="48.97191" lon="2.17757">
        <ele>14</ele>
        <time>2026-07-19T07:55:51Z</time>
      </trkpt>
      <trkpt lat="48.97184" lon="2.17748">
        <ele>14</ele>
        <time>2026-07-19T07:56:02Z</time>
      </trkpt>
      <trkpt lat="48.97177" lon="2.17739">
        <ele>13</ele>
        <time>2026-07-19T07:56:12Z</time>
      </trkpt>
      <trkpt lat="48.9717" lon="2.17741">
        <ele>13</ele>
        <time>2026-07-19T07:56:26Z</time>
      </trkpt>
      <trkpt lat="48.97162" lon="2.17737">
        <ele>11</ele>
        <time>2026-07-19T07:56:49Z</time>
      </trkpt>
      <trkpt lat="48.97161" lon="2.17727">
        <ele>9</ele>
        <time>2026-07-19T07:57:26Z</time>
      </trkpt>
      <trkpt lat="48.97163" lon="2.17716">
        <ele>8</ele>
        <time>2026-07-19T07:57:47Z</time>
      </trkpt>
      <trkpt lat="48.9717" lon="2.1771">
        <ele>10</ele>
        <time>2026-07-19T07:57:57Z</time>
      </trkpt>
      <trkpt lat="48.97178" lon="2.17704">
        <ele>11</ele>
        <time>2026-07-19T07:58:07Z</time>
      </trkpt>
      <trkpt lat="48.97186" lon="2.17697">
        <ele>10</ele>
        <time>2026-07-19T07:58:26Z</time>
      </trkpt>
      <trkpt lat="48.97195" lon="2.1769">
        <ele>6</ele>
        <time>2026-07-19T07:58:41Z</time>
      </trkpt>
      <trkpt lat="48.97204" lon="2.17682">
        <ele>6</ele>
        <time>2026-07-19T07:58:50Z</time>
      </trkpt>
      <trkpt lat="48.97211" lon="2.17674">
        <ele>6</ele>
        <time>2026-07-19T07:58:59Z</time>
      </trkpt>
      <trkpt lat="48.97219" lon="2.17665">
        <ele>4</ele>
        <time>2026-07-19T07:59:08Z</time>
      </trkpt>
      <trkpt lat="48.97227" lon="2.17657">
        <ele>4</ele>
        <time>2026-07-19T07:59:19Z</time>
      </trkpt>
      <trkpt lat="48.97236" lon="2.17653">
        <ele>4</ele>
        <time>2026-07-19T07:59:28Z</time>
      </trkpt>
      <trkpt lat="48.97245" lon="2.17649">
        <ele>4</ele>
        <time>2026-07-19T07:59:37Z</time>
      </trkpt>
      <trkpt lat="48.97253" lon="2.17642">
        <ele>3</ele>
        <time>2026-07-19T07:59:47Z</time>
      </trkpt>
      <trkpt lat="48.97262" lon="2.17634">
        <ele>24</ele>
        <time>2026-07-19T07:59:56Z</time>
      </trkpt>
      <trkpt lat="48.97271" lon="2.1763">
        <ele>-1</ele>
        <time>2026-07-19T08:00:07Z</time>
      </trkpt>
      <trkpt lat="48.9728" lon="2.17626">
        <ele>-1</ele>
        <time>2026-07-19T08:00:17Z</time>
      </trkpt>
      <trkpt lat="48.97289" lon="2.17622">
        <ele>-3</ele>
        <time>2026-07-19T08:00:29Z</time>
      </trkpt>
      <trkpt lat="48.97298" lon="2.17617">
        <ele>-5</ele>
        <time>2026-07-19T08:00:38Z</time>
      </trkpt>
      <trkpt lat="48.97308" lon="2.17613">
        <ele>-5</ele>
        <time>2026-07-19T08:00:46Z</time>
      </trkpt>
      <trkpt lat="48.97317" lon="2.17609">
        <ele>-5</ele>
        <time>2026-07-19T08:00:56Z</time>
      </trkpt>
      <trkpt lat="48.97325" lon="2.17602">
        <ele>-6</ele>
        <time>2026-07-19T08:01:07Z</time>
      </trkpt>
      <trkpt lat="48.97334" lon="2.17595">
        <ele>-7</ele>
        <time>2026-07-19T08:01:14Z</time>
      </trkpt>
      <trkpt lat="48.97342" lon="2.1759">
        <ele>-6</ele>
        <time>2026-07-19T08:01:20Z</time>
      </trkpt>
      <trkpt lat="48.97351" lon="2.17584">
        <ele>-6</ele>
        <time>2026-07-19T08:01:28Z</time>
      </trkpt>
      <trkpt lat="48.9736" lon="2.17579">
        <ele>-7</ele>
        <time>2026-07-19T08:01:41Z</time>
      </trkpt>
      <trkpt lat="48.97369" lon="2.17573">
        <ele>-7</ele>
        <time>2026-07-19T08:01:47Z</time>
      </trkpt>
      <trkpt lat="48.97377" lon="2.17566">
        <ele>-8</ele>
        <time>2026-07-19T08:01:55Z</time>
      </trkpt>
      <trkpt lat="48.97385" lon="2.17558">
        <ele>-8</ele>
        <time>2026-07-19T08:02:06Z</time>
      </trkpt>
      <trkpt lat="48.97393" lon="2.17552">
        <ele>-9</ele>
        <time>2026-07-19T08:02:12Z</time>
      </trkpt>
      <trkpt lat="48.97402" lon="2.17547">
        <ele>-12</ele>
        <time>2026-07-19T08:02:19Z</time>
      </trkpt>
      <trkpt lat="48.97411" lon="2.1754">
        <ele>-14</ele>
        <time>2026-07-19T08:02:26Z</time>
      </trkpt>
      <trkpt lat="48.9742" lon="2.17533">
        <ele>-15</ele>
        <time>2026-07-19T08:02:37Z</time>
      </trkpt>
      <trkpt lat="48.97429" lon="2.17528">
        <ele>-15</ele>
        <time>2026-07-19T08:02:45Z</time>
      </trkpt>
      <trkpt lat="48.97438" lon="2.17522">
        <ele>-12</ele>
        <time>2026-07-19T08:02:52Z</time>
      </trkpt>
      <trkpt lat="48.97446" lon="2.17517">
        <ele>-9</ele>
        <time>2026-07-19T08:02:57Z</time>
      </trkpt>
      <trkpt lat="48.97455" lon="2.17509">
        <ele>-6</ele>
        <time>2026-07-19T08:03:03Z</time>
      </trkpt>
      <trkpt lat="48.97463" lon="2.17503">
        <ele>-5</ele>
        <time>2026-07-19T08:03:13Z</time>
      </trkpt>
      <trkpt lat="48.97471" lon="2.17495">
        <ele>-6</ele>
        <time>2026-07-19T08:03:26Z</time>
      </trkpt>
      <trkpt lat="48.9748" lon="2.17489">
        <ele>-7</ele>
        <time>2026-07-19T08:03:35Z</time>
      </trkpt>
      <trkpt lat="48.97488" lon="2.17484">
        <ele>-7</ele>
        <time>2026-07-19T08:03:42Z</time>
      </trkpt>
      <trkpt lat="48.97497" lon="2.17477">
        <ele>-8</ele>
        <time>2026-07-19T08:03:50Z</time>
      </trkpt>
      <trkpt lat="48.97506" lon="2.17472">
        <ele>-8</ele>
        <time>2026-07-19T08:03:59Z</time>
      </trkpt>
      <trkpt lat="48.97515" lon="2.17467">
        <ele>-9</ele>
        <time>2026-07-19T08:04:11Z</time>
      </trkpt>
      <trkpt lat="48.97524" lon="2.17461">
        <ele>-11</ele>
        <time>2026-07-19T08:04:22Z</time>
      </trkpt>
      <trkpt lat="48.97533" lon="2.17457">
        <ele>-13</ele>
        <time>2026-07-19T08:04:29Z</time>
      </trkpt>
      <trkpt lat="48.97542" lon="2.17452">
        <ele>-14</ele>
        <time>2026-07-19T08:04:34Z</time>
      </trkpt>
      <trkpt lat="48.97551" lon="2.17445">
        <ele>-14</ele>
        <time>2026-07-19T08:04:45Z</time>
      </trkpt>
      <trkpt lat="48.97559" lon="2.17439">
        <ele>-15</ele>
        <time>2026-07-19T08:04:54Z</time>
      </trkpt>
      <trkpt lat="48.97567" lon="2.1743">
        <ele>-17</ele>
        <time>2026-07-19T08:05:02Z</time>
      </trkpt>
      <trkpt lat="48.97574" lon="2.17423">
        <ele>-17</ele>
        <time>2026-07-19T08:05:08Z</time>
      </trkpt>
      <trkpt lat="48.97583" lon="2.17419">
        <ele>-17</ele>
        <time>2026-07-19T08:05:14Z</time>
      </trkpt>
      <trkpt lat="48.97591" lon="2.17412">
        <ele>-17</ele>
        <time>2026-07-19T08:05:22Z</time>
      </trkpt>
      <trkpt lat="48.97598" lon="2.17401">
        <ele>-15</ele>
        <time>2026-07-19T08:05:31Z</time>
      </trkpt>
      <trkpt lat="48.97605" lon="2.17392">
        <ele>-14</ele>
        <time>2026-07-19T08:05:44Z</time>
      </trkpt>
      <trkpt lat="48.97615" lon="2.17384">
        <ele>-14</ele>
        <time>2026-07-19T08:05:51Z</time>
      </trkpt>
      <trkpt lat="48.97622" lon="2.17373">
        <ele>-12</ele>
        <time>2026-07-19T08:05:57Z</time>
      </trkpt>
      <trkpt lat="48.97629" lon="2.17364">
        <ele>-9</ele>
        <time>2026-07-19T08:06:05Z</time>
      </trkpt>
      <trkpt lat="48.97637" lon="2.17357">
        <ele>-8</ele>
        <time>2026-07-19T08:06:24Z</time>
      </trkpt>
      <trkpt lat="48.97646" lon="2.1735">
        <ele>-8</ele>
        <time>2026-07-19T08:06:30Z</time>
      </trkpt>
      <trkpt lat="48.97654" lon="2.17343">
        <ele>-10</ele>
        <time>2026-07-19T08:06:40Z</time>
      </trkpt>
      <trkpt lat="48.97663" lon="2.17337">
        <ele>-11</ele>
        <time>2026-07-19T08:06:48Z</time>
      </trkpt>
      <trkpt lat="48.97672" lon="2.17332">
        <ele>-11</ele>
        <time>2026-07-19T08:06:55Z</time>
      </trkpt>
      <trkpt lat="48.97681" lon="2.17328">
        <ele>-10</ele>
        <time>2026-07-19T08:07:02Z</time>
      </trkpt>
      <trkpt lat="48.9769" lon="2.17324">
        <ele>-10</ele>
        <time>2026-07-19T08:07:08Z</time>
      </trkpt>
      <trkpt lat="48.97699" lon="2.17317">
        <ele>-9</ele>
        <time>2026-07-19T08:07:18Z</time>
      </trkpt>
      <trkpt lat="48.97707" lon="2.1731">
        <ele>-8</ele>
        <time>2026-07-19T08:07:24Z</time>
      </trkpt>
      <trkpt lat="48.97715" lon="2.17302">
        <ele>-7</ele>
        <time>2026-07-19T08:07:30Z</time>
      </trkpt>
      <trkpt lat="48.97723" lon="2.17295">
        <ele>-8</ele>
        <time>2026-07-19T08:07:39Z</time>
      </trkpt>
      <trkpt lat="48.97732" lon="2.1729">
        <ele>-9</ele>
        <time>2026-07-19T08:07:47Z</time>
      </trkpt>
      <trkpt lat="48.97741" lon="2.17284">
        <ele>-8</ele>
        <time>2026-07-19T08:07:56Z</time>
      </trkpt>
      <trkpt lat="48.97747" lon="2.17275">
        <ele>-9</ele>
        <time>2026-07-19T08:08:07Z</time>
      </trkpt>
      <trkpt lat="48.97755" lon="2.17268">
        <ele>-10</ele>
        <time>2026-07-19T08:08:16Z</time>
      </trkpt>
      <trkpt lat="48.97763" lon="2.17259">
        <ele>-11</ele>
        <time>2026-07-19T08:08:26Z</time>
      </trkpt>
      <trkpt lat="48.97771" lon="2.17251">
        <ele>-11</ele>
        <time>2026-07-19T08:08:36Z</time>
      </trkpt>
      <trkpt lat="48.9778" lon="2.17244">
        <ele>-15</ele>
        <time>2026-07-19T08:08:48Z</time>
      </trkpt>
      <trkpt lat="48.97789" lon="2.17242">
        <ele>-16</ele>
        <time>2026-07-19T08:08:53Z</time>
      </trkpt>
      <trkpt lat="48.97797" lon="2.17235">
        <ele>-15</ele>
        <time>2026-07-19T08:09:07Z</time>
      </trkpt>
      <trkpt lat="48.97804" lon="2.17226">
        <ele>-9</ele>
        <time>2026-07-19T08:09:14Z</time>
      </trkpt>
      <trkpt lat="48.97812" lon="2.17222">
        <ele>-1</ele>
        <time>2026-07-19T08:09:19Z</time>
      </trkpt>
      <trkpt lat="48.9782" lon="2.17214">
        <ele>6</ele>
        <time>2026-07-19T08:09:30Z</time>
      </trkpt>
      <trkpt lat="48.97824" lon="2.17202">
        <ele>10</ele>
        <time>2026-07-19T08:09:37Z</time>
      </trkpt>
      <trkpt lat="48.97826" lon="2.17189">
        <ele>13</ele>
        <time>2026-07-19T08:09:44Z</time>
      </trkpt>
      <trkpt lat="48.97828" lon="2.17193">
        <ele>17</ele>
        <time>2026-07-19T08:10:11Z</time>
      </trkpt>
      <trkpt lat="48.9783" lon="2.17203">
        <ele>17</ele>
        <time>2026-07-19T08:10:20Z</time>
      </trkpt>
      <trkpt lat="48.97828" lon="2.17213">
        <ele>12</ele>
        <time>2026-07-19T08:11:03Z</time>
      </trkpt>
      <trkpt lat="48.97832" lon="2.1722">
        <ele>18</ele>
        <time>2026-07-19T08:12:14Z</time>
      </trkpt>
      <trkpt lat="48.97834" lon="2.17214">
        <ele>14</ele>
        <time>2026-07-19T08:12:57Z</time>
      </trkpt>
      <trkpt lat="48.97841" lon="2.17208">
        <ele>13</ele>
        <time>2026-07-19T08:13:04Z</time>
      </trkpt>
      <trkpt lat="48.97849" lon="2.17202">
        <ele>14</ele>
        <time>2026-07-19T08:13:11Z</time>
      </trkpt>
      <trkpt lat="48.97857" lon="2.17194">
        <ele>14</ele>
        <time>2026-07-19T08:13:22Z</time>
      </trkpt>
      <trkpt lat="48.97863" lon="2.17183">
        <ele>15</ele>
        <time>2026-07-19T08:13:35Z</time>
      </trkpt>
      <trkpt lat="48.97868" lon="2.17171">
        <ele>14</ele>
        <time>2026-07-19T08:13:45Z</time>
      </trkpt>
      <trkpt lat="48.97875" lon="2.17162">
        <ele>13</ele>
        <time>2026-07-19T08:13:52Z</time>
      </trkpt>
      <trkpt lat="48.97881" lon="2.17151">
        <ele>13</ele>
        <time>2026-07-19T08:14:00Z</time>
      </trkpt>
      <trkpt lat="48.97884" lon="2.17138">
        <ele>12</ele>
        <time>2026-07-19T08:14:10Z</time>
      </trkpt>
      <trkpt lat="48.97889" lon="2.17124">
        <ele>10</ele>
        <time>2026-07-19T08:14:19Z</time>
      </trkpt>
      <trkpt lat="48.97894" lon="2.17113">
        <ele>8</ele>
        <time>2026-07-19T08:14:26Z</time>
      </trkpt>
      <trkpt lat="48.979" lon="2.17102">
        <ele>10</ele>
        <time>2026-07-19T08:14:35Z</time>
      </trkpt>
      <trkpt lat="48.97908" lon="2.17102">
        <ele>12</ele>
        <time>2026-07-19T08:14:55Z</time>
      </trkpt>
      <trkpt lat="48.97916" lon="2.17101">
        <ele>13</ele>
        <time>2026-07-19T08:15:01Z</time>
      </trkpt>
      <trkpt lat="48.97925" lon="2.17096">
        <ele>12</ele>
        <time>2026-07-19T08:15:11Z</time>
      </trkpt>
      <trkpt lat="48.97933" lon="2.17088">
        <ele>12</ele>
        <time>2026-07-19T08:15:28Z</time>
      </trkpt>
      <trkpt lat="48.97942" lon="2.17081">
        <ele>11</ele>
        <time>2026-07-19T08:15:33Z</time>
      </trkpt>
      <trkpt lat="48.97951" lon="2.17075">
        <ele>11</ele>
        <time>2026-07-19T08:15:41Z</time>
      </trkpt>
      <trkpt lat="48.9796" lon="2.17069">
        <ele>10</ele>
        <time>2026-07-19T08:15:48Z</time>
      </trkpt>
      <trkpt lat="48.97968" lon="2.1706">
        <ele>11</ele>
        <time>2026-07-19T08:15:56Z</time>
      </trkpt>
      <trkpt lat="48.97972" lon="2.17047">
        <ele>12</ele>
        <time>2026-07-19T08:16:05Z</time>
      </trkpt>
      <trkpt lat="48.97977" lon="2.17035">
        <ele>11</ele>
        <time>2026-07-19T08:16:12Z</time>
      </trkpt>
      <trkpt lat="48.97983" lon="2.17023">
        <ele>10</ele>
        <time>2026-07-19T08:16:22Z</time>
      </trkpt>
      <trkpt lat="48.9799" lon="2.17013">
        <ele>11</ele>
        <time>2026-07-19T08:16:29Z</time>
      </trkpt>
      <trkpt lat="48.97998" lon="2.17002">
        <ele>10</ele>
        <time>2026-07-19T08:16:38Z</time>
      </trkpt>
      <trkpt lat="48.98006" lon="2.16994">
        <ele>10</ele>
        <time>2026-07-19T08:16:45Z</time>
      </trkpt>
      <trkpt lat="48.98014" lon="2.16984">
        <ele>12</ele>
        <time>2026-07-19T08:16:51Z</time>
      </trkpt>
      <trkpt lat="48.98022" lon="2.16976">
        <ele>13</ele>
        <time>2026-07-19T08:16:58Z</time>
      </trkpt>
      <trkpt lat="48.98029" lon="2.16966">
        <ele>15</ele>
        <time>2026-07-19T08:17:07Z</time>
      </trkpt>
      <trkpt lat="48.98036" lon="2.16956">
        <ele>14</ele>
        <time>2026-07-19T08:17:17Z</time>
      </trkpt>
      <trkpt lat="48.98044" lon="2.16948">
        <ele>13</ele>
        <time>2026-07-19T08:17:27Z</time>
      </trkpt>
      <trkpt lat="48.98051" lon="2.16938">
        <ele>12</ele>
        <time>2026-07-19T08:17:37Z</time>
      </trkpt>
      <trkpt lat="48.9806" lon="2.1693">
        <ele>11</ele>
        <time>2026-07-19T08:17:45Z</time>
      </trkpt>
      <trkpt lat="48.98068" lon="2.16922">
        <ele>9</ele>
        <time>2026-07-19T08:17:55Z</time>
      </trkpt>
      <trkpt lat="48.98076" lon="2.16913">
        <ele>9</ele>
        <time>2026-07-19T08:18:05Z</time>
      </trkpt>
      <trkpt lat="48.98085" lon="2.16905">
        <ele>9</ele>
        <time>2026-07-19T08:18:11Z</time>
      </trkpt>
      <trkpt lat="48.98092" lon="2.16896">
        <ele>8</ele>
        <time>2026-07-19T08:18:19Z</time>
      </trkpt>
      <trkpt lat="48.98101" lon="2.16889">
        <ele>7</ele>
        <time>2026-07-19T08:18:24Z</time>
      </trkpt>
      <trkpt lat="48.98106" lon="2.16879">
        <ele>6</ele>
        <time>2026-07-19T08:18:33Z</time>
      </trkpt>
      <trkpt lat="48.98113" lon="2.16868">
        <ele>6</ele>
        <time>2026-07-19T08:18:42Z</time>
      </trkpt>
      <trkpt lat="48.98119" lon="2.16858">
        <ele>4</ele>
        <time>2026-07-19T08:18:51Z</time>
      </trkpt>
      <trkpt lat="48.98127" lon="2.1685">
        <ele>1</ele>
        <time>2026-07-19T08:19:01Z</time>
      </trkpt>
      <trkpt lat="48.98134" lon="2.16842">
        <ele>22.5</ele>
        <time>2026-07-19T08:19:09Z</time>
      </trkpt>
      <trkpt lat="48.98141" lon="2.16833">
        <ele>22.9</ele>
        <time>2026-07-19T08:19:15Z</time>
      </trkpt>
      <trkpt lat="48.98148" lon="2.16824">
        <ele>22.6</ele>
        <time>2026-07-19T08:19:24Z</time>
      </trkpt>
      <trkpt lat="48.98153" lon="2.16811">
        <ele>22.4</ele>
        <time>2026-07-19T08:19:31Z</time>
      </trkpt>
      <trkpt lat="48.98155" lon="2.16798">
        <ele>22.3</ele>
        <time>2026-07-19T08:19:36Z</time>
      </trkpt>
      <trkpt lat="48.98159" lon="2.16784">
        <ele>1</ele>
        <time>2026-07-19T08:19:43Z</time>
      </trkpt>
      <trkpt lat="48.98163" lon="2.1677">
        <ele>2</ele>
        <time>2026-07-19T08:19:51Z</time>
      </trkpt>
      <trkpt lat="48.98168" lon="2.16758">
        <ele>3</ele>
        <time>2026-07-19T08:20:00Z</time>
      </trkpt>
      <trkpt lat="48.98175" lon="2.16748">
        <ele>4</ele>
        <time>2026-07-19T08:20:11Z</time>
      </trkpt>
      <trkpt lat="48.98182" lon="2.16738">
        <ele>4</ele>
        <time>2026-07-19T08:20:22Z</time>
      </trkpt>
      <trkpt lat="48.98188" lon="2.16727">
        <ele>5</ele>
        <time>2026-07-19T08:20:30Z</time>
      </trkpt>
      <trkpt lat="48.98194" lon="2.16716">
        <ele>2</ele>
        <time>2026-07-19T08:20:50Z</time>
      </trkpt>
      <trkpt lat="48.98201" lon="2.16707">
        <ele>1</ele>
        <time>2026-07-19T08:20:57Z</time>
      </trkpt>
      <trkpt lat="48.98207" lon="2.16696">
        <ele>22.6</ele>
        <time>2026-07-19T08:21:05Z</time>
      </trkpt>
      <trkpt lat="48.98213" lon="2.16684">
        <ele>22.1</ele>
        <time>2026-07-19T08:21:13Z</time>
      </trkpt>
      <trkpt lat="48.98218" lon="2.16673">
        <ele>-4</ele>
        <time>2026-07-19T08:21:22Z</time>
      </trkpt>
      <trkpt lat="48.98225" lon="2.16662">
        <ele>-7</ele>
        <time>2026-07-19T08:21:30Z</time>
      </trkpt>
      <trkpt lat="48.98232" lon="2.16652">
        <ele>-9</ele>
        <time>2026-07-19T08:21:37Z</time>
      </trkpt>
      <trkpt lat="48.98241" lon="2.16645">
        <ele>-15</ele>
        <time>2026-07-19T08:21:46Z</time>
      </trkpt>
      <trkpt lat="48.98246" lon="2.16634">
        <ele>-19</ele>
        <time>2026-07-19T08:21:53Z</time>
      </trkpt>
      <trkpt lat="48.98251" lon="2.16622">
        <ele>-18</ele>
        <time>2026-07-19T08:22:00Z</time>
      </trkpt>
      <trkpt lat="48.98255" lon="2.16608">
        <ele>-16</ele>
        <time>2026-07-19T08:22:07Z</time>
      </trkpt>
      <trkpt lat="48.98261" lon="2.16596">
        <ele>-14</ele>
        <time>2026-07-19T08:22:14Z</time>
      </trkpt>
      <trkpt lat="48.98267" lon="2.16585">
        <ele>-10</ele>
        <time>2026-07-19T08:22:21Z</time>
      </trkpt>
      <trkpt lat="48.98274" lon="2.16574">
        <ele>-7</ele>
        <time>2026-07-19T08:22:34Z</time>
      </trkpt>
      <trkpt lat="48.98281" lon="2.16564">
        <ele>-6</ele>
        <time>2026-07-19T08:22:40Z</time>
      </trkpt>
      <trkpt lat="48.98287" lon="2.16553">
        <ele>-5</ele>
        <time>2026-07-19T08:22:46Z</time>
      </trkpt>
      <trkpt lat="48.98293" lon="2.16541">
        <ele>-2</ele>
        <time>2026-07-19T08:22:57Z</time>
      </trkpt>
      <trkpt lat="48.98298" lon="2.16528">
        <ele>-2</ele>
        <time>2026-07-19T08:23:09Z</time>
      </trkpt>
      <trkpt lat="48.98305" lon="2.16516">
        <ele>-3</ele>
        <time>2026-07-19T08:23:14Z</time>
      </trkpt>
      <trkpt lat="48.98312" lon="2.16504">
        <ele>-4</ele>
        <time>2026-07-19T08:23:21Z</time>
      </trkpt>
      <trkpt lat="48.98318" lon="2.16492">
        <ele>-6</ele>
        <time>2026-07-19T08:23:31Z</time>
      </trkpt>
      <trkpt lat="48.98324" lon="2.16481">
        <ele>-6</ele>
        <time>2026-07-19T08:23:36Z</time>
      </trkpt>
      <trkpt lat="48.9833" lon="2.16469">
        <ele>-5</ele>
        <time>2026-07-19T08:23:46Z</time>
      </trkpt>
      <trkpt lat="48.98336" lon="2.16457">
        <ele>-4</ele>
        <time>2026-07-19T08:23:57Z</time>
      </trkpt>
      <trkpt lat="48.98343" lon="2.16447">
        <ele>-4</ele>
        <time>2026-07-19T08:24:10Z</time>
      </trkpt>
      <trkpt lat="48.98352" lon="2.1644">
        <ele>-5</ele>
        <time>2026-07-19T08:24:17Z</time>
      </trkpt>
      <trkpt lat="48.9836" lon="2.16432">
        <ele>-7</ele>
        <time>2026-07-19T08:24:32Z</time>
      </trkpt>
      <trkpt lat="48.98366" lon="2.1642">
        <ele>-7</ele>
        <time>2026-07-19T08:24:37Z</time>
      </trkpt>
      <trkpt lat="48.98371" lon="2.16407">
        <ele>-4</ele>
        <time>2026-07-19T08:24:42Z</time>
      </trkpt>
      <trkpt lat="48.98375" lon="2.16393">
        <ele>-1</ele>
        <time>2026-07-19T08:24:48Z</time>
      </trkpt>
      <trkpt lat="48.98376" lon="2.16379">
        <ele>22.1</ele>
        <time>2026-07-19T08:24:55Z</time>
      </trkpt>
      <trkpt lat="48.9838" lon="2.16366">
        <ele>1</ele>
        <time>2026-07-19T08:25:05Z</time>
      </trkpt>
      <trkpt lat="48.98381" lon="2.16352">
        <ele>4</ele>
        <time>2026-07-19T08:25:19Z</time>
      </trkpt>
      <trkpt lat="48.98385" lon="2.16341">
        <ele>5</ele>
        <time>2026-07-19T08:25:34Z</time>
      </trkpt>
      <trkpt lat="48.9839" lon="2.16328">
        <ele>5</ele>
        <time>2026-07-19T08:25:44Z</time>
      </trkpt>
      <trkpt lat="48.98396" lon="2.16317">
        <ele>4</ele>
        <time>2026-07-19T08:25:50Z</time>
      </trkpt>
      <trkpt lat="48.98402" lon="2.16306">
        <ele>4</ele>
        <time>2026-07-19T08:26:00Z</time>
      </trkpt>
      <trkpt lat="48.98409" lon="2.16297">
        <ele>3</ele>
        <time>2026-07-19T08:26:07Z</time>
      </trkpt>
      <trkpt lat="48.98416" lon="2.16287">
        <ele>3</ele>
        <time>2026-07-19T08:26:15Z</time>
      </trkpt>
      <trkpt lat="48.98423" lon="2.16279">
        <ele>3</ele>
        <time>2026-07-19T08:26:24Z</time>
      </trkpt>
      <trkpt lat="48.98429" lon="2.16268">
        <ele>2</ele>
        <time>2026-07-19T08:26:31Z</time>
      </trkpt>
      <trkpt lat="48.98431" lon="2.16255">
        <ele>2</ele>
        <time>2026-07-19T08:26:37Z</time>
      </trkpt>
      <trkpt lat="48.98431" lon="2.16239">
        <ele>22.4</ele>
        <time>2026-07-19T08:26:42Z</time>
      </trkpt>
      <trkpt lat="48.98428" lon="2.16225">
        <ele>-1</ele>
        <time>2026-07-19T08:26:50Z</time>
      </trkpt>
      <trkpt lat="48.98424" lon="2.16212">
        <ele>22.4</ele>
        <time>2026-07-19T08:26:57Z</time>
      </trkpt>
      <trkpt lat="48.9842" lon="2.16198">
        <ele>1</ele>
        <time>2026-07-19T08:27:04Z</time>
      </trkpt>
      <trkpt lat="48.98417" lon="2.16185">
        <ele>3</ele>
        <time>2026-07-19T08:27:12Z</time>
      </trkpt>
      <trkpt lat="48.98415" lon="2.16171">
        <ele>4</ele>
        <time>2026-07-19T08:27:21Z</time>
      </trkpt>
      <trkpt lat="48.9842" lon="2.16162">
        <ele>5</ele>
        <time>2026-07-19T08:27:35Z</time>
      </trkpt>
      <trkpt lat="48.98427" lon="2.16153">
        <ele>6</ele>
        <time>2026-07-19T08:27:45Z</time>
      </trkpt>
      <trkpt lat="48.98435" lon="2.16145">
        <ele>5</ele>
        <time>2026-07-19T08:27:56Z</time>
      </trkpt>
      <trkpt lat="48.98443" lon="2.16138">
        <ele>4</ele>
        <time>2026-07-19T08:28:09Z</time>
      </trkpt>
      <trkpt lat="48.98452" lon="2.16133">
        <ele>3</ele>
        <time>2026-07-19T08:28:17Z</time>
      </trkpt>
      <trkpt lat="48.9846" lon="2.16128">
        <ele>4</ele>
        <time>2026-07-19T08:28:24Z</time>
      </trkpt>
      <trkpt lat="48.98467" lon="2.1612">
        <ele>5</ele>
        <time>2026-07-19T08:28:34Z</time>
      </trkpt>
      <trkpt lat="48.98473" lon="2.16109">
        <ele>6</ele>
        <time>2026-07-19T08:28:42Z</time>
      </trkpt>
      <trkpt lat="48.98479" lon="2.16098">
        <ele>7</ele>
        <time>2026-07-19T08:28:50Z</time>
      </trkpt>
      <trkpt lat="48.98482" lon="2.16085">
        <ele>4</ele>
        <time>2026-07-19T08:29:04Z</time>
      </trkpt>
      <trkpt lat="48.98484" lon="2.16072">
        <ele>3</ele>
        <time>2026-07-19T08:29:15Z</time>
      </trkpt>
      <trkpt lat="48.98488" lon="2.1606">
        <ele>1</ele>
        <time>2026-07-19T08:29:28Z</time>
      </trkpt>
      <trkpt lat="48.98488" lon="2.16046">
        <ele>-1</ele>
        <time>2026-07-19T08:29:40Z</time>
      </trkpt>
      <trkpt lat="48.98489" lon="2.16032">
        <ele>2</ele>
        <time>2026-07-19T08:29:56Z</time>
      </trkpt>
      <trkpt lat="48.98494" lon="2.16024">
        <ele>4</ele>
        <time>2026-07-19T08:30:11Z</time>
      </trkpt>
      <trkpt lat="48.98498" lon="2.16013">
        <ele>4</ele>
        <time>2026-07-19T08:30:18Z</time>
      </trkpt>
      <trkpt lat="48.985" lon="2.15999">
        <ele>4</ele>
        <time>2026-07-19T08:30:29Z</time>
      </trkpt>
      <trkpt lat="48.98501" lon="2.15985">
        <ele>4</ele>
        <time>2026-07-19T08:30:35Z</time>
      </trkpt>
      <trkpt lat="48.98502" lon="2.15971">
        <ele>5</ele>
        <time>2026-07-19T08:30:43Z</time>
      </trkpt>
      <trkpt lat="48.98503" lon="2.15957">
        <ele>5</ele>
        <time>2026-07-19T08:30:53Z</time>
      </trkpt>
      <trkpt lat="48.98504" lon="2.15943">
        <ele>5</ele>
        <time>2026-07-19T08:31:02Z</time>
      </trkpt>
      <trkpt lat="48.98505" lon="2.15929">
        <ele>5</ele>
        <time>2026-07-19T08:31:11Z</time>
      </trkpt>
      <trkpt lat="48.98507" lon="2.15916">
        <ele>5</ele>
        <time>2026-07-19T08:31:20Z</time>
      </trkpt>
      <trkpt lat="48.98507" lon="2.15902">
        <ele>6</ele>
        <time>2026-07-19T08:31:37Z</time>
      </trkpt>
      <trkpt lat="48.98508" lon="2.15888">
        <ele>6</ele>
        <time>2026-07-19T08:31:51Z</time>
      </trkpt>
      <trkpt lat="48.98507" lon="2.15874">
        <ele>4</ele>
        <time>2026-07-19T08:32:02Z</time>
      </trkpt>
      <trkpt lat="48.98509" lon="2.15861">
        <ele>4</ele>
        <time>2026-07-19T08:32:14Z</time>
      </trkpt>
      <trkpt lat="48.98511" lon="2.15848">
        <ele>5</ele>
        <time>2026-07-19T08:32:22Z</time>
      </trkpt>
      <trkpt lat="48.98512" lon="2.15834">
        <ele>4</ele>
        <time>2026-07-19T08:32:33Z</time>
      </trkpt>
      <trkpt lat="48.98515" lon="2.1582">
        <ele>4</ele>
        <time>2026-07-19T08:32:44Z</time>
      </trkpt>
      <trkpt lat="48.98515" lon="2.15806">
        <ele>4</ele>
        <time>2026-07-19T08:32:52Z</time>
      </trkpt>
      <trkpt lat="48.98516" lon="2.15792">
        <ele>6</ele>
        <time>2026-07-19T08:33:00Z</time>
      </trkpt>
      <trkpt lat="48.98517" lon="2.15778">
        <ele>7</ele>
        <time>2026-07-19T08:33:08Z</time>
      </trkpt>
      <trkpt lat="48.98517" lon="2.15763">
        <ele>7</ele>
        <time>2026-07-19T08:33:19Z</time>
      </trkpt>
      <trkpt lat="48.98516" lon="2.15749">
        <ele>7</ele>
        <time>2026-07-19T08:33:29Z</time>
      </trkpt>
      <trkpt lat="48.98515" lon="2.15735">
        <ele>7</ele>
        <time>2026-07-19T08:33:36Z</time>
      </trkpt>
      <trkpt lat="48.98517" lon="2.15721">
        <ele>10</ele>
        <time>2026-07-19T08:33:47Z</time>
      </trkpt>
      <trkpt lat="48.98524" lon="2.15712">
        <ele>14</ele>
        <time>2026-07-19T08:35:14Z</time>
      </trkpt>
      <trkpt lat="48.98531" lon="2.15702">
        <ele>14</ele>
        <time>2026-07-19T08:36:49Z</time>
      </trkpt>
      <trkpt lat="48.98538" lon="2.15693">
        <ele>17</ele>
        <time>2026-07-19T08:37:26Z</time>
      </trkpt>
      <trkpt lat="48.98544" lon="2.15682">
        <ele>17</ele>
        <time>2026-07-19T08:37:34Z</time>
      </trkpt>
      <trkpt lat="48.98552" lon="2.15677">
        <ele>16</ele>
        <time>2026-07-19T08:37:42Z</time>
      </trkpt>
      <trkpt lat="48.98562" lon="2.15674">
        <ele>16</ele>
        <time>2026-07-19T08:37:49Z</time>
      </trkpt>
      <trkpt lat="48.98571" lon="2.15675">
        <ele>15</ele>
        <time>2026-07-19T08:37:57Z</time>
      </trkpt>
      <trkpt lat="48.98579" lon="2.15682">
        <ele>16</ele>
        <time>2026-07-19T08:38:07Z</time>
      </trkpt>
      <trkpt lat="48.98584" lon="2.15692">
        <ele>15</ele>
        <time>2026-07-19T08:38:25Z</time>
      </trkpt>
      <trkpt lat="48.98592" lon="2.15695">
        <ele>14</ele>
        <time>2026-07-19T08:38:30Z</time>
      </trkpt>
      <trkpt lat="48.98601" lon="2.15693">
        <ele>15</ele>
        <time>2026-07-19T08:38:37Z</time>
      </trkpt>
      <trkpt lat="48.9861" lon="2.1569">
        <ele>16</ele>
        <time>2026-07-19T08:38:43Z</time>
      </trkpt>
      <trkpt lat="48.98619" lon="2.15685">
        <ele>15</ele>
        <time>2026-07-19T08:38:59Z</time>
      </trkpt>
      <trkpt lat="48.98627" lon="2.15687">
        <ele>14</ele>
        <time>2026-07-19T08:39:09Z</time>
      </trkpt>
      <trkpt lat="48.98635" lon="2.15693">
        <ele>13</ele>
        <time>2026-07-19T08:39:17Z</time>
      </trkpt>
      <trkpt lat="48.98643" lon="2.15702">
        <ele>13</ele>
        <time>2026-07-19T08:39:24Z</time>
      </trkpt>
      <trkpt lat="48.9865" lon="2.15713">
        <ele>14</ele>
        <time>2026-07-19T08:39:37Z</time>
      </trkpt>
      <trkpt lat="48.98656" lon="2.15725">
        <ele>15</ele>
        <time>2026-07-19T08:39:47Z</time>
      </trkpt>
      <trkpt lat="48.98662" lon="2.15737">
        <ele>14</ele>
        <time>2026-07-19T08:39:55Z</time>
      </trkpt>
      <trkpt lat="48.98667" lon="2.15749">
        <ele>13</ele>
        <time>2026-07-19T08:40:42Z</time>
      </trkpt>
      <trkpt lat="48.98674" lon="2.15752">
        <ele>11</ele>
        <time>2026-07-19T08:40:56Z</time>
      </trkpt>
      <trkpt lat="48.98682" lon="2.15756">
        <ele>15</ele>
        <time>2026-07-19T08:41:55Z</time>
      </trkpt>
      <trkpt lat="48.9869" lon="2.15762">
        <ele>17</ele>
        <time>2026-07-19T08:42:07Z</time>
      </trkpt>
      <trkpt lat="48.98699" lon="2.15763">
        <ele>18</ele>
        <time>2026-07-19T08:42:17Z</time>
      </trkpt>
      <trkpt lat="48.98706" lon="2.15771">
        <ele>19</ele>
        <time>2026-07-19T08:42:24Z</time>
      </trkpt>
      <trkpt lat="48.98713" lon="2.15781">
        <ele>21</ele>
        <time>2026-07-19T08:42:30Z</time>
      </trkpt>
      <trkpt lat="48.98721" lon="2.15789">
        <ele>25</ele>
        <time>2026-07-19T08:42:36Z</time>
      </trkpt>
      <trkpt lat="48.98729" lon="2.15798">
        <ele>31</ele>
        <time>2026-07-19T08:42:45Z</time>
      </trkpt>
      <trkpt lat="48.98737" lon="2.15806">
        <ele>32</ele>
        <time>2026-07-19T08:42:54Z</time>
      </trkpt>
      <trkpt lat="48.98744" lon="2.15814">
        <ele>33</ele>
        <time>2026-07-19T08:43:03Z</time>
      </trkpt>
      <trkpt lat="48.9875" lon="2.15825">
        <ele>33</ele>
        <time>2026-07-19T08:43:16Z</time>
      </trkpt>
      <trkpt lat="48.98757" lon="2.15835">
        <ele>36</ele>
        <time>2026-07-19T08:43:26Z</time>
      </trkpt>
      <trkpt lat="48.98764" lon="2.15844">
        <ele>38</ele>
        <time>2026-07-19T08:43:35Z</time>
      </trkpt>
      <trkpt lat="48.98772" lon="2.15852">
        <ele>40</ele>
        <time>2026-07-19T08:43:43Z</time>
      </trkpt>
      <trkpt lat="48.98779" lon="2.15863">
        <ele>41</ele>
        <time>2026-07-19T08:43:52Z</time>
      </trkpt>
      <trkpt lat="48.98786" lon="2.15874">
        <ele>40</ele>
        <time>2026-07-19T08:44:02Z</time>
      </trkpt>
      <trkpt lat="48.98786" lon="2.15887">
        <ele>37</ele>
        <time>2026-07-19T08:44:46Z</time>
      </trkpt>
      <trkpt lat="48.98786" lon="2.159">
        <ele>35</ele>
        <time>2026-07-19T08:44:58Z</time>
      </trkpt>
      <trkpt lat="48.98784" lon="2.15914">
        <ele>31</ele>
        <time>2026-07-19T08:45:26Z</time>
      </trkpt>
      <trkpt lat="48.98778" lon="2.15919">
        <ele>31</ele>
        <time>2026-07-19T08:45:45Z</time>
      </trkpt>
      <trkpt lat="48.98773" lon="2.15929">
        <ele>32</ele>
        <time>2026-07-19T08:46:02Z</time>
      </trkpt>
      <trkpt lat="48.98771" lon="2.15942">
        <ele>33</ele>
        <time>2026-07-19T08:46:32Z</time>
      </trkpt>
      <trkpt lat="48.98764" lon="2.1595">
        <ele>34</ele>
        <time>2026-07-19T08:46:43Z</time>
      </trkpt>
      <trkpt lat="48.98766" lon="2.15959">
        <ele>40</ele>
        <time>2026-07-19T08:47:12Z</time>
      </trkpt>
      <trkpt lat="48.98771" lon="2.1597">
        <ele>44</ele>
        <time>2026-07-19T08:47:30Z</time>
      </trkpt>
      <trkpt lat="48.98773" lon="2.15983">
        <ele>45</ele>
        <time>2026-07-19T08:47:45Z</time>
      </trkpt>
      <trkpt lat="48.98774" lon="2.15998">
        <ele>47</ele>
        <time>2026-07-19T08:47:54Z</time>
      </trkpt>
      <trkpt lat="48.98776" lon="2.16013">
        <ele>50</ele>
        <time>2026-07-19T08:48:05Z</time>
      </trkpt>
      <trkpt lat="48.9878" lon="2.16026">
        <ele>50</ele>
        <time>2026-07-19T08:48:20Z</time>
      </trkpt>
      <trkpt lat="48.98782" lon="2.1604">
        <ele>53</ele>
        <time>2026-07-19T08:48:56Z</time>
      </trkpt>
      <trkpt lat="48.98787" lon="2.16051">
        <ele>54</ele>
        <time>2026-07-19T08:49:04Z</time>
      </trkpt>
      <trkpt lat="48.98791" lon="2.16063">
        <ele>55</ele>
        <time>2026-07-19T08:49:13Z</time>
      </trkpt>
      <trkpt lat="48.98796" lon="2.16075">
        <ele>54</ele>
        <time>2026-07-19T08:49:25Z</time>
      </trkpt>
      <trkpt lat="48.98802" lon="2.16085">
        <ele>54</ele>
        <time>2026-07-19T08:49:34Z</time>
      </trkpt>
      <trkpt lat="48.98808" lon="2.16097">
        <ele>54</ele>
        <time>2026-07-19T08:49:42Z</time>
      </trkpt>
      <trkpt lat="48.98814" lon="2.16108">
        <ele>55</ele>
        <time>2026-07-19T08:49:51Z</time>
      </trkpt>
      <trkpt lat="48.98821" lon="2.1612">
        <ele>55</ele>
        <time>2026-07-19T08:50:01Z</time>
      </trkpt>
      <trkpt lat="48.98826" lon="2.16132">
        <ele>56</ele>
        <time>2026-07-19T08:50:09Z</time>
      </trkpt>
      <trkpt lat="48.98827" lon="2.16146">
        <ele>54</ele>
        <time>2026-07-19T08:50:20Z</time>
      </trkpt>
      <trkpt lat="48.98833" lon="2.16156">
        <ele>52</ele>
        <time>2026-07-19T08:50:30Z</time>
      </trkpt>
      <trkpt lat="48.9884" lon="2.16164">
        <ele>51</ele>
        <time>2026-07-19T08:50:37Z</time>
      </trkpt>
      <trkpt lat="48.98845" lon="2.16175">
        <ele>50</ele>
        <time>2026-07-19T08:50:44Z</time>
      </trkpt>
      <trkpt lat="48.98852" lon="2.16186">
        <ele>49</ele>
        <time>2026-07-19T08:50:51Z</time>
      </trkpt>
      <trkpt lat="48.98859" lon="2.16195">
        <ele>49</ele>
        <time>2026-07-19T08:50:59Z</time>
      </trkpt>
      <trkpt lat="48.98866" lon="2.16204">
        <ele>48</ele>
        <time>2026-07-19T08:51:07Z</time>
      </trkpt>
      <trkpt lat="48.98873" lon="2.16212">
        <ele>48</ele>
        <time>2026-07-19T08:51:14Z</time>
      </trkpt>
      <trkpt lat="48.98879" lon="2.16222">
        <ele>46</ele>
        <time>2026-07-19T08:51:22Z</time>
      </trkpt>
      <trkpt lat="48.98885" lon="2.16233">
        <ele>43</ele>
        <time>2026-07-19T08:51:28Z</time>
      </trkpt>
      <trkpt lat="48.98891" lon="2.16244">
        <ele>37</ele>
        <time>2026-07-19T08:51:40Z</time>
      </trkpt>
      <trkpt lat="48.98895" lon="2.16256">
        <ele>36</ele>
        <time>2026-07-19T08:51:46Z</time>
      </trkpt>
      <trkpt lat="48.98901" lon="2.16267">
        <ele>38</ele>
        <time>2026-07-19T08:51:54Z</time>
      </trkpt>
      <trkpt lat="48.98909" lon="2.16276">
        <ele>39</ele>
        <time>2026-07-19T08:51:59Z</time>
      </trkpt>
      <trkpt lat="48.98916" lon="2.16284">
        <ele>39</ele>
        <time>2026-07-19T08:52:07Z</time>
      </trkpt>
      <trkpt lat="48.98919" lon="2.16296">
        <ele>40</ele>
        <time>2026-07-19T08:52:17Z</time>
      </trkpt>
      <trkpt lat="48.98922" lon="2.16309">
        <ele>41</ele>
        <time>2026-07-19T08:52:24Z</time>
      </trkpt>
      <trkpt lat="48.98928" lon="2.16318">
        <ele>42</ele>
        <time>2026-07-19T08:52:30Z</time>
      </trkpt>
      <trkpt lat="48.98933" lon="2.16328">
        <ele>43</ele>
        <time>2026-07-19T08:52:41Z</time>
      </trkpt>
      <trkpt lat="48.98935" lon="2.16342">
        <ele>44</ele>
        <time>2026-07-19T08:52:47Z</time>
      </trkpt>
      <trkpt lat="48.98941" lon="2.16347">
        <ele>47</ele>
        <time>2026-07-19T08:52:55Z</time>
      </trkpt>
      <trkpt lat="48.98948" lon="2.16355">
        <ele>49</ele>
        <time>2026-07-19T08:53:02Z</time>
      </trkpt>
      <trkpt lat="48.98954" lon="2.16366">
        <ele>51</ele>
        <time>2026-07-19T08:53:11Z</time>
      </trkpt>
      <trkpt lat="48.98958" lon="2.16379">
        <ele>54</ele>
        <time>2026-07-19T08:53:18Z</time>
      </trkpt>
      <trkpt lat="48.98959" lon="2.16392">
        <ele>56</ele>
        <time>2026-07-19T08:53:30Z</time>
      </trkpt>
      <trkpt lat="48.98962" lon="2.16406">
        <ele>58</ele>
        <time>2026-07-19T08:53:44Z</time>
      </trkpt>
      <trkpt lat="48.98963" lon="2.16419">
        <ele>60</ele>
        <time>2026-07-19T08:53:53Z</time>
      </trkpt>
      <trkpt lat="48.9896" lon="2.16433">
        <ele>61</ele>
        <time>2026-07-19T08:54:03Z</time>
      </trkpt>
      <trkpt lat="48.98956" lon="2.16445">
        <ele>61</ele>
        <time>2026-07-19T08:54:14Z</time>
      </trkpt>
      <trkpt lat="48.98952" lon="2.16458">
        <ele>62</ele>
        <time>2026-07-19T08:54:39Z</time>
      </trkpt>
      <trkpt lat="48.98952" lon="2.16454">
        <ele>60</ele>
        <time>2026-07-19T08:55:06Z</time>
      </trkpt>
      <trkpt lat="48.98955" lon="2.16445">
        <ele>59</ele>
        <time>2026-07-19T08:55:15Z</time>
      </trkpt>
      <trkpt lat="48.98959" lon="2.16435">
        <ele>58</ele>
        <time>2026-07-19T08:55:24Z</time>
      </trkpt>
      <trkpt lat="48.98965" lon="2.16424">
        <ele>57</ele>
        <time>2026-07-19T08:55:32Z</time>
      </trkpt>
      <trkpt lat="48.98969" lon="2.16412">
        <ele>57</ele>
        <time>2026-07-19T08:55:40Z</time>
      </trkpt>
      <trkpt lat="48.9897" lon="2.16398">
        <ele>56</ele>
        <time>2026-07-19T08:55:46Z</time>
      </trkpt>
      <trkpt lat="48.98965" lon="2.16388">
        <ele>54</ele>
        <time>2026-07-19T08:55:59Z</time>
      </trkpt>
      <trkpt lat="48.9896" lon="2.16376">
        <ele>52</ele>
        <time>2026-07-19T08:56:10Z</time>
      </trkpt>
      <trkpt lat="48.98953" lon="2.1636">
        <ele>51</ele>
        <time>2026-07-19T08:56:15Z</time>
      </trkpt>
      <trkpt lat="48.98946" lon="2.16348">
        <ele>52</ele>
        <time>2026-07-19T08:56:22Z</time>
      </trkpt>
      <trkpt lat="48.9894" lon="2.16336">
        <ele>53</ele>
        <time>2026-07-19T08:56:33Z</time>
      </trkpt>
      <trkpt lat="48.98934" lon="2.16324">
        <ele>54</ele>
        <time>2026-07-19T08:56:42Z</time>
      </trkpt>
      <trkpt lat="48.9893" lon="2.16311">
        <ele>53</ele>
        <time>2026-07-19T08:56:56Z</time>
      </trkpt>
      <trkpt lat="48.98924" lon="2.16299">
        <ele>52</ele>
        <time>2026-07-19T08:57:06Z</time>
      </trkpt>
      <trkpt lat="48.98917" lon="2.1629">
        <ele>51</ele>
        <time>2026-07-19T08:57:11Z</time>
      </trkpt>
      <trkpt lat="48.9891" lon="2.1628">
        <ele>50</ele>
        <time>2026-07-19T08:57:18Z</time>
      </trkpt>
      <trkpt lat="48.98902" lon="2.16271">
        <ele>48</ele>
        <time>2026-07-19T08:57:26Z</time>
      </trkpt>
      <trkpt lat="48.98895" lon="2.16261">
        <ele>47</ele>
        <time>2026-07-19T08:57:33Z</time>
      </trkpt>
      <trkpt lat="48.98891" lon="2.16248">
        <ele>46</ele>
        <time>2026-07-19T08:57:42Z</time>
      </trkpt>
      <trkpt lat="48.98886" lon="2.16236">
        <ele>43</ele>
        <time>2026-07-19T08:57:50Z</time>
      </trkpt>
      <trkpt lat="48.98879" lon="2.16226">
        <ele>44</ele>
        <time>2026-07-19T08:57:58Z</time>
      </trkpt>
      <trkpt lat="48.98871" lon="2.16218">
        <ele>45</ele>
        <time>2026-07-19T08:58:09Z</time>
      </trkpt>
      <trkpt lat="48.98864" lon="2.16206">
        <ele>44</ele>
        <time>2026-07-19T08:58:19Z</time>
      </trkpt>
      <trkpt lat="48.98857" lon="2.16194">
        <ele>43</ele>
        <time>2026-07-19T08:58:25Z</time>
      </trkpt>
      <trkpt lat="48.98851" lon="2.16183">
        <ele>47</ele>
        <time>2026-07-19T08:58:34Z</time>
      </trkpt>
      <trkpt lat="48.98847" lon="2.1617">
        <ele>51</ele>
        <time>2026-07-19T08:58:43Z</time>
      </trkpt>
      <trkpt lat="48.98841" lon="2.16159">
        <ele>51</ele>
        <time>2026-07-19T08:58:51Z</time>
      </trkpt>
      <trkpt lat="48.98835" lon="2.16148">
        <ele>53</ele>
        <time>2026-07-19T08:58:57Z</time>
      </trkpt>
      <trkpt lat="48.98829" lon="2.16137">
        <ele>54</ele>
        <time>2026-07-19T08:59:05Z</time>
      </trkpt>
      <trkpt lat="48.98823" lon="2.16126">
        <ele>55</ele>
        <time>2026-07-19T08:59:14Z</time>
      </trkpt>
      <trkpt lat="48.9882" lon="2.16113">
        <ele>58</ele>
        <time>2026-07-19T08:59:22Z</time>
      </trkpt>
      <trkpt lat="48.98815" lon="2.161">
        <ele>59</ele>
        <time>2026-07-19T08:59:29Z</time>
      </trkpt>
      <trkpt lat="48.98811" lon="2.16088">
        <ele>59</ele>
        <time>2026-07-19T08:59:37Z</time>
      </trkpt>
      <trkpt lat="48.98806" lon="2.16076">
        <ele>58</ele>
        <time>2026-07-19T08:59:46Z</time>
      </trkpt>
      <trkpt lat="48.98799" lon="2.16072">
        <ele>58</ele>
        <time>2026-07-19T08:59:55Z</time>
      </trkpt>
      <trkpt lat="48.9879" lon="2.16069">
        <ele>58</ele>
        <time>2026-07-19T09:00:04Z</time>
      </trkpt>
      <trkpt lat="48.98781" lon="2.16065">
        <ele>56</ele>
        <time>2026-07-19T09:00:21Z</time>
      </trkpt>
      <trkpt lat="48.98772" lon="2.16065">
        <ele>54</ele>
        <time>2026-07-19T09:00:28Z</time>
      </trkpt>
      <trkpt lat="48.98765" lon="2.16072">
        <ele>52</ele>
        <time>2026-07-19T09:00:37Z</time>
      </trkpt>
      <trkpt lat="48.98757" lon="2.16071">
        <ele>50</ele>
        <time>2026-07-19T09:00:43Z</time>
      </trkpt>
      <trkpt lat="48.9875" lon="2.16064">
        <ele>50</ele>
        <time>2026-07-19T09:00:50Z</time>
      </trkpt>
      <trkpt lat="48.98742" lon="2.16056">
        <ele>49</ele>
        <time>2026-07-19T09:00:57Z</time>
      </trkpt>
      <trkpt lat="48.98733" lon="2.16051">
        <ele>48</ele>
        <time>2026-07-19T09:01:06Z</time>
      </trkpt>
      <trkpt lat="48.98725" lon="2.16052">
        <ele>48</ele>
        <time>2026-07-19T09:01:18Z</time>
      </trkpt>
      <trkpt lat="48.98717" lon="2.16058">
        <ele>50</ele>
        <time>2026-07-19T09:01:59Z</time>
      </trkpt>
      <trkpt lat="48.98713" lon="2.16069">
        <ele>50</ele>
        <time>2026-07-19T09:03:32Z</time>
      </trkpt>
      <trkpt lat="48.98712" lon="2.16082">
        <ele>50</ele>
        <time>2026-07-19T09:03:47Z</time>
      </trkpt>
      <trkpt lat="48.98711" lon="2.16096">
        <ele>52</ele>
        <time>2026-07-19T09:04:06Z</time>
      </trkpt>
      <trkpt lat="48.98708" lon="2.16109">
        <ele>52</ele>
        <time>2026-07-19T09:04:28Z</time>
      </trkpt>
      <trkpt lat="48.98706" lon="2.16123">
        <ele>51</ele>
        <time>2026-07-19T09:04:40Z</time>
      </trkpt>
      <trkpt lat="48.98703" lon="2.16137">
        <ele>50</ele>
        <time>2026-07-19T09:04:54Z</time>
      </trkpt>
      <trkpt lat="48.987" lon="2.1615">
        <ele>53</ele>
        <time>2026-07-19T09:05:17Z</time>
      </trkpt>
      <trkpt lat="48.98697" lon="2.16164">
        <ele>54</ele>
        <time>2026-07-19T09:05:37Z</time>
      </trkpt>
      <trkpt lat="48.98695" lon="2.16177">
        <ele>53</ele>
        <time>2026-07-19T09:05:59Z</time>
      </trkpt>
      <trkpt lat="48.9869" lon="2.16187">
        <ele>54</ele>
        <time>2026-07-19T09:06:17Z</time>
      </trkpt>
      <trkpt lat="48.98689" lon="2.16199">
        <ele>55</ele>
        <time>2026-07-19T09:06:50Z</time>
      </trkpt>
      <trkpt lat="48.98688" lon="2.16213">
        <ele>54</ele>
        <time>2026-07-19T09:07:03Z</time>
      </trkpt>
      <trkpt lat="48.98687" lon="2.16228">
        <ele>54</ele>
        <time>2026-07-19T09:07:15Z</time>
      </trkpt>
      <trkpt lat="48.98687" lon="2.16243">
        <ele>51</ele>
        <time>2026-07-19T09:07:26Z</time>
      </trkpt>
      <trkpt lat="48.98685" lon="2.16256">
        <ele>50</ele>
        <time>2026-07-19T09:07:36Z</time>
      </trkpt>
      <trkpt lat="48.98682" lon="2.16269">
        <ele>49</ele>
        <time>2026-07-19T09:07:47Z</time>
      </trkpt>
      <trkpt lat="48.98678" lon="2.16282">
        <ele>50</ele>
        <time>2026-07-19T09:08:01Z</time>
      </trkpt>
      <trkpt lat="48.98674" lon="2.16295">
        <ele>48</ele>
        <time>2026-07-19T09:08:09Z</time>
      </trkpt>
      <trkpt lat="48.98672" lon="2.1631">
        <ele>45</ele>
        <time>2026-07-19T09:08:17Z</time>
      </trkpt>
      <trkpt lat="48.9867" lon="2.16324">
        <ele>44</ele>
        <time>2026-07-19T09:08:31Z</time>
      </trkpt>
      <trkpt lat="48.98667" lon="2.16338">
        <ele>45</ele>
        <time>2026-07-19T09:08:40Z</time>
      </trkpt>
      <trkpt lat="48.98666" lon="2.16352">
        <ele>45</ele>
        <time>2026-07-19T09:08:56Z</time>
      </trkpt>
      <trkpt lat="48.98661" lon="2.16364">
        <ele>45</ele>
        <time>2026-07-19T09:09:06Z</time>
      </trkpt>
      <trkpt lat="48.98658" lon="2.16377">
        <ele>44</ele>
        <time>2026-07-19T09:09:18Z</time>
      </trkpt>
      <trkpt lat="48.98657" lon="2.16391">
        <ele>44</ele>
        <time>2026-07-19T09:09:25Z</time>
      </trkpt>
      <trkpt lat="48.98654" lon="2.16405">
        <ele>43</ele>
        <time>2026-07-19T09:09:30Z</time>
      </trkpt>
      <trkpt lat="48.9865" lon="2.1642">
        <ele>42</ele>
        <time>2026-07-19T09:09:36Z</time>
      </trkpt>
      <trkpt lat="48.98645" lon="2.16434">
        <ele>44</ele>
        <time>2026-07-19T09:09:41Z</time>
      </trkpt>
      <trkpt lat="48.9864" lon="2.16446">
        <ele>48</ele>
        <time>2026-07-19T09:09:49Z</time>
      </trkpt>
      <trkpt lat="48.98635" lon="2.16459">
        <ele>54</ele>
        <time>2026-07-19T09:10:01Z</time>
      </trkpt>
      <trkpt lat="48.98631" lon="2.16472">
        <ele>57</ele>
        <time>2026-07-19T09:10:09Z</time>
      </trkpt>
      <trkpt lat="48.98626" lon="2.16484">
        <ele>60</ele>
        <time>2026-07-19T09:10:18Z</time>
      </trkpt>
      <trkpt lat="48.98621" lon="2.16497">
        <ele>63</ele>
        <time>2026-07-19T09:10:27Z</time>
      </trkpt>
      <trkpt lat="48.98618" lon="2.16511">
        <ele>62</ele>
        <time>2026-07-19T09:10:34Z</time>
      </trkpt>
      <trkpt lat="48.98614" lon="2.16523">
        <ele>60</ele>
        <time>2026-07-19T09:10:45Z</time>
      </trkpt>
      <trkpt lat="48.98612" lon="2.16537">
        <ele>64</ele>
        <time>2026-07-19T09:10:58Z</time>
      </trkpt>
      <trkpt lat="48.98609" lon="2.16551">
        <ele>69</ele>
        <time>2026-07-19T09:11:07Z</time>
      </trkpt>
      <trkpt lat="48.98604" lon="2.16563">
        <ele>73</ele>
        <time>2026-07-19T09:11:22Z</time>
      </trkpt>
      <trkpt lat="48.98602" lon="2.16576">
        <ele>74</ele>
        <time>2026-07-19T09:11:28Z</time>
      </trkpt>
      <trkpt lat="48.98598" lon="2.16591">
        <ele>73</ele>
        <time>2026-07-19T09:11:36Z</time>
      </trkpt>
      <trkpt lat="48.98594" lon="2.16604">
        <ele>72</ele>
        <time>2026-07-19T09:11:48Z</time>
      </trkpt>
      <trkpt lat="48.98589" lon="2.16618">
        <ele>73</ele>
        <time>2026-07-19T09:11:57Z</time>
      </trkpt>
      <trkpt lat="48.98586" lon="2.16632">
        <ele>74</ele>
        <time>2026-07-19T09:12:05Z</time>
      </trkpt>
      <trkpt lat="48.98584" lon="2.16645">
        <ele>73</ele>
        <time>2026-07-19T09:12:12Z</time>
      </trkpt>
      <trkpt lat="48.9858" lon="2.16658">
        <ele>72</ele>
        <time>2026-07-19T09:12:22Z</time>
      </trkpt>
      <trkpt lat="48.98577" lon="2.16671">
        <ele>70</ele>
        <time>2026-07-19T09:12:32Z</time>
      </trkpt>
      <trkpt lat="48.98573" lon="2.16683">
        <ele>68</ele>
        <time>2026-07-19T09:12:41Z</time>
      </trkpt>
      <trkpt lat="48.9857" lon="2.16696">
        <ele>71</ele>
        <time>2026-07-19T09:12:52Z</time>
      </trkpt>
      <trkpt lat="48.98564" lon="2.16706">
        <ele>69</ele>
        <time>2026-07-19T09:13:05Z</time>
      </trkpt>
      <trkpt lat="48.9856" lon="2.16719">
        <ele>70</ele>
        <time>2026-07-19T09:13:17Z</time>
      </trkpt>
      <trkpt lat="48.98554" lon="2.16727">
        <ele>68</ele>
        <time>2026-07-19T09:13:27Z</time>
      </trkpt>
      <trkpt lat="48.98547" lon="2.16738">
        <ele>69</ele>
        <time>2026-07-19T09:13:34Z</time>
      </trkpt>
      <trkpt lat="48.98541" lon="2.1675">
        <ele>68</ele>
        <time>2026-07-19T09:13:41Z</time>
      </trkpt>
      <trkpt lat="48.98534" lon="2.16762">
        <ele>69</ele>
        <time>2026-07-19T09:13:49Z</time>
      </trkpt>
      <trkpt lat="48.98531" lon="2.16776">
        <ele>68</ele>
        <time>2026-07-19T09:14:10Z</time>
      </trkpt>
      <trkpt lat="48.98526" lon="2.16786">
        <ele>70</ele>
        <time>2026-07-19T09:14:20Z</time>
      </trkpt>
      <trkpt lat="48.98523" lon="2.16799">
        <ele>72</ele>
        <time>2026-07-19T09:14:33Z</time>
      </trkpt>
      <trkpt lat="48.98519" lon="2.16811">
        <ele>75</ele>
        <time>2026-07-19T09:14:41Z</time>
      </trkpt>
      <trkpt lat="48.98514" lon="2.16823">
        <ele>78</ele>
        <time>2026-07-19T09:14:55Z</time>
      </trkpt>
      <trkpt lat="48.98508" lon="2.16834">
        <ele>75</ele>
        <time>2026-07-19T09:15:09Z</time>
      </trkpt>
      <trkpt lat="48.98501" lon="2.16843">
        <ele>74</ele>
        <time>2026-07-19T09:15:19Z</time>
      </trkpt>
      <trkpt lat="48.98495" lon="2.16854">
        <ele>71</ele>
        <time>2026-07-19T09:15:29Z</time>
      </trkpt>
      <trkpt lat="48.9849" lon="2.16865">
        <ele>70</ele>
        <time>2026-07-19T09:15:36Z</time>
      </trkpt>
      <trkpt lat="48.98483" lon="2.16875">
        <ele>70</ele>
        <time>2026-07-19T09:15:46Z</time>
      </trkpt>
      <trkpt lat="48.98478" lon="2.16887">
        <ele>71</ele>
        <time>2026-07-19T09:15:56Z</time>
      </trkpt>
      <trkpt lat="48.98474" lon="2.169">
        <ele>72</ele>
        <time>2026-07-19T09:16:05Z</time>
      </trkpt>
      <trkpt lat="48.98469" lon="2.16912">
        <ele>71</ele>
        <time>2026-07-19T09:16:13Z</time>
      </trkpt>
      <trkpt lat="48.98465" lon="2.16926">
        <ele>70</ele>
        <time>2026-07-19T09:16:22Z</time>
      </trkpt>
      <trkpt lat="48.9846" lon="2.16938">
        <ele>65</ele>
        <time>2026-07-19T09:16:31Z</time>
      </trkpt>
      <trkpt lat="48.98454" lon="2.1695">
        <ele>64</ele>
        <time>2026-07-19T09:16:39Z</time>
      </trkpt>
      <trkpt lat="48.98447" lon="2.1696">
        <ele>63</ele>
        <time>2026-07-19T09:16:47Z</time>
      </trkpt>
      <trkpt lat="48.98439" lon="2.16971">
        <ele>63</ele>
        <time>2026-07-19T09:16:56Z</time>
      </trkpt>
      <trkpt lat="48.98432" lon="2.16981">
        <ele>64</ele>
        <time>2026-07-19T09:17:06Z</time>
      </trkpt>
      <trkpt lat="48.98425" lon="2.16991">
        <ele>64</ele>
        <time>2026-07-19T09:17:16Z</time>
      </trkpt>
      <trkpt lat="48.98418" lon="2.17">
        <ele>64</ele>
        <time>2026-07-19T09:17:24Z</time>
      </trkpt>
      <trkpt lat="48.9841" lon="2.17008">
        <ele>63</ele>
        <time>2026-07-19T09:17:32Z</time>
      </trkpt>
      <trkpt lat="48.98403" lon="2.17018">
        <ele>63</ele>
        <time>2026-07-19T09:17:40Z</time>
      </trkpt>
      <trkpt lat="48.98395" lon="2.17027">
        <ele>62</ele>
        <time>2026-07-19T09:17:51Z</time>
      </trkpt>
      <trkpt lat="48.98387" lon="2.17035">
        <ele>61</ele>
        <time>2026-07-19T09:18:01Z</time>
      </trkpt>
      <trkpt lat="48.98379" lon="2.17043">
        <ele>60</ele>
        <time>2026-07-19T09:18:09Z</time>
      </trkpt>
      <trkpt lat="48.98373" lon="2.17053">
        <ele>60</ele>
        <time>2026-07-19T09:18:18Z</time>
      </trkpt>
      <trkpt lat="48.98365" lon="2.17062">
        <ele>61</ele>
        <time>2026-07-19T09:18:28Z</time>
      </trkpt>
      <trkpt lat="48.98357" lon="2.1707">
        <ele>53</ele>
        <time>2026-07-19T09:18:40Z</time>
      </trkpt>
      <trkpt lat="48.9835" lon="2.1708">
        <ele>49</ele>
        <time>2026-07-19T09:18:52Z</time>
      </trkpt>
      <trkpt lat="48.98343" lon="2.1709">
        <ele>47</ele>
        <time>2026-07-19T09:19:02Z</time>
      </trkpt>
      <trkpt lat="48.98336" lon="2.171">
        <ele>47</ele>
        <time>2026-07-19T09:19:12Z</time>
      </trkpt>
      <trkpt lat="48.98329" lon="2.17111">
        <ele>44</ele>
        <time>2026-07-19T09:19:32Z</time>
      </trkpt>
      <trkpt lat="48.98323" lon="2.17124">
        <ele>42</ele>
        <time>2026-07-19T09:19:40Z</time>
      </trkpt>
      <trkpt lat="48.98317" lon="2.17134">
        <ele>43</ele>
        <time>2026-07-19T09:19:45Z</time>
      </trkpt>
      <trkpt lat="48.98309" lon="2.17143">
        <ele>43</ele>
        <time>2026-07-19T09:19:55Z</time>
      </trkpt>
      <trkpt lat="48.983" lon="2.1715">
        <ele>44</ele>
        <time>2026-07-19T09:20:02Z</time>
      </trkpt>
      <trkpt lat="48.98294" lon="2.17159">
        <ele>44</ele>
        <time>2026-07-19T09:20:12Z</time>
      </trkpt>
      <trkpt lat="48.98287" lon="2.17169">
        <ele>43</ele>
        <time>2026-07-19T09:20:23Z</time>
      </trkpt>
      <trkpt lat="48.9828" lon="2.17178">
        <ele>43</ele>
        <time>2026-07-19T09:20:33Z</time>
      </trkpt>
      <trkpt lat="48.98274" lon="2.17188">
        <ele>46</ele>
        <time>2026-07-19T09:20:44Z</time>
      </trkpt>
      <trkpt lat="48.98267" lon="2.17199">
        <ele>48</ele>
        <time>2026-07-19T09:20:57Z</time>
      </trkpt>
      <trkpt lat="48.98261" lon="2.17209">
        <ele>50</ele>
        <time>2026-07-19T09:21:27Z</time>
      </trkpt>
      <trkpt lat="48.98264" lon="2.17215">
        <ele>50</ele>
        <time>2026-07-19T09:21:56Z</time>
      </trkpt>
      <trkpt lat="48.98261" lon="2.1721">
        <ele>54</ele>
        <time>2026-07-19T09:22:44Z</time>
      </trkpt>
      <trkpt lat="48.98258" lon="2.17216">
        <ele>55</ele>
        <time>2026-07-19T09:23:23Z</time>
      </trkpt>
      <trkpt lat="48.98252" lon="2.17224">
        <ele>56</ele>
        <time>2026-07-19T09:23:33Z</time>
      </trkpt>
      <trkpt lat="48.98245" lon="2.17232">
        <ele>57</ele>
        <time>2026-07-19T09:23:43Z</time>
      </trkpt>
      <trkpt lat="48.98238" lon="2.17242">
        <ele>57</ele>
        <time>2026-07-19T09:23:53Z</time>
      </trkpt>
      <trkpt lat="48.98232" lon="2.17253">
        <ele>58</ele>
        <time>2026-07-19T09:24:02Z</time>
      </trkpt>
      <trkpt lat="48.98226" lon="2.17264">
        <ele>57</ele>
        <time>2026-07-19T09:24:12Z</time>
      </trkpt>
      <trkpt lat="48.98218" lon="2.17271">
        <ele>54</ele>
        <time>2026-07-19T09:24:22Z</time>
      </trkpt>
      <trkpt lat="48.98209" lon="2.17275">
        <ele>55</ele>
        <time>2026-07-19T09:24:30Z</time>
      </trkpt>
      <trkpt lat="48.98201" lon="2.17282">
        <ele>56</ele>
        <time>2026-07-19T09:24:41Z</time>
      </trkpt>
      <trkpt lat="48.98192" lon="2.17288">
        <ele>56</ele>
        <time>2026-07-19T09:24:50Z</time>
      </trkpt>
      <trkpt lat="48.98184" lon="2.17294">
        <ele>54</ele>
        <time>2026-07-19T09:25:03Z</time>
      </trkpt>
      <trkpt lat="48.98176" lon="2.17302">
        <ele>48</ele>
        <time>2026-07-19T09:25:22Z</time>
      </trkpt>
      <trkpt lat="48.98168" lon="2.17309">
        <ele>44</ele>
        <time>2026-07-19T09:25:40Z</time>
      </trkpt>
      <trkpt lat="48.98161" lon="2.17318">
        <ele>42</ele>
        <time>2026-07-19T09:25:48Z</time>
      </trkpt>
      <trkpt lat="48.98152" lon="2.17325">
        <ele>39</ele>
        <time>2026-07-19T09:26:00Z</time>
      </trkpt>
      <trkpt lat="48.98144" lon="2.17331">
        <ele>38</ele>
        <time>2026-07-19T09:26:12Z</time>
      </trkpt>
      <trkpt lat="48.98135" lon="2.17337">
        <ele>36</ele>
        <time>2026-07-19T09:26:21Z</time>
      </trkpt>
      <trkpt lat="48.98126" lon="2.17339">
        <ele>34</ele>
        <time>2026-07-19T09:26:32Z</time>
      </trkpt>
      <trkpt lat="48.9812" lon="2.17348">
        <ele>32</ele>
        <time>2026-07-19T09:26:41Z</time>
      </trkpt>
      <trkpt lat="48.98112" lon="2.17356">
        <ele>30</ele>
        <time>2026-07-19T09:26:54Z</time>
      </trkpt>
      <trkpt lat="48.98107" lon="2.17367">
        <ele>32</ele>
        <time>2026-07-19T09:27:25Z</time>
      </trkpt>
      <trkpt lat="48.98099" lon="2.17373">
        <ele>31</ele>
        <time>2026-07-19T09:27:36Z</time>
      </trkpt>
      <trkpt lat="48.98091" lon="2.17378">
        <ele>29</ele>
        <time>2026-07-19T09:27:49Z</time>
      </trkpt>
      <trkpt lat="48.98088" lon="2.17389">
        <ele>29</ele>
        <time>2026-07-19T09:28:16Z</time>
      </trkpt>
      <trkpt lat="48.98091" lon="2.17399">
        <ele>30</ele>
        <time>2026-07-19T09:28:29Z</time>
      </trkpt>
      <trkpt lat="48.98096" lon="2.1741">
        <ele>31</ele>
        <time>2026-07-19T09:28:42Z</time>
      </trkpt>
      <trkpt lat="48.98103" lon="2.17419">
        <ele>33</ele>
        <time>2026-07-19T09:28:51Z</time>
      </trkpt>
      <trkpt lat="48.98111" lon="2.17424">
        <ele>35</ele>
        <time>2026-07-19T09:29:03Z</time>
      </trkpt>
      <trkpt lat="48.9812" lon="2.17428">
        <ele>36</ele>
        <time>2026-07-19T09:29:17Z</time>
      </trkpt>
      <trkpt lat="48.98128" lon="2.17435">
        <ele>38</ele>
        <time>2026-07-19T09:29:25Z</time>
      </trkpt>
      <trkpt lat="48.98136" lon="2.17443">
        <ele>37</ele>
        <time>2026-07-19T09:29:35Z</time>
      </trkpt>
      <trkpt lat="48.98145" lon="2.17448">
        <ele>38</ele>
        <time>2026-07-19T09:29:48Z</time>
      </trkpt>
      <trkpt lat="48.98152" lon="2.17457">
        <ele>36</ele>
        <time>2026-07-19T09:29:54Z</time>
      </trkpt>
      <trkpt lat="48.9816" lon="2.1746">
        <ele>38</ele>
        <time>2026-07-19T09:30:06Z</time>
      </trkpt>
      <trkpt lat="48.98169" lon="2.17466">
        <ele>41</ele>
        <time>2026-07-19T09:30:15Z</time>
      </trkpt>
      <trkpt lat="48.98178" lon="2.17471">
        <ele>43</ele>
        <time>2026-07-19T09:30:26Z</time>
      </trkpt>
      <trkpt lat="48.98187" lon="2.17476">
        <ele>45</ele>
        <time>2026-07-19T09:30:40Z</time>
      </trkpt>
      <trkpt lat="48.98195" lon="2.17482">
        <ele>48</ele>
        <time>2026-07-19T09:30:51Z</time>
      </trkpt>
      <trkpt lat="48.98204" lon="2.17486">
        <ele>49</ele>
        <time>2026-07-19T09:31:00Z</time>
      </trkpt>
      <trkpt lat="48.98213" lon="2.17491">
        <ele>48</ele>
        <time>2026-07-19T09:31:12Z</time>
      </trkpt>
      <trkpt lat="48.98221" lon="2.17497">
        <ele>51</ele>
        <time>2026-07-19T09:31:24Z</time>
      </trkpt>
      <trkpt lat="48.98228" lon="2.17505">
        <ele>54</ele>
        <time>2026-07-19T09:31:30Z</time>
      </trkpt>
      <trkpt lat="48.98237" lon="2.1751">
        <ele>55</ele>
        <time>2026-07-19T09:31:46Z</time>
      </trkpt>
      <trkpt lat="48.98246" lon="2.17515">
        <ele>56</ele>
        <time>2026-07-19T09:32:00Z</time>
      </trkpt>
      <trkpt lat="48.98256" lon="2.17518">
        <ele>57</ele>
        <time>2026-07-19T09:32:10Z</time>
      </trkpt>
      <trkpt lat="48.98258" lon="2.17528">
        <ele>59</ele>
        <time>2026-07-19T09:32:38Z</time>
      </trkpt>
      <trkpt lat="48.98256" lon="2.1754">
        <ele>58</ele>
        <time>2026-07-19T09:33:08Z</time>
      </trkpt>
      <trkpt lat="48.98251" lon="2.17552">
        <ele>59</ele>
        <time>2026-07-19T09:33:16Z</time>
      </trkpt>
      <trkpt lat="48.98247" lon="2.17566">
        <ele>59</ele>
        <time>2026-07-19T09:33:26Z</time>
      </trkpt>
      <trkpt lat="48.98243" lon="2.17578">
        <ele>60</ele>
        <time>2026-07-19T09:33:35Z</time>
      </trkpt>
      <trkpt lat="48.98238" lon="2.1759">
        <ele>61</ele>
        <time>2026-07-19T09:33:43Z</time>
      </trkpt>
      <trkpt lat="48.98233" lon="2.17603">
        <ele>63</ele>
        <time>2026-07-19T09:33:52Z</time>
      </trkpt>
      <trkpt lat="48.98229" lon="2.17615">
        <ele>64</ele>
        <time>2026-07-19T09:34:01Z</time>
      </trkpt>
      <trkpt lat="48.98224" lon="2.17627">
        <ele>64</ele>
        <time>2026-07-19T09:34:10Z</time>
      </trkpt>
      <trkpt lat="48.98219" lon="2.1764">
        <ele>65</ele>
        <time>2026-07-19T09:34:19Z</time>
      </trkpt>
      <trkpt lat="48.98214" lon="2.17652">
        <ele>67</ele>
        <time>2026-07-19T09:34:28Z</time>
      </trkpt>
      <trkpt lat="48.98208" lon="2.17664">
        <ele>68</ele>
        <time>2026-07-19T09:34:38Z</time>
      </trkpt>
      <trkpt lat="48.98203" lon="2.17676">
        <ele>67</ele>
        <time>2026-07-19T09:34:47Z</time>
      </trkpt>
      <trkpt lat="48.98197" lon="2.17688">
        <ele>65</ele>
        <time>2026-07-19T09:34:57Z</time>
      </trkpt>
      <trkpt lat="48.9819" lon="2.17698">
        <ele>65</ele>
        <time>2026-07-19T09:35:06Z</time>
      </trkpt>
      <trkpt lat="48.98186" lon="2.17711">
        <ele>65</ele>
        <time>2026-07-19T09:35:16Z</time>
      </trkpt>
      <trkpt lat="48.98179" lon="2.1772">
        <ele>65</ele>
        <time>2026-07-19T09:35:24Z</time>
      </trkpt>
      <trkpt lat="48.98173" lon="2.17731">
        <ele>64</ele>
        <time>2026-07-19T09:35:34Z</time>
      </trkpt>
      <trkpt lat="48.98166" lon="2.17741">
        <ele>62</ele>
        <time>2026-07-19T09:35:41Z</time>
      </trkpt>
      <trkpt lat="48.98159" lon="2.17751">
        <ele>62</ele>
        <time>2026-07-19T09:35:51Z</time>
      </trkpt>
      <trkpt lat="48.98153" lon="2.17762">
        <ele>61</ele>
        <time>2026-07-19T09:35:59Z</time>
      </trkpt>
      <trkpt lat="48.98146" lon="2.17772">
        <ele>62</ele>
        <time>2026-07-19T09:36:08Z</time>
      </trkpt>
      <trkpt lat="48.98138" lon="2.1778">
        <ele>59</ele>
        <time>2026-07-19T09:36:22Z</time>
      </trkpt>
      <trkpt lat="48.98131" lon="2.17789">
        <ele>59</ele>
        <time>2026-07-19T09:36:31Z</time>
      </trkpt>
      <trkpt lat="48.98123" lon="2.17798">
        <ele>57</ele>
        <time>2026-07-19T09:36:43Z</time>
      </trkpt>
      <trkpt lat="48.98115" lon="2.17807">
        <ele>55</ele>
        <time>2026-07-19T09:36:52Z</time>
      </trkpt>
      <trkpt lat="48.98109" lon="2.17817">
        <ele>53</ele>
        <time>2026-07-19T09:37:01Z</time>
      </trkpt>
      <trkpt lat="48.98102" lon="2.17828">
        <ele>51</ele>
        <time>2026-07-19T09:37:12Z</time>
      </trkpt>
      <trkpt lat="48.98096" lon="2.17839">
        <ele>50</ele>
        <time>2026-07-19T09:37:20Z</time>
      </trkpt>
      <trkpt lat="48.9809" lon="2.17849">
        <ele>48</ele>
        <time>2026-07-19T09:37:31Z</time>
      </trkpt>
      <trkpt lat="48.98083" lon="2.17858">
        <ele>49</ele>
        <time>2026-07-19T09:37:44Z</time>
      </trkpt>
      <trkpt lat="48.98076" lon="2.17867">
        <ele>48</ele>
        <time>2026-07-19T09:37:54Z</time>
      </trkpt>
      <trkpt lat="48.98067" lon="2.17873">
        <ele>48</ele>
        <time>2026-07-19T09:38:06Z</time>
      </trkpt>
      <trkpt lat="48.98062" lon="2.17884">
        <ele>50</ele>
        <time>2026-07-19T09:38:16Z</time>
      </trkpt>
      <trkpt lat="48.98058" lon="2.17896">
        <ele>55</ele>
        <time>2026-07-19T09:38:33Z</time>
      </trkpt>
      <trkpt lat="48.98062" lon="2.17906">
        <ele>58</ele>
        <time>2026-07-19T09:38:42Z</time>
      </trkpt>
      <trkpt lat="48.98069" lon="2.17915">
        <ele>60</ele>
        <time>2026-07-19T09:38:48Z</time>
      </trkpt>
      <trkpt lat="48.98068" lon="2.17926">
        <ele>62</ele>
        <time>2026-07-19T09:38:55Z</time>
      </trkpt>
      <trkpt lat="48.98063" lon="2.17935">
        <ele>63</ele>
        <time>2026-07-19T09:39:03Z</time>
      </trkpt>
      <trkpt lat="48.98056" lon="2.17945">
        <ele>64</ele>
        <time>2026-07-19T09:39:12Z</time>
      </trkpt>
      <trkpt lat="48.98049" lon="2.17955">
        <ele>64</ele>
        <time>2026-07-19T09:39:21Z</time>
      </trkpt>
      <trkpt lat="48.98041" lon="2.17963">
        <ele>65</ele>
        <time>2026-07-19T09:39:30Z</time>
      </trkpt>
      <trkpt lat="48.98034" lon="2.17972">
        <ele>65</ele>
        <time>2026-07-19T09:39:38Z</time>
      </trkpt>
      <trkpt lat="48.98026" lon="2.17979">
        <ele>64</ele>
        <time>2026-07-19T09:39:46Z</time>
      </trkpt>
      <trkpt lat="48.98017" lon="2.17986">
        <ele>65</ele>
        <time>2026-07-19T09:39:56Z</time>
      </trkpt>
      <trkpt lat="48.98009" lon="2.17993">
        <ele>66</ele>
        <time>2026-07-19T09:40:08Z</time>
      </trkpt>
      <trkpt lat="48.98008" lon="2.18005">
        <ele>68</ele>
        <time>2026-07-19T09:40:30Z</time>
      </trkpt>
      <trkpt lat="48.98014" lon="2.18009">
        <ele>68</ele>
        <time>2026-07-19T09:40:40Z</time>
      </trkpt>
      <trkpt lat="48.98018" lon="2.18018">
        <ele>70</ele>
        <time>2026-07-19T09:40:48Z</time>
      </trkpt>
      <trkpt lat="48.98021" lon="2.1803">
        <ele>72</ele>
        <time>2026-07-19T09:40:57Z</time>
      </trkpt>
      <trkpt lat="48.98025" lon="2.18042">
        <ele>73</ele>
        <time>2026-07-19T09:41:07Z</time>
      </trkpt>
      <trkpt lat="48.98026" lon="2.18056">
        <ele>69</ele>
        <time>2026-07-19T09:41:18Z</time>
      </trkpt>
      <trkpt lat="48.98026" lon="2.1807">
        <ele>69</ele>
        <time>2026-07-19T09:41:29Z</time>
      </trkpt>
      <trkpt lat="48.9802" lon="2.18081">
        <ele>69</ele>
        <time>2026-07-19T09:41:40Z</time>
      </trkpt>
      <trkpt lat="48.98014" lon="2.18091">
        <ele>70</ele>
        <time>2026-07-19T09:41:49Z</time>
      </trkpt>
      <trkpt lat="48.98006" lon="2.181">
        <ele>69</ele>
        <time>2026-07-19T09:42:01Z</time>
      </trkpt>
      <trkpt lat="48.97999" lon="2.18109">
        <ele>68</ele>
        <time>2026-07-19T09:42:08Z</time>
      </trkpt>
      <trkpt lat="48.97991" lon="2.18118">
        <ele>69</ele>
        <time>2026-07-19T09:42:17Z</time>
      </trkpt>
      <trkpt lat="48.97983" lon="2.18126">
        <ele>68</ele>
        <time>2026-07-19T09:42:25Z</time>
      </trkpt>
      <trkpt lat="48.97976" lon="2.18135">
        <ele>68</ele>
        <time>2026-07-19T09:42:35Z</time>
      </trkpt>
      <trkpt lat="48.97967" lon="2.18141">
        <ele>68</ele>
        <time>2026-07-19T09:42:41Z</time>
      </trkpt>
      <trkpt lat="48.97959" lon="2.18144">
        <ele>68</ele>
        <time>2026-07-19T09:42:48Z</time>
      </trkpt>
      <trkpt lat="48.9795" lon="2.18149">
        <ele>68</ele>
        <time>2026-07-19T09:42:56Z</time>
      </trkpt>
      <trkpt lat="48.97942" lon="2.18155">
        <ele>66</ele>
        <time>2026-07-19T09:43:08Z</time>
      </trkpt>
      <trkpt lat="48.97933" lon="2.18158">
        <ele>66</ele>
        <time>2026-07-19T09:43:21Z</time>
      </trkpt>
      <trkpt lat="48.97927" lon="2.18167">
        <ele>67</ele>
        <time>2026-07-19T09:43:32Z</time>
      </trkpt>
      <trkpt lat="48.97924" lon="2.18181">
        <ele>69</ele>
        <time>2026-07-19T09:43:40Z</time>
      </trkpt>
      <trkpt lat="48.97924" lon="2.18194">
        <ele>72</ele>
        <time>2026-07-19T09:43:50Z</time>
      </trkpt>
      <trkpt lat="48.97924" lon="2.18208">
        <ele>73</ele>
        <time>2026-07-19T09:44:00Z</time>
      </trkpt>
      <trkpt lat="48.97922" lon="2.18223">
        <ele>74</ele>
        <time>2026-07-19T09:44:07Z</time>
      </trkpt>
      <trkpt lat="48.9792" lon="2.18237">
        <ele>75</ele>
        <time>2026-07-19T09:44:15Z</time>
      </trkpt>
      <trkpt lat="48.97917" lon="2.18251">
        <ele>74</ele>
        <time>2026-07-19T09:44:25Z</time>
      </trkpt>
      <trkpt lat="48.97918" lon="2.18265">
        <ele>74</ele>
        <time>2026-07-19T09:44:37Z</time>
      </trkpt>
      <trkpt lat="48.97917" lon="2.18279">
        <ele>74</ele>
        <time>2026-07-19T09:44:43Z</time>
      </trkpt>
      <trkpt lat="48.97917" lon="2.18294">
        <ele>75</ele>
        <time>2026-07-19T09:44:52Z</time>
      </trkpt>
      <trkpt lat="48.9792" lon="2.18307">
        <ele>76</ele>
        <time>2026-07-19T09:45:03Z</time>
      </trkpt>
      <trkpt lat="48.97923" lon="2.1832">
        <ele>77</ele>
        <time>2026-07-19T09:45:12Z</time>
      </trkpt>
      <trkpt lat="48.97925" lon="2.18334">
        <ele>79</ele>
        <time>2026-07-19T09:45:23Z</time>
      </trkpt>
      <trkpt lat="48.97919" lon="2.18343">
        <ele>80</ele>
        <time>2026-07-19T09:45:32Z</time>
      </trkpt>
      <trkpt lat="48.97921" lon="2.18354">
        <ele>77</ele>
        <time>2026-07-19T09:46:51Z</time>
      </trkpt>
      <trkpt lat="48.97926" lon="2.18365">
        <ele>76</ele>
        <time>2026-07-19T09:46:58Z</time>
      </trkpt>
      <trkpt lat="48.97931" lon="2.18377">
        <ele>77</ele>
        <time>2026-07-19T09:47:06Z</time>
      </trkpt>
      <trkpt lat="48.97936" lon="2.1839">
        <ele>79</ele>
        <time>2026-07-19T09:47:15Z</time>
      </trkpt>
      <trkpt lat="48.9794" lon="2.18403">
        <ele>80</ele>
        <time>2026-07-19T09:47:23Z</time>
      </trkpt>
      <trkpt lat="48.97945" lon="2.18416">
        <ele>79</ele>
        <time>2026-07-19T09:47:36Z</time>
      </trkpt>
      <trkpt lat="48.97949" lon="2.18429">
        <ele>78</ele>
        <time>2026-07-19T09:47:43Z</time>
      </trkpt>
      <trkpt lat="48.97954" lon="2.18441">
        <ele>77</ele>
        <time>2026-07-19T09:47:50Z</time>
      </trkpt>
      <trkpt lat="48.97959" lon="2.18453">
        <ele>78</ele>
        <time>2026-07-19T09:47:57Z</time>
      </trkpt>
      <trkpt lat="48.97958" lon="2.18466">
        <ele>78</ele>
        <time>2026-07-19T09:48:08Z</time>
      </trkpt>
      <trkpt lat="48.97952" lon="2.18476">
        <ele>75</ele>
        <time>2026-07-19T09:48:19Z</time>
      </trkpt>
      <trkpt lat="48.97946" lon="2.18486">
        <ele>75</ele>
        <time>2026-07-19T09:48:28Z</time>
      </trkpt>
      <trkpt lat="48.9794" lon="2.18496">
        <ele>76</ele>
        <time>2026-07-19T09:48:36Z</time>
      </trkpt>
      <trkpt lat="48.97934" lon="2.18506">
        <ele>76</ele>
        <time>2026-07-19T09:48:45Z</time>
      </trkpt>
      <trkpt lat="48.9793" lon="2.18519">
        <ele>78</ele>
        <time>2026-07-19T09:48:55Z</time>
      </trkpt>
      <trkpt lat="48.97928" lon="2.18533">
        <ele>77</ele>
        <time>2026-07-19T09:49:04Z</time>
      </trkpt>
      <trkpt lat="48.9793" lon="2.18547">
        <ele>76</ele>
        <time>2026-07-19T09:49:11Z</time>
      </trkpt>
      <trkpt lat="48.9793" lon="2.18561">
        <ele>79</ele>
        <time>2026-07-19T09:49:22Z</time>
      </trkpt>
      <trkpt lat="48.97928" lon="2.18575">
        <ele>80</ele>
        <time>2026-07-19T09:49:31Z</time>
      </trkpt>
      <trkpt lat="48.97925" lon="2.18589">
        <ele>81</ele>
        <time>2026-07-19T09:49:38Z</time>
      </trkpt>
      <trkpt lat="48.97925" lon="2.18604">
        <ele>85</ele>
        <time>2026-07-19T09:49:49Z</time>
      </trkpt>
      <trkpt lat="48.97924" lon="2.18618">
        <ele>86</ele>
        <time>2026-07-19T09:49:58Z</time>
      </trkpt>
      <trkpt lat="48.97924" lon="2.18632">
        <ele>87</ele>
        <time>2026-07-19T09:50:06Z</time>
      </trkpt>
      <trkpt lat="48.97926" lon="2.18646">
        <ele>87</ele>
        <time>2026-07-19T09:50:15Z</time>
      </trkpt>
      <trkpt lat="48.97928" lon="2.1866">
        <ele>88</ele>
        <time>2026-07-19T09:50:23Z</time>
      </trkpt>
      <trkpt lat="48.97931" lon="2.18673">
        <ele>89</ele>
        <time>2026-07-19T09:50:31Z</time>
      </trkpt>
      <trkpt lat="48.97932" lon="2.18688">
        <ele>90</ele>
        <time>2026-07-19T09:50:40Z</time>
      </trkpt>
      <trkpt lat="48.97936" lon="2.18702">
        <ele>91</ele>
        <time>2026-07-19T09:50:50Z</time>
      </trkpt>
      <trkpt lat="48.97939" lon="2.18715">
        <ele>92</ele>
        <time>2026-07-19T09:50:59Z</time>
      </trkpt>
      <trkpt lat="48.97942" lon="2.18729">
        <ele>93</ele>
        <time>2026-07-19T09:51:09Z</time>
      </trkpt>
      <trkpt lat="48.97945" lon="2.18743">
        <ele>94</ele>
        <time>2026-07-19T09:51:21Z</time>
      </trkpt>
      <trkpt lat="48.9795" lon="2.18754">
        <ele>95</ele>
        <time>2026-07-19T09:51:33Z</time>
      </trkpt>
      <trkpt lat="48.97957" lon="2.18754">
        <ele>95</ele>
        <time>2026-07-19T09:51:44Z</time>
      </trkpt>
      <trkpt lat="48.97964" lon="2.18748">
        <ele>96</ele>
        <time>2026-07-19T09:51:53Z</time>
      </trkpt>
      <trkpt lat="48.97972" lon="2.1874">
        <ele>97</ele>
        <time>2026-07-19T09:52:06Z</time>
      </trkpt>
      <trkpt lat="48.97978" lon="2.1873">
        <ele>96</ele>
        <time>2026-07-19T09:52:15Z</time>
      </trkpt>
      <trkpt lat="48.97984" lon="2.1872">
        <ele>96</ele>
        <time>2026-07-19T09:52:23Z</time>
      </trkpt>
      <trkpt lat="48.9799" lon="2.18709">
        <ele>98</ele>
        <time>2026-07-19T09:52:31Z</time>
      </trkpt>
      <trkpt lat="48.97998" lon="2.18701">
        <ele>99</ele>
        <time>2026-07-19T09:52:39Z</time>
      </trkpt>
      <trkpt lat="48.98006" lon="2.18694">
        <ele>98</ele>
        <time>2026-07-19T09:52:46Z</time>
      </trkpt>
      <trkpt lat="48.98014" lon="2.18687">
        <ele>98</ele>
        <time>2026-07-19T09:52:57Z</time>
      </trkpt>
      <trkpt lat="48.9802" lon="2.18677">
        <ele>99</ele>
        <time>2026-07-19T09:53:06Z</time>
      </trkpt>
      <trkpt lat="48.98027" lon="2.18666">
        <ele>99</ele>
        <time>2026-07-19T09:53:15Z</time>
      </trkpt>
      <trkpt lat="48.98032" lon="2.18655">
        <ele>100</ele>
        <time>2026-07-19T09:53:23Z</time>
      </trkpt>
      <trkpt lat="48.98039" lon="2.18645">
        <ele>101</ele>
        <time>2026-07-19T09:53:32Z</time>
      </trkpt>
      <trkpt lat="48.98047" lon="2.18638">
        <ele>103</ele>
        <time>2026-07-19T09:53:40Z</time>
      </trkpt>
      <trkpt lat="48.98055" lon="2.18632">
        <ele>105</ele>
        <time>2026-07-19T09:53:49Z</time>
      </trkpt>
      <trkpt lat="48.98064" lon="2.18627">
        <ele>106</ele>
        <time>2026-07-19T09:53:59Z</time>
      </trkpt>
      <trkpt lat="48.98073" lon="2.18623">
        <ele>107</ele>
        <time>2026-07-19T09:54:10Z</time>
      </trkpt>
      <trkpt lat="48.9808" lon="2.18628">
        <ele>106</ele>
        <time>2026-07-19T09:54:20Z</time>
      </trkpt>
      <trkpt lat="48.98088" lon="2.18635">
        <ele>106</ele>
        <time>2026-07-19T09:54:29Z</time>
      </trkpt>
      <trkpt lat="48.98095" lon="2.18644">
        <ele>106</ele>
        <time>2026-07-19T09:54:37Z</time>
      </trkpt>
      <trkpt lat="48.98102" lon="2.18655">
        <ele>106</ele>
        <time>2026-07-19T09:54:45Z</time>
      </trkpt>
      <trkpt lat="48.98108" lon="2.18665">
        <ele>106</ele>
        <time>2026-07-19T09:54:54Z</time>
      </trkpt>
      <trkpt lat="48.98114" lon="2.18676">
        <ele>109</ele>
        <time>2026-07-19T09:55:04Z</time>
      </trkpt>
      <trkpt lat="48.98117" lon="2.1869">
        <ele>109</ele>
        <time>2026-07-19T09:55:25Z</time>
      </trkpt>
      <trkpt lat="48.98121" lon="2.18703">
        <ele>108</ele>
        <time>2026-07-19T09:55:58Z</time>
      </trkpt>
      <trkpt lat="48.9812" lon="2.187">
        <ele>109</ele>
        <time>2026-07-19T09:56:09Z</time>
      </trkpt>
      <trkpt lat="48.98119" lon="2.1869">
        <ele>109</ele>
        <time>2026-07-19T09:56:53Z</time>
      </trkpt>
      <trkpt lat="48.98121" lon="2.18677">
        <ele>109</ele>
        <time>2026-07-19T09:57:04Z</time>
      </trkpt>
      <trkpt lat="48.98123" lon="2.18663">
        <ele>110</ele>
        <time>2026-07-19T09:57:11Z</time>
      </trkpt>
      <trkpt lat="48.98125" lon="2.18649">
        <ele>111</ele>
        <time>2026-07-19T09:57:18Z</time>
      </trkpt>
      <trkpt lat="48.98127" lon="2.18635">
        <ele>111</ele>
        <time>2026-07-19T09:57:25Z</time>
      </trkpt>
      <trkpt lat="48.98129" lon="2.18621">
        <ele>112</ele>
        <time>2026-07-19T09:57:34Z</time>
      </trkpt>
      <trkpt lat="48.98128" lon="2.18624">
        <ele>112</ele>
        <time>2026-07-19T09:57:44Z</time>
      </trkpt>
      <trkpt lat="48.98126" lon="2.18634">
        <ele>111</ele>
        <time>2026-07-19T09:57:52Z</time>
      </trkpt>
      <trkpt lat="48.98125" lon="2.18648">
        <ele>109</ele>
        <time>2026-07-19T09:58:00Z</time>
      </trkpt>
      <trkpt lat="48.98122" lon="2.18661">
        <ele>109</ele>
        <time>2026-07-19T09:58:09Z</time>
      </trkpt>
      <trkpt lat="48.98116" lon="2.18668">
        <ele>107</ele>
        <time>2026-07-19T09:58:29Z</time>
      </trkpt>
      <trkpt lat="48.98109" lon="2.18663">
        <ele>107</ele>
        <time>2026-07-19T09:58:38Z</time>
      </trkpt>
      <trkpt lat="48.98103" lon="2.18656">
        <ele>107</ele>
        <time>2026-07-19T09:58:46Z</time>
      </trkpt>
      <trkpt lat="48.98096" lon="2.18646">
        <ele>107</ele>
        <time>2026-07-19T09:58:56Z</time>
      </trkpt>
      <trkpt lat="48.9809" lon="2.18636">
        <ele>108</ele>
        <time>2026-07-19T09:59:07Z</time>
      </trkpt>
      <trkpt lat="48.98083" lon="2.18627">
        <ele>107</ele>
        <time>2026-07-19T09:59:16Z</time>
      </trkpt>
      <trkpt lat="48.98075" lon="2.18624">
        <ele>105</ele>
        <time>2026-07-19T09:59:26Z</time>
      </trkpt>
      <trkpt lat="48.98066" lon="2.18624">
        <ele>104</ele>
        <time>2026-07-19T09:59:34Z</time>
      </trkpt>
      <trkpt lat="48.98057" lon="2.18628">
        <ele>103</ele>
        <time>2026-07-19T09:59:43Z</time>
      </trkpt>
      <trkpt lat="48.98049" lon="2.18634">
        <ele>103</ele>
        <time>2026-07-19T09:59:52Z</time>
      </trkpt>
      <trkpt lat="48.9804" lon="2.1864">
        <ele>102</ele>
        <time>2026-07-19T10:00:00Z</time>
      </trkpt>
      <trkpt lat="48.98033" lon="2.18648">
        <ele>103</ele>
        <time>2026-07-19T10:00:08Z</time>
      </trkpt>
      <trkpt lat="48.98026" lon="2.18659">
        <ele>103</ele>
        <time>2026-07-19T10:00:16Z</time>
      </trkpt>
      <trkpt lat="48.9802" lon="2.18671">
        <ele>104</ele>
        <time>2026-07-19T10:00:24Z</time>
      </trkpt>
      <trkpt lat="48.98013" lon="2.1868">
        <ele>103</ele>
        <time>2026-07-19T10:00:32Z</time>
      </trkpt>
      <trkpt lat="48.98006" lon="2.1869">
        <ele>102</ele>
        <time>2026-07-19T10:00:40Z</time>
      </trkpt>
      <trkpt lat="48.97998" lon="2.18698">
        <ele>101</ele>
        <time>2026-07-19T10:00:48Z</time>
      </trkpt>
      <trkpt lat="48.9799" lon="2.18706">
        <ele>100</ele>
        <time>2026-07-19T10:00:55Z</time>
      </trkpt>
      <trkpt lat="48.97983" lon="2.18716">
        <ele>100</ele>
        <time>2026-07-19T10:01:03Z</time>
      </trkpt>
      <trkpt lat="48.97976" lon="2.18725">
        <ele>100</ele>
        <time>2026-07-19T10:01:11Z</time>
      </trkpt>
      <trkpt lat="48.97969" lon="2.18735">
        <ele>100</ele>
        <time>2026-07-19T10:01:19Z</time>
      </trkpt>
      <trkpt lat="48.97962" lon="2.18745">
        <ele>100</ele>
        <time>2026-07-19T10:01:27Z</time>
      </trkpt>
      <trkpt lat="48.97955" lon="2.18754">
        <ele>99</ele>
        <time>2026-07-19T10:01:36Z</time>
      </trkpt>
      <trkpt lat="48.97947" lon="2.18764">
        <ele>98</ele>
        <time>2026-07-19T10:01:45Z</time>
      </trkpt>
      <trkpt lat="48.97941" lon="2.18774">
        <ele>100</ele>
        <time>2026-07-19T10:01:57Z</time>
      </trkpt>
      <trkpt lat="48.97939" lon="2.18787">
        <ele>101</ele>
        <time>2026-07-19T10:02:06Z</time>
      </trkpt>
      <trkpt lat="48.9794" lon="2.18801">
        <ele>101</ele>
        <time>2026-07-19T10:02:14Z</time>
      </trkpt>
      <trkpt lat="48.97942" lon="2.18815">
        <ele>101</ele>
        <time>2026-07-19T10:02:22Z</time>
      </trkpt>
      <trkpt lat="48.97945" lon="2.18829">
        <ele>101</ele>
        <time>2026-07-19T10:02:30Z</time>
      </trkpt>
      <trkpt lat="48.97947" lon="2.18843">
        <ele>102</ele>
        <time>2026-07-19T10:02:38Z</time>
      </trkpt>
      <trkpt lat="48.97948" lon="2.18857">
        <ele>101</ele>
        <time>2026-07-19T10:02:47Z</time>
      </trkpt>
      <trkpt lat="48.97948" lon="2.18872">
        <ele>101</ele>
        <time>2026-07-19T10:02:55Z</time>
      </trkpt>
      <trkpt lat="48.97949" lon="2.18887">
        <ele>102</ele>
        <time>2026-07-19T10:03:04Z</time>
      </trkpt>
      <trkpt lat="48.9795" lon="2.18901">
        <ele>103</ele>
        <time>2026-07-19T10:03:12Z</time>
      </trkpt>
      <trkpt lat="48.97953" lon="2.18914">
        <ele>102</ele>
        <time>2026-07-19T10:03:19Z</time>
      </trkpt>
      <trkpt lat="48.97957" lon="2.18926">
        <ele>102</ele>
        <time>2026-07-19T10:03:27Z</time>
      </trkpt>
      <trkpt lat="48.97962" lon="2.18938">
        <ele>102</ele>
        <time>2026-07-19T10:03:36Z</time>
      </trkpt>
      <trkpt lat="48.97964" lon="2.18951">
        <ele>101</ele>
        <time>2026-07-19T10:03:47Z</time>
      </trkpt>
      <trkpt lat="48.97961" lon="2.18963">
        <ele>101</ele>
        <time>2026-07-19T10:03:55Z</time>
      </trkpt>
      <trkpt lat="48.97956" lon="2.18974">
        <ele>101</ele>
        <time>2026-07-19T10:04:04Z</time>
      </trkpt>
      <trkpt lat="48.97954" lon="2.18987">
        <ele>100</ele>
        <time>2026-07-19T10:04:22Z</time>
      </trkpt>
      <trkpt lat="48.97954" lon="2.19001">
        <ele>101</ele>
        <time>2026-07-19T10:04:31Z</time>
      </trkpt>
      <trkpt lat="48.97958" lon="2.19013">
        <ele>102</ele>
        <time>2026-07-19T10:04:41Z</time>
      </trkpt>
      <trkpt lat="48.97963" lon="2.19025">
        <ele>104</ele>
        <time>2026-07-19T10:04:51Z</time>
      </trkpt>
      <trkpt lat="48.97968" lon="2.19036">
        <ele>107</ele>
        <time>2026-07-19T10:05:01Z</time>
      </trkpt>
      <trkpt lat="48.97974" lon="2.19048">
        <ele>109</ele>
        <time>2026-07-19T10:05:16Z</time>
      </trkpt>
      <trkpt lat="48.9798" lon="2.1906">
        <ele>110</ele>
        <time>2026-07-19T10:05:28Z</time>
      </trkpt>
      <trkpt lat="48.97986" lon="2.19071">
        <ele>111</ele>
        <time>2026-07-19T10:05:37Z</time>
      </trkpt>
      <trkpt lat="48.97991" lon="2.19082">
        <ele>112</ele>
        <time>2026-07-19T10:05:47Z</time>
      </trkpt>
      <trkpt lat="48.97997" lon="2.19093">
        <ele>113</ele>
        <time>2026-07-19T10:05:57Z</time>
      </trkpt>
      <trkpt lat="48.98003" lon="2.19104">
        <ele>115</ele>
        <time>2026-07-19T10:06:08Z</time>
      </trkpt>
      <trkpt lat="48.9801" lon="2.19114">
        <ele>118</ele>
        <time>2026-07-19T10:06:19Z</time>
      </trkpt>
      <trkpt lat="48.98016" lon="2.19125">
        <ele>120</ele>
        <time>2026-07-19T10:06:33Z</time>
      </trkpt>
      <trkpt lat="48.98024" lon="2.19126">
        <ele>121</ele>
        <time>2026-07-19T10:07:03Z</time>
      </trkpt>
      <trkpt lat="48.98032" lon="2.19123">
        <ele>122</ele>
        <time>2026-07-19T10:07:16Z</time>
      </trkpt>
      <trkpt lat="48.9804" lon="2.19115">
        <ele>122</ele>
        <time>2026-07-19T10:07:32Z</time>
      </trkpt>
      <trkpt lat="48.98048" lon="2.19107">
        <ele>123</ele>
        <time>2026-07-19T10:07:41Z</time>
      </trkpt>
      <trkpt lat="48.98054" lon="2.19097">
        <ele>123</ele>
        <time>2026-07-19T10:07:49Z</time>
      </trkpt>
      <trkpt lat="48.98061" lon="2.19088">
        <ele>123</ele>
        <time>2026-07-19T10:07:58Z</time>
      </trkpt>
      <trkpt lat="48.98068" lon="2.19079">
        <ele>123</ele>
        <time>2026-07-19T10:08:07Z</time>
      </trkpt>
      <trkpt lat="48.98076" lon="2.19071">
        <ele>123</ele>
        <time>2026-07-19T10:08:15Z</time>
      </trkpt>
      <trkpt lat="48.98084" lon="2.19063">
        <ele>123</ele>
        <time>2026-07-19T10:08:25Z</time>
      </trkpt>
      <trkpt lat="48.98092" lon="2.19056">
        <ele>122</ele>
        <time>2026-07-19T10:08:34Z</time>
      </trkpt>
      <trkpt lat="48.981" lon="2.19048">
        <ele>122</ele>
        <time>2026-07-19T10:08:44Z</time>
      </trkpt>
      <trkpt lat="48.98109" lon="2.19043">
        <ele>121</ele>
        <time>2026-07-19T10:08:53Z</time>
      </trkpt>
      <trkpt lat="48.98118" lon="2.19038">
        <ele>121</ele>
        <time>2026-07-19T10:09:02Z</time>
      </trkpt>
      <trkpt lat="48.98126" lon="2.19032">
        <ele>121</ele>
        <time>2026-07-19T10:09:11Z</time>
      </trkpt>
      <trkpt lat="48.98136" lon="2.19031">
        <ele>123</ele>
        <time>2026-07-19T10:09:20Z</time>
      </trkpt>
      <trkpt lat="48.98145" lon="2.19033">
        <ele>123</ele>
        <time>2026-07-19T10:09:30Z</time>
      </trkpt>
      <trkpt lat="48.98155" lon="2.19034">
        <ele>123</ele>
        <time>2026-07-19T10:09:43Z</time>
      </trkpt>
      <trkpt lat="48.98164" lon="2.19033">
        <ele>122</ele>
        <time>2026-07-19T10:09:54Z</time>
      </trkpt>
      <trkpt lat="48.98173" lon="2.19036">
        <ele>122</ele>
        <time>2026-07-19T10:10:12Z</time>
      </trkpt>
      <trkpt lat="48.98179" lon="2.19046">
        <ele>124</ele>
        <time>2026-07-19T10:10:22Z</time>
      </trkpt>
      <trkpt lat="48.98178" lon="2.19056">
        <ele>125</ele>
        <time>2026-07-19T10:10:35Z</time>
      </trkpt>
      <trkpt lat="48.98172" lon="2.19065">
        <ele>125</ele>
        <time>2026-07-19T10:10:46Z</time>
      </trkpt>
      <trkpt lat="48.98167" lon="2.19076">
        <ele>126</ele>
        <time>2026-07-19T10:10:56Z</time>
      </trkpt>
      <trkpt lat="48.98161" lon="2.19087">
        <ele>127</ele>
        <time>2026-07-19T10:11:10Z</time>
      </trkpt>
      <trkpt lat="48.98154" lon="2.19097">
        <ele>126</ele>
        <time>2026-07-19T10:11:21Z</time>
      </trkpt>
      <trkpt lat="48.98153" lon="2.1911">
        <ele>127</ele>
        <time>2026-07-19T10:11:38Z</time>
      </trkpt>
      <trkpt lat="48.98156" lon="2.19121">
        <ele>128</ele>
        <time>2026-07-19T10:11:47Z</time>
      </trkpt>
      <trkpt lat="48.98161" lon="2.19132">
        <ele>131</ele>
        <time>2026-07-19T10:11:59Z</time>
      </trkpt>
      <trkpt lat="48.98168" lon="2.19142">
        <ele>132</ele>
        <time>2026-07-19T10:12:09Z</time>
      </trkpt>
      <trkpt lat="48.98176" lon="2.19146">
        <ele>131</ele>
        <time>2026-07-19T10:12:19Z</time>
      </trkpt>
      <trkpt lat="48.98185" lon="2.19146">
        <ele>130</ele>
        <time>2026-07-19T10:12:28Z</time>
      </trkpt>
      <trkpt lat="48.98194" lon="2.19143">
        <ele>131</ele>
        <time>2026-07-19T10:12:35Z</time>
      </trkpt>
      <trkpt lat="48.98202" lon="2.19137">
        <ele>131</ele>
        <time>2026-07-19T10:12:43Z</time>
      </trkpt>
      <trkpt lat="48.98211" lon="2.19132">
        <ele>130</ele>
        <time>2026-07-19T10:12:52Z</time>
      </trkpt>
      <trkpt lat="48.9822" lon="2.19131">
        <ele>130</ele>
        <time>2026-07-19T10:13:00Z</time>
      </trkpt>
      <trkpt lat="48.9823" lon="2.19131">
        <ele>129</ele>
        <time>2026-07-19T10:13:09Z</time>
      </trkpt>
      <trkpt lat="48.98239" lon="2.19128">
        <ele>130</ele>
        <time>2026-07-19T10:13:18Z</time>
      </trkpt>
      <trkpt lat="48.98248" lon="2.19125">
        <ele>133</ele>
        <time>2026-07-19T10:13:30Z</time>
      </trkpt>
      <trkpt lat="48.98258" lon="2.19123">
        <ele>134</ele>
        <time>2026-07-19T10:13:39Z</time>
      </trkpt>
      <trkpt lat="48.98267" lon="2.19121">
        <ele>135</ele>
        <time>2026-07-19T10:13:47Z</time>
      </trkpt>
      <trkpt lat="48.98276" lon="2.19122">
        <ele>136</ele>
        <time>2026-07-19T10:13:57Z</time>
      </trkpt>
      <trkpt lat="48.98284" lon="2.19129">
        <ele>137</ele>
        <time>2026-07-19T10:14:14Z</time>
      </trkpt>
      <trkpt lat="48.9829" lon="2.19138">
        <ele>138</ele>
        <time>2026-07-19T10:14:26Z</time>
      </trkpt>
      <trkpt lat="48.98297" lon="2.19149">
        <ele>140</ele>
        <time>2026-07-19T10:14:35Z</time>
      </trkpt>
      <trkpt lat="48.98296" lon="2.19159">
        <ele>142</ele>
        <time>2026-07-19T10:14:46Z</time>
      </trkpt>
      <trkpt lat="48.9829" lon="2.19161">
        <ele>142</ele>
        <time>2026-07-19T10:14:56Z</time>
      </trkpt>
      <trkpt lat="48.98281" lon="2.19161">
        <ele>140</ele>
        <time>2026-07-19T10:15:08Z</time>
      </trkpt>
      <trkpt lat="48.98272" lon="2.19161">
        <ele>141</ele>
        <time>2026-07-19T10:15:16Z</time>
      </trkpt>
      <trkpt lat="48.98264" lon="2.19165">
        <ele>143</ele>
        <time>2026-07-19T10:15:24Z</time>
      </trkpt>
      <trkpt lat="48.98255" lon="2.19172">
        <ele>144</ele>
        <time>2026-07-19T10:15:40Z</time>
      </trkpt>
      <trkpt lat="48.98246" lon="2.1918">
        <ele>144</ele>
        <time>2026-07-19T10:15:50Z</time>
      </trkpt>
      <trkpt lat="48.98239" lon="2.19189">
        <ele>145</ele>
        <time>2026-07-19T10:15:58Z</time>
      </trkpt>
      <trkpt lat="48.98232" lon="2.192">
        <ele>145</ele>
        <time>2026-07-19T10:16:08Z</time>
      </trkpt>
      <trkpt lat="48.98227" lon="2.19212">
        <ele>144</ele>
        <time>2026-07-19T10:16:18Z</time>
      </trkpt>
      <trkpt lat="48.9822" lon="2.19221">
        <ele>143</ele>
        <time>2026-07-19T10:16:27Z</time>
      </trkpt>
      <trkpt lat="48.98212" lon="2.1923">
        <ele>144</ele>
        <time>2026-07-19T10:16:36Z</time>
      </trkpt>
      <trkpt lat="48.98209" lon="2.19242">
        <ele>145</ele>
        <time>2026-07-19T10:16:48Z</time>
      </trkpt>
      <trkpt lat="48.9821" lon="2.19255">
        <ele>147</ele>
        <time>2026-07-19T10:17:36Z</time>
      </trkpt>
      <trkpt lat="48.98206" lon="2.19265">
        <ele>150</ele>
        <time>2026-07-19T10:17:59Z</time>
      </trkpt>
      <trkpt lat="48.98206" lon="2.19277">
        <ele>150</ele>
        <time>2026-07-19T10:18:38Z</time>
      </trkpt>
      <trkpt lat="48.98211" lon="2.19289">
        <ele>152</ele>
        <time>2026-07-19T10:19:04Z</time>
      </trkpt>
      <trkpt lat="48.9821" lon="2.19285">
        <ele>154</ele>
        <time>2026-07-19T10:19:51Z</time>
      </trkpt>
      <trkpt lat="48.98213" lon="2.19291">
        <ele>147</ele>
        <time>2026-07-19T10:21:09Z</time>
      </trkpt>
      <trkpt lat="48.98214" lon="2.19302">
        <ele>140</ele>
        <time>2026-07-19T10:21:46Z</time>
      </trkpt>
      <trkpt lat="48.98219" lon="2.19312">
        <ele>137</ele>
        <time>2026-07-19T10:22:36Z</time>
      </trkpt>
      <trkpt lat="48.98223" lon="2.19323">
        <ele>147</ele>
        <time>2026-07-19T10:23:45Z</time>
      </trkpt>
      <trkpt lat="48.98219" lon="2.19332">
        <ele>153</ele>
        <time>2026-07-19T10:24:39Z</time>
      </trkpt>
      <trkpt lat="48.98214" lon="2.19343">
        <ele>157</ele>
        <time>2026-07-19T10:24:50Z</time>
      </trkpt>
      <trkpt lat="48.98209" lon="2.19354">
        <ele>160</ele>
        <time>2026-07-19T10:24:59Z</time>
      </trkpt>
      <trkpt lat="48.98201" lon="2.19373">
        <ele>163</ele>
        <time>2026-07-19T10:25:11Z</time>
      </trkpt>
      <trkpt lat="48.98198" lon="2.19379">
        <ele>165</ele>
        <time>2026-07-19T10:25:23Z</time>
      </trkpt>
      <trkpt lat="48.98193" lon="2.19391">
        <ele>166</ele>
        <time>2026-07-19T10:25:36Z</time>
      </trkpt>
      <trkpt lat="48.9819" lon="2.19404">
        <ele>168</ele>
        <time>2026-07-19T10:25:48Z</time>
      </trkpt>
      <trkpt lat="48.98188" lon="2.19418">
        <ele>170</ele>
        <time>2026-07-19T10:25:58Z</time>
      </trkpt>
      <trkpt lat="48.98182" lon="2.19429">
        <ele>171</ele>
        <time>2026-07-19T10:26:07Z</time>
      </trkpt>
      <trkpt lat="48.98174" lon="2.19436">
        <ele>172</ele>
        <time>2026-07-19T10:26:16Z</time>
      </trkpt>
      <trkpt lat="48.98166" lon="2.19441">
        <ele>172</ele>
        <time>2026-07-19T10:26:26Z</time>
      </trkpt>
      <trkpt lat="48.98158" lon="2.1945">
        <ele>171</ele>
        <time>2026-07-19T10:26:34Z</time>
      </trkpt>
      <trkpt lat="48.98152" lon="2.1946">
        <ele>170</ele>
        <time>2026-07-19T10:26:46Z</time>
      </trkpt>
      <trkpt lat="48.98146" lon="2.19471">
        <ele>170</ele>
        <time>2026-07-19T10:27:00Z</time>
      </trkpt>
      <trkpt lat="48.98143" lon="2.19485">
        <ele>171</ele>
        <time>2026-07-19T10:27:09Z</time>
      </trkpt>
      <trkpt lat="48.98139" lon="2.19497">
        <ele>172</ele>
        <time>2026-07-19T10:27:17Z</time>
      </trkpt>
      <trkpt lat="48.98134" lon="2.19509">
        <ele>171</ele>
        <time>2026-07-19T10:27:26Z</time>
      </trkpt>
      <trkpt lat="48.98128" lon="2.1952">
        <ele>172</ele>
        <time>2026-07-19T10:27:37Z</time>
      </trkpt>
      <trkpt lat="48.98122" lon="2.19532">
        <ele>172</ele>
        <time>2026-07-19T10:27:47Z</time>
      </trkpt>
      <trkpt lat="48.98116" lon="2.19543">
        <ele>171</ele>
        <time>2026-07-19T10:27:58Z</time>
      </trkpt>
      <trkpt lat="48.9811" lon="2.19554">
        <ele>171</ele>
        <time>2026-07-19T10:28:05Z</time>
      </trkpt>
      <trkpt lat="48.98104" lon="2.19566">
        <ele>169</ele>
        <time>2026-07-19T10:28:13Z</time>
      </trkpt>
      <trkpt lat="48.98099" lon="2.1958">
        <ele>170</ele>
        <time>2026-07-19T10:28:25Z</time>
      </trkpt>
      <trkpt lat="48.98095" lon="2.19593">
        <ele>171</ele>
        <time>2026-07-19T10:28:33Z</time>
      </trkpt>
      <trkpt lat="48.98096" lon="2.19607">
        <ele>172</ele>
        <time>2026-07-19T10:28:47Z</time>
      </trkpt>
      <trkpt lat="48.981" lon="2.19617">
        <ele>173</ele>
        <time>2026-07-19T10:28:59Z</time>
      </trkpt>
      <trkpt lat="48.98107" lon="2.19626">
        <ele>175</ele>
        <time>2026-07-19T10:29:11Z</time>
      </trkpt>
      <trkpt lat="48.98115" lon="2.19632">
        <ele>176</ele>
        <time>2026-07-19T10:29:23Z</time>
      </trkpt>
      <trkpt lat="48.98124" lon="2.19638">
        <ele>176</ele>
        <time>2026-07-19T10:29:34Z</time>
      </trkpt>
      <trkpt lat="48.98132" lon="2.19646">
        <ele>177</ele>
        <time>2026-07-19T10:29:42Z</time>
      </trkpt>
      <trkpt lat="48.98141" lon="2.19655">
        <ele>177</ele>
        <time>2026-07-19T10:29:52Z</time>
      </trkpt>
      <trkpt lat="48.98149" lon="2.19662">
        <ele>175</ele>
        <time>2026-07-19T10:29:58Z</time>
      </trkpt>
      <trkpt lat="48.98157" lon="2.1967">
        <ele>172</ele>
        <time>2026-07-19T10:30:05Z</time>
      </trkpt>
      <trkpt lat="48.98164" lon="2.19679">
        <ele>172</ele>
        <time>2026-07-19T10:30:13Z</time>
      </trkpt>
      <trkpt lat="48.98172" lon="2.19689">
        <ele>171</ele>
        <time>2026-07-19T10:30:22Z</time>
      </trkpt>
      <trkpt lat="48.98179" lon="2.197">
        <ele>171</ele>
        <time>2026-07-19T10:30:31Z</time>
      </trkpt>
      <trkpt lat="48.98186" lon="2.19709">
        <ele>169</ele>
        <time>2026-07-19T10:30:42Z</time>
      </trkpt>
      <trkpt lat="48.98193" lon="2.19717">
        <ele>167</ele>
        <time>2026-07-19T10:30:51Z</time>
      </trkpt>
      <trkpt lat="48.982" lon="2.19727">
        <ele>168</ele>
        <time>2026-07-19T10:31:01Z</time>
      </trkpt>
      <trkpt lat="48.98208" lon="2.19736">
        <ele>167</ele>
        <time>2026-07-19T10:31:12Z</time>
      </trkpt>
      <trkpt lat="48.98216" lon="2.19745">
        <ele>169</ele>
        <time>2026-07-19T10:31:20Z</time>
      </trkpt>
      <trkpt lat="48.98224" lon="2.19752">
        <ele>170</ele>
        <time>2026-07-19T10:31:27Z</time>
      </trkpt>
      <trkpt lat="48.98231" lon="2.19762">
        <ele>171</ele>
        <time>2026-07-19T10:31:36Z</time>
      </trkpt>
      <trkpt lat="48.98238" lon="2.19772">
        <ele>171</ele>
        <time>2026-07-19T10:31:43Z</time>
      </trkpt>
      <trkpt lat="48.98245" lon="2.19781">
        <ele>172</ele>
        <time>2026-07-19T10:31:52Z</time>
      </trkpt>
      <trkpt lat="48.98253" lon="2.19789">
        <ele>173</ele>
        <time>2026-07-19T10:32:00Z</time>
      </trkpt>
      <trkpt lat="48.98261" lon="2.19797">
        <ele>174</ele>
        <time>2026-07-19T10:32:07Z</time>
      </trkpt>
      <trkpt lat="48.98268" lon="2.19806">
        <ele>175</ele>
        <time>2026-07-19T10:32:15Z</time>
      </trkpt>
      <trkpt lat="48.98276" lon="2.19814">
        <ele>175</ele>
        <time>2026-07-19T10:32:24Z</time>
      </trkpt>
      <trkpt lat="48.98283" lon="2.19822">
        <ele>172</ele>
        <time>2026-07-19T10:32:35Z</time>
      </trkpt>
      <trkpt lat="48.9829" lon="2.19833">
        <ele>173</ele>
        <time>2026-07-19T10:32:44Z</time>
      </trkpt>
      <trkpt lat="48.98296" lon="2.19843">
        <ele>174</ele>
        <time>2026-07-19T10:32:52Z</time>
      </trkpt>
      <trkpt lat="48.98304" lon="2.19852">
        <ele>175</ele>
        <time>2026-07-19T10:32:59Z</time>
      </trkpt>
      <trkpt lat="48.98312" lon="2.1986">
        <ele>175</ele>
        <time>2026-07-19T10:33:09Z</time>
      </trkpt>
      <trkpt lat="48.98318" lon="2.1987">
        <ele>176</ele>
        <time>2026-07-19T10:33:16Z</time>
      </trkpt>
      <trkpt lat="48.98326" lon="2.19878">
        <ele>178</ele>
        <time>2026-07-19T10:33:25Z</time>
      </trkpt>
      <trkpt lat="48.98332" lon="2.19888">
        <ele>175</ele>
        <time>2026-07-19T10:33:33Z</time>
      </trkpt>
      <trkpt lat="48.98338" lon="2.19899">
        <ele>174</ele>
        <time>2026-07-19T10:33:41Z</time>
      </trkpt>
      <trkpt lat="48.98345" lon="2.19909">
        <ele>174</ele>
        <time>2026-07-19T10:33:49Z</time>
      </trkpt>
      <trkpt lat="48.98352" lon="2.19919">
        <ele>173</ele>
        <time>2026-07-19T10:33:57Z</time>
      </trkpt>
      <trkpt lat="48.9836" lon="2.19927">
        <ele>171</ele>
        <time>2026-07-19T10:34:05Z</time>
      </trkpt>
      <trkpt lat="48.98368" lon="2.19934">
        <ele>172</ele>
        <time>2026-07-19T10:34:13Z</time>
      </trkpt>
      <trkpt lat="48.98376" lon="2.19941">
        <ele>171</ele>
        <time>2026-07-19T10:34:18Z</time>
      </trkpt>
      <trkpt lat="48.98382" lon="2.19953">
        <ele>170</ele>
        <time>2026-07-19T10:34:28Z</time>
      </trkpt>
      <trkpt lat="48.98385" lon="2.19966">
        <ele>168</ele>
        <time>2026-07-19T10:34:46Z</time>
      </trkpt>
      <trkpt lat="48.98382" lon="2.19978">
        <ele>165</ele>
        <time>2026-07-19T10:35:14Z</time>
      </trkpt>
      <trkpt lat="48.98382" lon="2.19991">
        <ele>161</ele>
        <time>2026-07-19T10:35:40Z</time>
      </trkpt>
      <trkpt lat="48.98369" lon="2.19984">
        <ele>154</ele>
        <time>2026-07-19T10:35:45Z</time>
      </trkpt>
      <trkpt lat="48.98372" lon="2.19999">
        <ele>167</ele>
        <time>2026-07-19T10:35:50Z</time>
      </trkpt>
      <trkpt lat="48.98379" lon="2.20006">
        <ele>166</ele>
        <time>2026-07-19T10:36:19Z</time>
      </trkpt>
      <trkpt lat="48.98386" lon="2.20015">
        <ele>164</ele>
        <time>2026-07-19T10:36:32Z</time>
      </trkpt>
      <trkpt lat="48.98394" lon="2.20026">
        <ele>158</ele>
        <time>2026-07-19T10:36:38Z</time>
      </trkpt>
      <trkpt lat="48.98398" lon="2.20038">
        <ele>157</ele>
        <time>2026-07-19T10:36:49Z</time>
      </trkpt>
      <trkpt lat="48.98401" lon="2.20052">
        <ele>158</ele>
        <time>2026-07-19T10:36:59Z</time>
      </trkpt>
      <trkpt lat="48.98405" lon="2.20064">
        <ele>158</ele>
        <time>2026-07-19T10:37:09Z</time>
      </trkpt>
      <trkpt lat="48.98411" lon="2.20075">
        <ele>154</ele>
        <time>2026-07-19T10:37:20Z</time>
      </trkpt>
      <trkpt lat="48.98415" lon="2.20088">
        <ele>153</ele>
        <time>2026-07-19T10:37:27Z</time>
      </trkpt>
      <trkpt lat="48.98417" lon="2.20102">
        <ele>152</ele>
        <time>2026-07-19T10:37:36Z</time>
      </trkpt>
      <trkpt lat="48.98419" lon="2.20116">
        <ele>152</ele>
        <time>2026-07-19T10:37:44Z</time>
      </trkpt>
      <trkpt lat="48.98425" lon="2.20127">
        <ele>153</ele>
        <time>2026-07-19T10:37:55Z</time>
      </trkpt>
      <trkpt lat="48.98431" lon="2.2014">
        <ele>152</ele>
        <time>2026-07-19T10:38:07Z</time>
      </trkpt>
      <trkpt lat="48.98432" lon="2.20136">
        <ele>153</ele>
        <time>2026-07-19T10:38:15Z</time>
      </trkpt>
      <trkpt lat="48.98432" lon="2.20126">
        <ele>150</ele>
        <time>2026-07-19T10:38:25Z</time>
      </trkpt>
      <trkpt lat="48.98437" lon="2.20116">
        <ele>153</ele>
        <time>2026-07-19T10:38:59Z</time>
      </trkpt>
      <trkpt lat="48.98432" lon="2.20112">
        <ele>150</ele>
        <time>2026-07-19T10:40:14Z</time>
      </trkpt>
      <trkpt lat="48.98436" lon="2.20116">
        <ele>149</ele>
        <time>2026-07-19T10:41:21Z</time>
      </trkpt>
      <trkpt lat="48.98442" lon="2.20125">
        <ele>148</ele>
        <time>2026-07-19T10:41:27Z</time>
      </trkpt>
      <trkpt lat="48.98449" lon="2.20134">
        <ele>148</ele>
        <time>2026-07-19T10:41:34Z</time>
      </trkpt>
      <trkpt lat="48.98452" lon="2.20128">
        <ele>147</ele>
        <time>2026-07-19T10:41:48Z</time>
      </trkpt>
      <trkpt lat="48.98457" lon="2.20133">
        <ele>146</ele>
        <time>2026-07-19T10:42:43Z</time>
      </trkpt>
      <trkpt lat="48.98467" lon="2.20137">
        <ele>146</ele>
        <time>2026-07-19T10:42:48Z</time>
      </trkpt>
      <trkpt lat="48.98468" lon="2.20131">
        <ele>146</ele>
        <time>2026-07-19T10:42:57Z</time>
      </trkpt>
      <trkpt lat="48.98464" lon="2.20121">
        <ele>146</ele>
        <time>2026-07-19T10:43:07Z</time>
      </trkpt>
      <trkpt lat="48.98458" lon="2.20112">
        <ele>147</ele>
        <time>2026-07-19T10:43:22Z</time>
      </trkpt>
      <trkpt lat="48.9845" lon="2.20106">
        <ele>147</ele>
        <time>2026-07-19T10:43:39Z</time>
      </trkpt>
      <trkpt lat="48.9844" lon="2.20103">
        <ele>147</ele>
        <time>2026-07-19T10:43:44Z</time>
      </trkpt>
      <trkpt lat="48.98429" lon="2.201">
        <ele>146</ele>
        <time>2026-07-19T10:43:49Z</time>
      </trkpt>
      <trkpt lat="48.98419" lon="2.201">
        <ele>146</ele>
        <time>2026-07-19T10:44:07Z</time>
      </trkpt>
      <trkpt lat="48.98421" lon="2.201">
        <ele>149</ele>
        <time>2026-07-19T10:45:23Z</time>
      </trkpt>
      <trkpt lat="48.98426" lon="2.20107">
        <ele>150</ele>
        <time>2026-07-19T10:45:28Z</time>
      </trkpt>
      <trkpt lat="48.98428" lon="2.2012">
        <ele>150</ele>
        <time>2026-07-19T10:45:44Z</time>
      </trkpt>
      <trkpt lat="48.98429" lon="2.20115">
        <ele>149</ele>
        <time>2026-07-19T10:46:20Z</time>
      </trkpt>
      <trkpt lat="48.98436" lon="2.20112">
        <ele>150</ele>
        <time>2026-07-19T10:46:36Z</time>
      </trkpt>
      <trkpt lat="48.98444" lon="2.20111">
        <ele>152</ele>
        <time>2026-07-19T10:46:46Z</time>
      </trkpt>
      <trkpt lat="48.9845" lon="2.20119">
        <ele>154</ele>
        <time>2026-07-19T10:47:24Z</time>
      </trkpt>
      <trkpt lat="48.98456" lon="2.20128">
        <ele>154</ele>
        <time>2026-07-19T10:47:29Z</time>
      </trkpt>
      <trkpt lat="48.98452" lon="2.20134">
        <ele>150</ele>
        <time>2026-07-19T10:48:17Z</time>
      </trkpt>
      <trkpt lat="48.98452" lon="2.20128">
        <ele>148</ele>
        <time>2026-07-19T10:48:26Z</time>
      </trkpt>
      <trkpt lat="48.98446" lon="2.20121">
        <ele>147</ele>
        <time>2026-07-19T10:48:46Z</time>
      </trkpt>
      <trkpt lat="48.98447" lon="2.20125">
        <ele>143</ele>
        <time>2026-07-19T10:49:51Z</time>
      </trkpt>
      <trkpt lat="48.98443" lon="2.20123">
        <ele>140</ele>
        <time>2026-07-19T10:50:25Z</time>
      </trkpt>
      <trkpt lat="48.98435" lon="2.20127">
        <ele>140</ele>
        <time>2026-07-19T10:50:31Z</time>
      </trkpt>
      <trkpt lat="48.98429" lon="2.20135">
        <ele>140</ele>
        <time>2026-07-19T10:50:38Z</time>
      </trkpt>
      <trkpt lat="48.9843" lon="2.20132">
        <ele>140</ele>
        <time>2026-07-19T10:51:24Z</time>
      </trkpt>
      <trkpt lat="48.98435" lon="2.20125">
        <ele>138</ele>
        <time>2026-07-19T10:52:21Z</time>
      </trkpt>
      <trkpt lat="48.98436" lon="2.20112">
        <ele>135</ele>
        <time>2026-07-19T10:53:17Z</time>
      </trkpt>
      <trkpt lat="48.98432" lon="2.20114">
        <ele>134</ele>
        <time>2026-07-19T10:53:34Z</time>
      </trkpt>
      <trkpt lat="48.98425" lon="2.20113">
        <ele>131</ele>
        <time>2026-07-19T10:54:16Z</time>
      </trkpt>
      <trkpt lat="48.98428" lon="2.20113">
        <ele>131</ele>
        <time>2026-07-19T10:54:32Z</time>
      </trkpt>
      <trkpt lat="48.98426" lon="2.20121">
        <ele>131</ele>
        <time>2026-07-19T10:55:48Z</time>
      </trkpt>
      <trkpt lat="48.98424" lon="2.20133">
        <ele>130</ele>
        <time>2026-07-19T10:55:54Z</time>
      </trkpt>
      <trkpt lat="48.98428" lon="2.2013">
        <ele>130</ele>
        <time>2026-07-19T10:56:06Z</time>
      </trkpt>
      <trkpt lat="48.98424" lon="2.20122">
        <ele>133</ele>
        <time>2026-07-19T10:56:29Z</time>
      </trkpt>
      <trkpt lat="48.98418" lon="2.20123">
        <ele>134</ele>
        <time>2026-07-19T10:56:37Z</time>
      </trkpt>
      <trkpt lat="48.98421" lon="2.20121">
        <ele>135</ele>
        <time>2026-07-19T10:57:09Z</time>
      </trkpt>
      <trkpt lat="48.98428" lon="2.20117">
        <ele>136</ele>
        <time>2026-07-19T10:59:00Z</time>
      </trkpt>
      <trkpt lat="48.98425" lon="2.20113">
        <ele>135</ele>
        <time>2026-07-19T10:59:14Z</time>
      </trkpt>
      <trkpt lat="48.98429" lon="2.20116">
        <ele>132</ele>
        <time>2026-07-19T11:00:21Z</time>
      </trkpt>
      <trkpt lat="48.98435" lon="2.20112">
        <ele>129</ele>
        <time>2026-07-19T11:00:31Z</time>
      </trkpt>
      <trkpt lat="48.98432" lon="2.20109">
        <ele>128</ele>
        <time>2026-07-19T11:00:53Z</time>
      </trkpt>
      <trkpt lat="48.98427" lon="2.20101">
        <ele>128</ele>
        <time>2026-07-19T11:01:24Z</time>
      </trkpt>
      <trkpt lat="48.98421" lon="2.20103">
        <ele>129</ele>
        <time>2026-07-19T11:01:42Z</time>
      </trkpt>
      <trkpt lat="48.98418" lon="2.20113">
        <ele>129</ele>
        <time>2026-07-19T11:01:54Z</time>
      </trkpt>
      <trkpt lat="48.98421" lon="2.20122">
        <ele>130</ele>
        <time>2026-07-19T11:02:16Z</time>
      </trkpt>
      <trkpt lat="48.98427" lon="2.2012">
        <ele>129</ele>
        <time>2026-07-19T11:02:27Z</time>
      </trkpt>
      <trkpt lat="48.98432" lon="2.20109">
        <ele>129</ele>
        <time>2026-07-19T11:02:33Z</time>
      </trkpt>
      <trkpt lat="48.98439" lon="2.20108">
        <ele>139</ele>
        <time>2026-07-19T11:03:24Z</time>
      </trkpt>
      <trkpt lat="48.98437" lon="2.20101">
        <ele>143</ele>
        <time>2026-07-19T11:05:16Z</time>
      </trkpt>
      <trkpt lat="48.98438" lon="2.20107">
        <ele>145</ele>
        <time>2026-07-19T11:05:44Z</time>
      </trkpt>
      <trkpt lat="48.98435" lon="2.20115">
        <ele>146</ele>
        <time>2026-07-19T11:07:29Z</time>
      </trkpt>
      <trkpt lat="48.98434" lon="2.20108">
        <ele>143</ele>
        <time>2026-07-19T11:08:19Z</time>
      </trkpt>
      <trkpt lat="48.98437" lon="2.20099">
        <ele>142</ele>
        <time>2026-07-19T11:08:24Z</time>
      </trkpt>
      <trkpt lat="48.98431" lon="2.20097">
        <ele>137</ele>
        <time>2026-07-19T11:11:39Z</time>
      </trkpt>
      <trkpt lat="48.98433" lon="2.20103">
        <ele>141</ele>
        <time>2026-07-19T11:11:56Z</time>
      </trkpt>
      <trkpt lat="48.98434" lon="2.20114">
        <ele>147</ele>
        <time>2026-07-19T11:12:22Z</time>
      </trkpt>
      <trkpt lat="48.98435" lon="2.20127">
        <ele>148</ele>
        <time>2026-07-19T11:12:38Z</time>
      </trkpt>
      <trkpt lat="48.98437" lon="2.20141">
        <ele>149</ele>
        <time>2026-07-19T11:12:50Z</time>
      </trkpt>
      <trkpt lat="48.98441" lon="2.20155">
        <ele>150</ele>
        <time>2026-07-19T11:12:59Z</time>
      </trkpt>
      <trkpt lat="48.98442" lon="2.20169">
        <ele>147</ele>
        <time>2026-07-19T11:13:26Z</time>
      </trkpt>
      <trkpt lat="48.98443" lon="2.20184">
        <ele>146</ele>
        <time>2026-07-19T11:13:35Z</time>
      </trkpt>
      <trkpt lat="48.98439" lon="2.20198">
        <ele>141</ele>
        <time>2026-07-19T11:13:42Z</time>
      </trkpt>
      <trkpt lat="48.98437" lon="2.20214">
        <ele>138</ele>
        <time>2026-07-19T11:13:47Z</time>
      </trkpt>
      <trkpt lat="48.98439" lon="2.20227">
        <ele>140</ele>
        <time>2026-07-19T11:13:54Z</time>
      </trkpt>
      <trkpt lat="48.98437" lon="2.2024">
        <ele>139</ele>
        <time>2026-07-19T11:14:09Z</time>
      </trkpt>
      <trkpt lat="48.98432" lon="2.20253">
        <ele>136</ele>
        <time>2026-07-19T11:14:20Z</time>
      </trkpt>
      <trkpt lat="48.98428" lon="2.20268">
        <ele>136</ele>
        <time>2026-07-19T11:14:25Z</time>
      </trkpt>
      <trkpt lat="48.98426" lon="2.20282">
        <ele>139</ele>
        <time>2026-07-19T11:14:31Z</time>
      </trkpt>
      <trkpt lat="48.98423" lon="2.20297">
        <ele>141</ele>
        <time>2026-07-19T11:14:39Z</time>
      </trkpt>
      <trkpt lat="48.98416" lon="2.20307">
        <ele>145</ele>
        <time>2026-07-19T11:14:52Z</time>
      </trkpt>
      <trkpt lat="48.98408" lon="2.20308">
        <ele>148</ele>
        <time>2026-07-19T11:15:03Z</time>
      </trkpt>
      <trkpt lat="48.98399" lon="2.20305">
        <ele>151</ele>
        <time>2026-07-19T11:15:10Z</time>
      </trkpt>
      <trkpt lat="48.9839" lon="2.20302">
        <ele>152</ele>
        <time>2026-07-19T11:15:21Z</time>
      </trkpt>
      <trkpt lat="48.9838" lon="2.20298">
        <ele>155</ele>
        <time>2026-07-19T11:15:28Z</time>
      </trkpt>
      <trkpt lat="48.98372" lon="2.20292">
        <ele>159</ele>
        <time>2026-07-19T11:15:39Z</time>
      </trkpt>
      <trkpt lat="48.98362" lon="2.20291">
        <ele>160</ele>
        <time>2026-07-19T11:15:51Z</time>
      </trkpt>
      <trkpt lat="48.98353" lon="2.20295">
        <ele>159</ele>
        <time>2026-07-19T11:16:00Z</time>
      </trkpt>
      <trkpt lat="48.98344" lon="2.20294">
        <ele>160</ele>
        <time>2026-07-19T11:16:07Z</time>
      </trkpt>
      <trkpt lat="48.98335" lon="2.20297">
        <ele>163</ele>
        <time>2026-07-19T11:16:22Z</time>
      </trkpt>
      <trkpt lat="48.98325" lon="2.20301">
        <ele>160</ele>
        <time>2026-07-19T11:16:40Z</time>
      </trkpt>
      <trkpt lat="48.98317" lon="2.20309">
        <ele>159</ele>
        <time>2026-07-19T11:16:59Z</time>
      </trkpt>
      <trkpt lat="48.9831" lon="2.20318">
        <ele>158</ele>
        <time>2026-07-19T11:17:08Z</time>
      </trkpt>
      <trkpt lat="48.98304" lon="2.20328">
        <ele>158</ele>
        <time>2026-07-19T11:17:18Z</time>
      </trkpt>
      <trkpt lat="48.98298" lon="2.20339">
        <ele>156</ele>
        <time>2026-07-19T11:17:28Z</time>
      </trkpt>
      <trkpt lat="48.98293" lon="2.2035">
        <ele>155</ele>
        <time>2026-07-19T11:17:35Z</time>
      </trkpt>
      <trkpt lat="48.98289" lon="2.20363">
        <ele>154</ele>
        <time>2026-07-19T11:17:42Z</time>
      </trkpt>
      <trkpt lat="48.98284" lon="2.20374">
        <ele>154</ele>
        <time>2026-07-19T11:17:51Z</time>
      </trkpt>
      <trkpt lat="48.98278" lon="2.20385">
        <ele>152</ele>
        <time>2026-07-19T11:18:08Z</time>
      </trkpt>
      <trkpt lat="48.98278" lon="2.20398">
        <ele>153</ele>
        <time>2026-07-19T11:18:14Z</time>
      </trkpt>
      <trkpt lat="48.98279" lon="2.20412">
        <ele>149</ele>
        <time>2026-07-19T11:18:24Z</time>
      </trkpt>
      <trkpt lat="48.98276" lon="2.20424">
        <ele>148</ele>
        <time>2026-07-19T11:18:32Z</time>
      </trkpt>
      <trkpt lat="48.98272" lon="2.20436">
        <ele>148</ele>
        <time>2026-07-19T11:18:42Z</time>
      </trkpt>
      <trkpt lat="48.98269" lon="2.20449">
        <ele>148</ele>
        <time>2026-07-19T11:18:52Z</time>
      </trkpt>
      <trkpt lat="48.98264" lon="2.20462">
        <ele>144</ele>
        <time>2026-07-19T11:19:04Z</time>
      </trkpt>
      <trkpt lat="48.98259" lon="2.20475">
        <ele>144</ele>
        <time>2026-07-19T11:19:10Z</time>
      </trkpt>
      <trkpt lat="48.98254" lon="2.20488">
        <ele>143</ele>
        <time>2026-07-19T11:19:24Z</time>
      </trkpt>
      <trkpt lat="48.98248" lon="2.20499">
        <ele>143</ele>
        <time>2026-07-19T11:19:31Z</time>
      </trkpt>
      <trkpt lat="48.98244" lon="2.20512">
        <ele>144</ele>
        <time>2026-07-19T11:19:40Z</time>
      </trkpt>
      <trkpt lat="48.98238" lon="2.20525">
        <ele>145</ele>
        <time>2026-07-19T11:19:50Z</time>
      </trkpt>
      <trkpt lat="48.98234" lon="2.20537">
        <ele>145</ele>
        <time>2026-07-19T11:19:55Z</time>
      </trkpt>
      <trkpt lat="48.9823" lon="2.20549">
        <ele>144</ele>
        <time>2026-07-19T11:20:03Z</time>
      </trkpt>
      <trkpt lat="48.98226" lon="2.20564">
        <ele>145</ele>
        <time>2026-07-19T11:20:11Z</time>
      </trkpt>
      <trkpt lat="48.98221" lon="2.20575">
        <ele>148</ele>
        <time>2026-07-19T11:20:21Z</time>
      </trkpt>
      <trkpt lat="48.98213" lon="2.20579">
        <ele>150</ele>
        <time>2026-07-19T11:20:51Z</time>
      </trkpt>
      <trkpt lat="48.98203" lon="2.2058">
        <ele>150</ele>
        <time>2026-07-19T11:20:56Z</time>
      </trkpt>
      <trkpt lat="48.98192" lon="2.20582">
        <ele>150</ele>
        <time>2026-07-19T11:21:02Z</time>
      </trkpt>
      <trkpt lat="48.98182" lon="2.20583">
        <ele>151</ele>
        <time>2026-07-19T11:21:08Z</time>
      </trkpt>
      <trkpt lat="48.98172" lon="2.20584">
        <ele>152</ele>
        <time>2026-07-19T11:21:13Z</time>
      </trkpt>
      <trkpt lat="48.98161" lon="2.20582">
        <ele>153</ele>
        <time>2026-07-19T11:21:28Z</time>
      </trkpt>
      <trkpt lat="48.9815" lon="2.20581">
        <ele>154</ele>
        <time>2026-07-19T11:21:34Z</time>
      </trkpt>
      <trkpt lat="48.9814" lon="2.2058">
        <ele>153</ele>
        <time>2026-07-19T11:21:40Z</time>
      </trkpt>
      <trkpt lat="48.9813" lon="2.20577">
        <ele>155</ele>
        <time>2026-07-19T11:21:47Z</time>
      </trkpt>
      <trkpt lat="48.98119" lon="2.20577">
        <ele>154</ele>
        <time>2026-07-19T11:21:52Z</time>
      </trkpt>
      <trkpt lat="48.98109" lon="2.20575">
        <ele>157</ele>
        <time>2026-07-19T11:22:04Z</time>
      </trkpt>
      <trkpt lat="48.98103" lon="2.20567">
        <ele>160</ele>
        <time>2026-07-19T11:22:20Z</time>
      </trkpt>
      <trkpt lat="48.98098" lon="2.20556">
        <ele>159</ele>
        <time>2026-07-19T11:22:30Z</time>
      </trkpt>
      <trkpt lat="48.98094" lon="2.20543">
        <ele>157</ele>
        <time>2026-07-19T11:22:37Z</time>
      </trkpt>
      <trkpt lat="48.9809" lon="2.2053">
        <ele>156</ele>
        <time>2026-07-19T11:22:47Z</time>
      </trkpt>
      <trkpt lat="48.98086" lon="2.20516">
        <ele>155</ele>
        <time>2026-07-19T11:22:57Z</time>
      </trkpt>
      <trkpt lat="48.98082" lon="2.20503">
        <ele>155</ele>
        <time>2026-07-19T11:23:12Z</time>
      </trkpt>
      <trkpt lat="48.98079" lon="2.2049">
        <ele>156</ele>
        <time>2026-07-19T11:23:22Z</time>
      </trkpt>
      <trkpt lat="48.98073" lon="2.20483">
        <ele>148</ele>
        <time>2026-07-19T11:23:46Z</time>
      </trkpt>
      <trkpt lat="48.98064" lon="2.20479">
        <ele>146</ele>
        <time>2026-07-19T11:23:55Z</time>
      </trkpt>
      <trkpt lat="48.98054" lon="2.20475">
        <ele>145</ele>
        <time>2026-07-19T11:24:06Z</time>
      </trkpt>
      <trkpt lat="48.98045" lon="2.20472">
        <ele>145</ele>
        <time>2026-07-19T11:24:23Z</time>
      </trkpt>
      <trkpt lat="48.98035" lon="2.20471">
        <ele>145</ele>
        <time>2026-07-19T11:24:36Z</time>
      </trkpt>
      <trkpt lat="48.98026" lon="2.20476">
        <ele>143</ele>
        <time>2026-07-19T11:24:48Z</time>
      </trkpt>
      <trkpt lat="48.98017" lon="2.20474">
        <ele>141</ele>
        <time>2026-07-19T11:25:03Z</time>
      </trkpt>
      <trkpt lat="48.98011" lon="2.20467">
        <ele>140</ele>
        <time>2026-07-19T11:25:10Z</time>
      </trkpt>
      <trkpt lat="48.98014" lon="2.20461">
        <ele>139</ele>
        <time>2026-07-19T11:25:28Z</time>
      </trkpt>
      <trkpt lat="48.98018" lon="2.20451">
        <ele>140</ele>
        <time>2026-07-19T11:25:37Z</time>
      </trkpt>
      <trkpt lat="48.98023" lon="2.20439">
        <ele>141</ele>
        <time>2026-07-19T11:25:53Z</time>
      </trkpt>
      <trkpt lat="48.98029" lon="2.20427">
        <ele>141</ele>
        <time>2026-07-19T11:26:08Z</time>
      </trkpt>
      <trkpt lat="48.98037" lon="2.20417">
        <ele>142</ele>
        <time>2026-07-19T11:26:25Z</time>
      </trkpt>
      <trkpt lat="48.98046" lon="2.2041">
        <ele>140</ele>
        <time>2026-07-19T11:26:31Z</time>
      </trkpt>
      <trkpt lat="48.98052" lon="2.20399">
        <ele>140</ele>
        <time>2026-07-19T11:26:42Z</time>
      </trkpt>
      <trkpt lat="48.98057" lon="2.20387">
        <ele>140</ele>
        <time>2026-07-19T11:26:48Z</time>
      </trkpt>
      <trkpt lat="48.98059" lon="2.20374">
        <ele>141</ele>
        <time>2026-07-19T11:26:59Z</time>
      </trkpt>
      <trkpt lat="48.98057" lon="2.20361">
        <ele>146</ele>
        <time>2026-07-19T11:27:27Z</time>
      </trkpt>
      <trkpt lat="48.98053" lon="2.20348">
        <ele>145</ele>
        <time>2026-07-19T11:28:07Z</time>
      </trkpt>
      <trkpt lat="48.98046" lon="2.20343">
        <ele>141</ele>
        <time>2026-07-19T11:29:33Z</time>
      </trkpt>
      <trkpt lat="48.98038" lon="2.20345">
        <ele>138</ele>
        <time>2026-07-19T11:29:42Z</time>
      </trkpt>
      <trkpt lat="48.9803" lon="2.20351">
        <ele>137</ele>
        <time>2026-07-19T11:29:50Z</time>
      </trkpt>
      <trkpt lat="48.98021" lon="2.20356">
        <ele>135</ele>
        <time>2026-07-19T11:30:03Z</time>
      </trkpt>
      <trkpt lat="48.98013" lon="2.20363">
        <ele>133</ele>
        <time>2026-07-19T11:30:12Z</time>
      </trkpt>
      <trkpt lat="48.98004" lon="2.20367">
        <ele>129</ele>
        <time>2026-07-19T11:30:21Z</time>
      </trkpt>
      <trkpt lat="48.97995" lon="2.20373">
        <ele>127</ele>
        <time>2026-07-19T11:30:28Z</time>
      </trkpt>
      <trkpt lat="48.97986" lon="2.20379">
        <ele>125</ele>
        <time>2026-07-19T11:30:44Z</time>
      </trkpt>
      <trkpt lat="48.97977" lon="2.20385">
        <ele>123</ele>
        <time>2026-07-19T11:30:54Z</time>
      </trkpt>
      <trkpt lat="48.97967" lon="2.20391">
        <ele>122</ele>
        <time>2026-07-19T11:31:07Z</time>
      </trkpt>
      <trkpt lat="48.97963" lon="2.20402">
        <ele>123</ele>
        <time>2026-07-19T11:31:12Z</time>
      </trkpt>
      <trkpt lat="48.9795" lon="2.20405">
        <ele>125</ele>
        <time>2026-07-19T11:31:17Z</time>
      </trkpt>
      <trkpt lat="48.9794" lon="2.20408">
        <ele>128</ele>
        <time>2026-07-19T11:31:33Z</time>
      </trkpt>
      <trkpt lat="48.97931" lon="2.20415">
        <ele>127</ele>
        <time>2026-07-19T11:31:42Z</time>
      </trkpt>
      <trkpt lat="48.97923" lon="2.20425">
        <ele>123</ele>
        <time>2026-07-19T11:31:52Z</time>
      </trkpt>
      <trkpt lat="48.97916" lon="2.20436">
        <ele>119</ele>
        <time>2026-07-19T11:32:01Z</time>
      </trkpt>
      <trkpt lat="48.97909" lon="2.20445">
        <ele>117</ele>
        <time>2026-07-19T11:32:07Z</time>
      </trkpt>
      <trkpt lat="48.97902" lon="2.20455">
        <ele>116</ele>
        <time>2026-07-19T11:32:15Z</time>
      </trkpt>
      <trkpt lat="48.97893" lon="2.20462">
        <ele>117</ele>
        <time>2026-07-19T11:32:28Z</time>
      </trkpt>
      <trkpt lat="48.97884" lon="2.20469">
        <ele>116</ele>
        <time>2026-07-19T11:32:33Z</time>
      </trkpt>
      <trkpt lat="48.97875" lon="2.20466">
        <ele>114</ele>
        <time>2026-07-19T11:33:06Z</time>
      </trkpt>
      <trkpt lat="48.97866" lon="2.20464">
        <ele>110</ele>
        <time>2026-07-19T11:33:13Z</time>
      </trkpt>
      <trkpt lat="48.97853" lon="2.20464">
        <ele>128</ele>
        <time>2026-07-19T11:33:20Z</time>
      </trkpt>
      <trkpt lat="48.97849" lon="2.20455">
        <ele>119</ele>
        <time>2026-07-19T11:33:28Z</time>
      </trkpt>
      <trkpt lat="48.97845" lon="2.20443">
        <ele>116</ele>
        <time>2026-07-19T11:34:08Z</time>
      </trkpt>
      <trkpt lat="48.97839" lon="2.20432">
        <ele>114</ele>
        <time>2026-07-19T11:34:17Z</time>
      </trkpt>
      <trkpt lat="48.97832" lon="2.20421">
        <ele>114</ele>
        <time>2026-07-19T11:34:32Z</time>
      </trkpt>
      <trkpt lat="48.97824" lon="2.20412">
        <ele>115</ele>
        <time>2026-07-19T11:34:39Z</time>
      </trkpt>
      <trkpt lat="48.97816" lon="2.20403">
        <ele>116</ele>
        <time>2026-07-19T11:34:47Z</time>
      </trkpt>
      <trkpt lat="48.97808" lon="2.20396">
        <ele>119</ele>
        <time>2026-07-19T11:34:57Z</time>
      </trkpt>
      <trkpt lat="48.978" lon="2.20389">
        <ele>118</ele>
        <time>2026-07-19T11:35:05Z</time>
      </trkpt>
      <trkpt lat="48.97793" lon="2.2038">
        <ele>117</ele>
        <time>2026-07-19T11:35:14Z</time>
      </trkpt>
      <trkpt lat="48.97784" lon="2.20374">
        <ele>117</ele>
        <time>2026-07-19T11:35:23Z</time>
      </trkpt>
      <trkpt lat="48.97775" lon="2.20368">
        <ele>117</ele>
        <time>2026-07-19T11:35:33Z</time>
      </trkpt>
      <trkpt lat="48.97766" lon="2.20365">
        <ele>117</ele>
        <time>2026-07-19T11:35:40Z</time>
      </trkpt>
      <trkpt lat="48.97759" lon="2.20356">
        <ele>116</ele>
        <time>2026-07-19T11:35:55Z</time>
      </trkpt>
      <trkpt lat="48.97758" lon="2.20345">
        <ele>113</ele>
        <time>2026-07-19T11:36:05Z</time>
      </trkpt>
      <trkpt lat="48.97758" lon="2.20331">
        <ele>111</ele>
        <time>2026-07-19T11:36:20Z</time>
      </trkpt>
      <trkpt lat="48.97757" lon="2.20316">
        <ele>112</ele>
        <time>2026-07-19T11:36:36Z</time>
      </trkpt>
      <trkpt lat="48.97751" lon="2.20307">
        <ele>110</ele>
        <time>2026-07-19T11:36:48Z</time>
      </trkpt>
      <trkpt lat="48.97744" lon="2.20298">
        <ele>109</ele>
        <time>2026-07-19T11:36:58Z</time>
      </trkpt>
      <trkpt lat="48.97738" lon="2.20288">
        <ele>108</ele>
        <time>2026-07-19T11:37:07Z</time>
      </trkpt>
      <trkpt lat="48.97733" lon="2.20276">
        <ele>108</ele>
        <time>2026-07-19T11:37:15Z</time>
      </trkpt>
      <trkpt lat="48.97732" lon="2.20263">
        <ele>109</ele>
        <time>2026-07-19T11:37:27Z</time>
      </trkpt>
      <trkpt lat="48.97733" lon="2.20248">
        <ele>110</ele>
        <time>2026-07-19T11:37:37Z</time>
      </trkpt>
      <trkpt lat="48.97736" lon="2.20233">
        <ele>112</ele>
        <time>2026-07-19T11:37:59Z</time>
      </trkpt>
      <trkpt lat="48.97738" lon="2.20217">
        <ele>113</ele>
        <time>2026-07-19T11:38:08Z</time>
      </trkpt>
      <trkpt lat="48.97741" lon="2.20203">
        <ele>114</ele>
        <time>2026-07-19T11:38:17Z</time>
      </trkpt>
      <trkpt lat="48.97743" lon="2.20189">
        <ele>115</ele>
        <time>2026-07-19T11:38:27Z</time>
      </trkpt>
      <trkpt lat="48.9774" lon="2.20177">
        <ele>116</ele>
        <time>2026-07-19T11:38:38Z</time>
      </trkpt>
      <trkpt lat="48.97734" lon="2.20169">
        <ele>115</ele>
        <time>2026-07-19T11:38:47Z</time>
      </trkpt>
      <trkpt lat="48.97726" lon="2.20164">
        <ele>115</ele>
        <time>2026-07-19T11:38:57Z</time>
      </trkpt>
      <trkpt lat="48.97717" lon="2.2016">
        <ele>114</ele>
        <time>2026-07-19T11:39:07Z</time>
      </trkpt>
      <trkpt lat="48.97707" lon="2.20157">
        <ele>114</ele>
        <time>2026-07-19T11:39:15Z</time>
      </trkpt>
      <trkpt lat="48.97698" lon="2.20156">
        <ele>114</ele>
        <time>2026-07-19T11:39:25Z</time>
      </trkpt>
      <trkpt lat="48.97688" lon="2.20156">
        <ele>113</ele>
        <time>2026-07-19T11:39:35Z</time>
      </trkpt>
      <trkpt lat="48.97679" lon="2.20156">
        <ele>111</ele>
        <time>2026-07-19T11:39:44Z</time>
      </trkpt>
      <trkpt lat="48.97669" lon="2.20152">
        <ele>109</ele>
        <time>2026-07-19T11:39:55Z</time>
      </trkpt>
      <trkpt lat="48.97661" lon="2.20146">
        <ele>107</ele>
        <time>2026-07-19T11:40:04Z</time>
      </trkpt>
      <trkpt lat="48.97659" lon="2.20135">
        <ele>104</ele>
        <time>2026-07-19T11:40:16Z</time>
      </trkpt>
      <trkpt lat="48.97657" lon="2.20122">
        <ele>103</ele>
        <time>2026-07-19T11:40:25Z</time>
      </trkpt>
      <trkpt lat="48.97653" lon="2.20108">
        <ele>103</ele>
        <time>2026-07-19T11:40:40Z</time>
      </trkpt>
      <trkpt lat="48.97651" lon="2.20094">
        <ele>103</ele>
        <time>2026-07-19T11:40:49Z</time>
      </trkpt>
      <trkpt lat="48.9765" lon="2.2008">
        <ele>104</ele>
        <time>2026-07-19T11:40:58Z</time>
      </trkpt>
      <trkpt lat="48.97649" lon="2.20066">
        <ele>108</ele>
        <time>2026-07-19T11:41:07Z</time>
      </trkpt>
      <trkpt lat="48.97647" lon="2.20052">
        <ele>110</ele>
        <time>2026-07-19T11:41:16Z</time>
      </trkpt>
      <trkpt lat="48.97641" lon="2.20044">
        <ele>111</ele>
        <time>2026-07-19T11:41:25Z</time>
      </trkpt>
      <trkpt lat="48.97636" lon="2.20033">
        <ele>111</ele>
        <time>2026-07-19T11:41:37Z</time>
      </trkpt>
      <trkpt lat="48.9763" lon="2.20023">
        <ele>110</ele>
        <time>2026-07-19T11:41:47Z</time>
      </trkpt>
      <trkpt lat="48.97622" lon="2.20016">
        <ele>109</ele>
        <time>2026-07-19T11:41:59Z</time>
      </trkpt>
      <trkpt lat="48.97613" lon="2.20012">
        <ele>109</ele>
        <time>2026-07-19T11:42:12Z</time>
      </trkpt>
      <trkpt lat="48.97605" lon="2.20007">
        <ele>109</ele>
        <time>2026-07-19T11:42:23Z</time>
      </trkpt>
      <trkpt lat="48.97597" lon="2.20001">
        <ele>108</ele>
        <time>2026-07-19T11:42:34Z</time>
      </trkpt>
      <trkpt lat="48.97587" lon="2.19997">
        <ele>107</ele>
        <time>2026-07-19T11:42:43Z</time>
      </trkpt>
      <trkpt lat="48.97578" lon="2.19994">
        <ele>107</ele>
        <time>2026-07-19T11:42:53Z</time>
      </trkpt>
      <trkpt lat="48.97567" lon="2.19994">
        <ele>99</ele>
        <time>2026-07-19T11:43:01Z</time>
      </trkpt>
      <trkpt lat="48.97559" lon="2.19989">
        <ele>98</ele>
        <time>2026-07-19T11:43:12Z</time>
      </trkpt>
      <trkpt lat="48.97552" lon="2.19979">
        <ele>98</ele>
        <time>2026-07-19T11:43:20Z</time>
      </trkpt>
      <trkpt lat="48.97546" lon="2.19966">
        <ele>98</ele>
        <time>2026-07-19T11:43:25Z</time>
      </trkpt>
      <trkpt lat="48.9754" lon="2.19967">
        <ele>99</ele>
        <time>2026-07-19T11:43:32Z</time>
      </trkpt>
      <trkpt lat="48.97532" lon="2.19961">
        <ele>94</ele>
        <time>2026-07-19T11:43:43Z</time>
      </trkpt>
      <trkpt lat="48.97523" lon="2.19961">
        <ele>94</ele>
        <time>2026-07-19T11:43:59Z</time>
      </trkpt>
      <trkpt lat="48.97513" lon="2.1996">
        <ele>94</ele>
        <time>2026-07-19T11:44:04Z</time>
      </trkpt>
      <trkpt lat="48.97504" lon="2.19956">
        <ele>95</ele>
        <time>2026-07-19T11:44:12Z</time>
      </trkpt>
      <trkpt lat="48.97494" lon="2.19953">
        <ele>95</ele>
        <time>2026-07-19T11:44:27Z</time>
      </trkpt>
      <trkpt lat="48.97485" lon="2.19949">
        <ele>95</ele>
        <time>2026-07-19T11:44:35Z</time>
      </trkpt>
      <trkpt lat="48.97476" lon="2.19942">
        <ele>96</ele>
        <time>2026-07-19T11:44:49Z</time>
      </trkpt>
      <trkpt lat="48.97468" lon="2.19937">
        <ele>96</ele>
        <time>2026-07-19T11:44:58Z</time>
      </trkpt>
      <trkpt lat="48.97458" lon="2.19931">
        <ele>92</ele>
        <time>2026-07-19T11:45:03Z</time>
      </trkpt>
      <trkpt lat="48.97448" lon="2.19928">
        <ele>92</ele>
        <time>2026-07-19T11:45:16Z</time>
      </trkpt>
      <trkpt lat="48.97438" lon="2.19925">
        <ele>91</ele>
        <time>2026-07-19T11:45:27Z</time>
      </trkpt>
      <trkpt lat="48.97429" lon="2.19921">
        <ele>91</ele>
        <time>2026-07-19T11:45:35Z</time>
      </trkpt>
      <trkpt lat="48.97421" lon="2.19914">
        <ele>92</ele>
        <time>2026-07-19T11:45:50Z</time>
      </trkpt>
      <trkpt lat="48.97414" lon="2.19905">
        <ele>93</ele>
        <time>2026-07-19T11:46:03Z</time>
      </trkpt>
      <trkpt lat="48.97412" lon="2.19911">
        <ele>93</ele>
        <time>2026-07-19T11:46:25Z</time>
      </trkpt>
      <trkpt lat="48.9741" lon="2.19921">
        <ele>92</ele>
        <time>2026-07-19T11:46:37Z</time>
      </trkpt>
      <trkpt lat="48.97408" lon="2.19934">
        <ele>91</ele>
        <time>2026-07-19T11:46:50Z</time>
      </trkpt>
      <trkpt lat="48.97403" lon="2.19948">
        <ele>91</ele>
        <time>2026-07-19T11:47:03Z</time>
      </trkpt>
      <trkpt lat="48.97397" lon="2.19961">
        <ele>92</ele>
        <time>2026-07-19T11:47:15Z</time>
      </trkpt>
      <trkpt lat="48.97392" lon="2.19974">
        <ele>91</ele>
        <time>2026-07-19T11:47:22Z</time>
      </trkpt>
      <trkpt lat="48.97387" lon="2.19987">
        <ele>91</ele>
        <time>2026-07-19T11:47:29Z</time>
      </trkpt>
      <trkpt lat="48.97379" lon="2.19993">
        <ele>91</ele>
        <time>2026-07-19T11:47:41Z</time>
      </trkpt>
      <trkpt lat="48.97371" lon="2.19994">
        <ele>90</ele>
        <time>2026-07-19T11:47:52Z</time>
      </trkpt>
      <trkpt lat="48.97357" lon="2.19986">
        <ele>89</ele>
        <time>2026-07-19T11:48:04Z</time>
      </trkpt>
      <trkpt lat="48.97353" lon="2.19982">
        <ele>89</ele>
        <time>2026-07-19T11:48:14Z</time>
      </trkpt>
      <trkpt lat="48.97346" lon="2.19975">
        <ele>90</ele>
        <time>2026-07-19T11:48:21Z</time>
      </trkpt>
      <trkpt lat="48.97338" lon="2.19967">
        <ele>89</ele>
        <time>2026-07-19T11:48:29Z</time>
      </trkpt>
      <trkpt lat="48.97332" lon="2.19957">
        <ele>88</ele>
        <time>2026-07-19T11:48:37Z</time>
      </trkpt>
      <trkpt lat="48.97326" lon="2.19947">
        <ele>88</ele>
        <time>2026-07-19T11:48:47Z</time>
      </trkpt>
      <trkpt lat="48.97319" lon="2.19937">
        <ele>87</ele>
        <time>2026-07-19T11:48:58Z</time>
      </trkpt>
      <trkpt lat="48.97312" lon="2.19927">
        <ele>86</ele>
        <time>2026-07-19T11:49:09Z</time>
      </trkpt>
      <trkpt lat="48.97305" lon="2.19917">
        <ele>85</ele>
        <time>2026-07-19T11:49:22Z</time>
      </trkpt>
      <trkpt lat="48.97298" lon="2.19908">
        <ele>87</ele>
        <time>2026-07-19T11:49:32Z</time>
      </trkpt>
      <trkpt lat="48.9729" lon="2.19897">
        <ele>88</ele>
        <time>2026-07-19T11:49:39Z</time>
      </trkpt>
      <trkpt lat="48.97282" lon="2.19888">
        <ele>89</ele>
        <time>2026-07-19T11:49:47Z</time>
      </trkpt>
      <trkpt lat="48.97274" lon="2.19878">
        <ele>89</ele>
        <time>2026-07-19T11:49:57Z</time>
      </trkpt>
      <trkpt lat="48.97267" lon="2.19868">
        <ele>86</ele>
        <time>2026-07-19T11:50:03Z</time>
      </trkpt>
      <trkpt lat="48.97261" lon="2.19857">
        <ele>86</ele>
        <time>2026-07-19T11:50:18Z</time>
      </trkpt>
      <trkpt lat="48.97252" lon="2.1985">
        <ele>82</ele>
        <time>2026-07-19T11:50:25Z</time>
      </trkpt>
      <trkpt lat="48.97244" lon="2.19841">
        <ele>82</ele>
        <time>2026-07-19T11:50:37Z</time>
      </trkpt>
      <trkpt lat="48.9724" lon="2.19828">
        <ele>79</ele>
        <time>2026-07-19T11:50:42Z</time>
      </trkpt>
      <trkpt lat="48.97229" lon="2.19825">
        <ele>71</ele>
        <time>2026-07-19T11:50:47Z</time>
      </trkpt>
      <trkpt lat="48.97221" lon="2.19817">
        <ele>70</ele>
        <time>2026-07-19T11:50:59Z</time>
      </trkpt>
      <trkpt lat="48.97214" lon="2.19807">
        <ele>70</ele>
        <time>2026-07-19T11:51:13Z</time>
      </trkpt>
      <trkpt lat="48.97207" lon="2.19797">
        <ele>71</ele>
        <time>2026-07-19T11:51:20Z</time>
      </trkpt>
      <trkpt lat="48.97202" lon="2.19784">
        <ele>73</ele>
        <time>2026-07-19T11:51:27Z</time>
      </trkpt>
      <trkpt lat="48.97195" lon="2.19775">
        <ele>74</ele>
        <time>2026-07-19T11:51:33Z</time>
      </trkpt>
      <trkpt lat="48.97188" lon="2.19764">
        <ele>75</ele>
        <time>2026-07-19T11:51:42Z</time>
      </trkpt>
      <trkpt lat="48.97178" lon="2.1975">
        <ele>71</ele>
        <time>2026-07-19T11:51:47Z</time>
      </trkpt>
      <trkpt lat="48.97171" lon="2.19738">
        <ele>72</ele>
        <time>2026-07-19T11:52:05Z</time>
      </trkpt>
      <trkpt lat="48.97164" lon="2.19726">
        <ele>74</ele>
        <time>2026-07-19T11:52:20Z</time>
      </trkpt>
      <trkpt lat="48.97161" lon="2.19713">
        <ele>74</ele>
        <time>2026-07-19T11:52:27Z</time>
      </trkpt>
      <trkpt lat="48.97154" lon="2.19704">
        <ele>74</ele>
        <time>2026-07-19T11:52:34Z</time>
      </trkpt>
      <trkpt lat="48.97146" lon="2.197">
        <ele>76</ele>
        <time>2026-07-19T11:53:08Z</time>
      </trkpt>
      <trkpt lat="48.97139" lon="2.19691">
        <ele>79</ele>
        <time>2026-07-19T11:53:15Z</time>
      </trkpt>
      <trkpt lat="48.97131" lon="2.19683">
        <ele>80</ele>
        <time>2026-07-19T11:53:24Z</time>
      </trkpt>
      <trkpt lat="48.97124" lon="2.19673">
        <ele>81</ele>
        <time>2026-07-19T11:53:31Z</time>
      </trkpt>
      <trkpt lat="48.97116" lon="2.19664">
        <ele>81</ele>
        <time>2026-07-19T11:53:40Z</time>
      </trkpt>
      <trkpt lat="48.97108" lon="2.19656">
        <ele>81</ele>
        <time>2026-07-19T11:53:48Z</time>
      </trkpt>
      <trkpt lat="48.97101" lon="2.19646">
        <ele>80</ele>
        <time>2026-07-19T11:53:57Z</time>
      </trkpt>
      <trkpt lat="48.97096" lon="2.19635">
        <ele>78</ele>
        <time>2026-07-19T11:54:05Z</time>
      </trkpt>
      <trkpt lat="48.9709" lon="2.19623">
        <ele>76</ele>
        <time>2026-07-19T11:54:11Z</time>
      </trkpt>
      <trkpt lat="48.97081" lon="2.19616">
        <ele>75</ele>
        <time>2026-07-19T11:54:24Z</time>
      </trkpt>
      <trkpt lat="48.97074" lon="2.19606">
        <ele>76</ele>
        <time>2026-07-19T11:54:34Z</time>
      </trkpt>
      <trkpt lat="48.97065" lon="2.19604">
        <ele>75</ele>
        <time>2026-07-19T11:54:41Z</time>
      </trkpt>
      <trkpt lat="48.9706" lon="2.19594">
        <ele>74</ele>
        <time>2026-07-19T11:54:48Z</time>
      </trkpt>
      <trkpt lat="48.97054" lon="2.19584">
        <ele>75</ele>
        <time>2026-07-19T11:54:53Z</time>
      </trkpt>
      <trkpt lat="48.97049" lon="2.19572">
        <ele>72</ele>
        <time>2026-07-19T11:55:03Z</time>
      </trkpt>
      <trkpt lat="48.97042" lon="2.19564">
        <ele>72</ele>
        <time>2026-07-19T11:55:10Z</time>
      </trkpt>
      <trkpt lat="48.97034" lon="2.19554">
        <ele>72</ele>
        <time>2026-07-19T11:55:17Z</time>
      </trkpt>
      <trkpt lat="48.97027" lon="2.19544">
        <ele>71</ele>
        <time>2026-07-19T11:55:28Z</time>
      </trkpt>
      <trkpt lat="48.97021" lon="2.19534">
        <ele>70</ele>
        <time>2026-07-19T11:55:38Z</time>
      </trkpt>
      <trkpt lat="48.97007" lon="2.19524">
        <ele>69</ele>
        <time>2026-07-19T11:55:43Z</time>
      </trkpt>
      <trkpt lat="48.97001" lon="2.1951">
        <ele>69</ele>
        <time>2026-07-19T11:55:49Z</time>
      </trkpt>
      <trkpt lat="48.96997" lon="2.19497">
        <ele>70</ele>
        <time>2026-07-19T11:55:58Z</time>
      </trkpt>
      <trkpt lat="48.96991" lon="2.19485">
        <ele>72</ele>
        <time>2026-07-19T11:56:14Z</time>
      </trkpt>
      <trkpt lat="48.96983" lon="2.19481">
        <ele>73</ele>
        <time>2026-07-19T11:56:21Z</time>
      </trkpt>
      <trkpt lat="48.96974" lon="2.19478">
        <ele>67</ele>
        <time>2026-07-19T11:56:34Z</time>
      </trkpt>
      <trkpt lat="48.96966" lon="2.19471">
        <ele>69</ele>
        <time>2026-07-19T11:57:10Z</time>
      </trkpt>
      <trkpt lat="48.96961" lon="2.19461">
        <ele>66</ele>
        <time>2026-07-19T11:57:25Z</time>
      </trkpt>
      <trkpt lat="48.96953" lon="2.19453">
        <ele>65</ele>
        <time>2026-07-19T11:57:31Z</time>
      </trkpt>
      <trkpt lat="48.96945" lon="2.19447">
        <ele>65</ele>
        <time>2026-07-19T11:57:39Z</time>
      </trkpt>
      <trkpt lat="48.96936" lon="2.19441">
        <ele>65</ele>
        <time>2026-07-19T11:57:46Z</time>
      </trkpt>
      <trkpt lat="48.9693" lon="2.1943">
        <ele>66</ele>
        <time>2026-07-19T11:57:55Z</time>
      </trkpt>
      <trkpt lat="48.96923" lon="2.1942">
        <ele>66</ele>
        <time>2026-07-19T11:58:07Z</time>
      </trkpt>
      <trkpt lat="48.96915" lon="2.19415">
        <ele>64</ele>
        <time>2026-07-19T11:58:14Z</time>
      </trkpt>
      <trkpt lat="48.96907" lon="2.19408">
        <ele>64</ele>
        <time>2026-07-19T11:58:25Z</time>
      </trkpt>
      <trkpt lat="48.96898" lon="2.19401">
        <ele>64</ele>
        <time>2026-07-19T11:58:52Z</time>
      </trkpt>
      <trkpt lat="48.9689" lon="2.19395">
        <ele>65</ele>
        <time>2026-07-19T11:59:04Z</time>
      </trkpt>
      <trkpt lat="48.96881" lon="2.1939">
        <ele>64</ele>
        <time>2026-07-19T11:59:24Z</time>
      </trkpt>
      <trkpt lat="48.96872" lon="2.19387">
        <ele>65</ele>
        <time>2026-07-19T11:59:31Z</time>
      </trkpt>
      <trkpt lat="48.96863" lon="2.1939">
        <ele>67</ele>
        <time>2026-07-19T11:59:45Z</time>
      </trkpt>
      <trkpt lat="48.96855" lon="2.19397">
        <ele>67</ele>
        <time>2026-07-19T11:59:54Z</time>
      </trkpt>
      <trkpt lat="48.96852" lon="2.19391">
        <ele>68</ele>
        <time>2026-07-19T12:00:13Z</time>
      </trkpt>
      <trkpt lat="48.96852" lon="2.19379">
        <ele>69</ele>
        <time>2026-07-19T12:00:18Z</time>
      </trkpt>
      <trkpt lat="48.96855" lon="2.19367">
        <ele>69</ele>
        <time>2026-07-19T12:00:23Z</time>
      </trkpt>
      <trkpt lat="48.96825" lon="2.19362">
        <ele>69</ele>
        <time>2026-07-19T12:00:58Z</time>
      </trkpt>
      <trkpt lat="48.96815" lon="2.1935">
        <ele>69</ele>
        <time>2026-07-19T12:01:06Z</time>
      </trkpt>
      <trkpt lat="48.9681" lon="2.19336">
        <ele>70</ele>
        <time>2026-07-19T12:01:31Z</time>
      </trkpt>
      <trkpt lat="48.96809" lon="2.19322">
        <ele>69</ele>
        <time>2026-07-19T12:01:41Z</time>
      </trkpt>
      <trkpt lat="48.96811" lon="2.19307">
        <ele>65</ele>
        <time>2026-07-19T12:01:48Z</time>
      </trkpt>
      <trkpt lat="48.96812" lon="2.19293">
        <ele>68</ele>
        <time>2026-07-19T12:01:54Z</time>
      </trkpt>
      <trkpt lat="48.96811" lon="2.19277">
        <ele>69</ele>
        <time>2026-07-19T12:02:04Z</time>
      </trkpt>
      <trkpt lat="48.96817" lon="2.1927">
        <ele>69</ele>
        <time>2026-07-19T12:02:09Z</time>
      </trkpt>
      <trkpt lat="48.9682" lon="2.19257">
        <ele>65</ele>
        <time>2026-07-19T12:02:22Z</time>
      </trkpt>
      <trkpt lat="48.96822" lon="2.19244">
        <ele>63</ele>
        <time>2026-07-19T12:02:34Z</time>
      </trkpt>
      <trkpt lat="48.9682" lon="2.19226">
        <ele>64</ele>
        <time>2026-07-19T12:02:39Z</time>
      </trkpt>
      <trkpt lat="48.96823" lon="2.19226">
        <ele>64</ele>
        <time>2026-07-19T12:02:58Z</time>
      </trkpt>
      <trkpt lat="48.9683" lon="2.19221">
        <ele>65</ele>
        <time>2026-07-19T12:03:10Z</time>
      </trkpt>
      <trkpt lat="48.96837" lon="2.19212">
        <ele>66</ele>
        <time>2026-07-19T12:03:18Z</time>
      </trkpt>
      <trkpt lat="48.96839" lon="2.192">
        <ele>67</ele>
        <time>2026-07-19T12:03:34Z</time>
      </trkpt>
      <trkpt lat="48.96843" lon="2.19187">
        <ele>68</ele>
        <time>2026-07-19T12:03:44Z</time>
      </trkpt>
      <trkpt lat="48.96848" lon="2.19174">
        <ele>70</ele>
        <time>2026-07-19T12:03:54Z</time>
      </trkpt>
      <trkpt lat="48.96854" lon="2.19161">
        <ele>69</ele>
        <time>2026-07-19T12:04:07Z</time>
      </trkpt>
      <trkpt lat="48.96857" lon="2.19147">
        <ele>69</ele>
        <time>2026-07-19T12:04:13Z</time>
      </trkpt>
      <trkpt lat="48.96865" lon="2.19139">
        <ele>66</ele>
        <time>2026-07-19T12:04:20Z</time>
      </trkpt>
      <trkpt lat="48.96868" lon="2.19126">
        <ele>63</ele>
        <time>2026-07-19T12:04:28Z</time>
      </trkpt>
      <trkpt lat="48.96871" lon="2.19112">
        <ele>64</ele>
        <time>2026-07-19T12:04:39Z</time>
      </trkpt>
      <trkpt lat="48.96876" lon="2.191">
        <ele>66</ele>
        <time>2026-07-19T12:04:49Z</time>
      </trkpt>
      <trkpt lat="48.9688" lon="2.19088">
        <ele>67</ele>
        <time>2026-07-19T12:05:00Z</time>
      </trkpt>
      <trkpt lat="48.96883" lon="2.19074">
        <ele>68</ele>
        <time>2026-07-19T12:05:13Z</time>
      </trkpt>
      <trkpt lat="48.96887" lon="2.19061">
        <ele>69</ele>
        <time>2026-07-19T12:05:36Z</time>
      </trkpt>
      <trkpt lat="48.96884" lon="2.19048">
        <ele>70</ele>
        <time>2026-07-19T12:05:52Z</time>
      </trkpt>
      <trkpt lat="48.96879" lon="2.19037">
        <ele>71</ele>
        <time>2026-07-19T12:06:01Z</time>
      </trkpt>
      <trkpt lat="48.96871" lon="2.1903">
        <ele>70</ele>
        <time>2026-07-19T12:06:11Z</time>
      </trkpt>
      <trkpt lat="48.96862" lon="2.19022">
        <ele>71</ele>
        <time>2026-07-19T12:06:22Z</time>
      </trkpt>
      <trkpt lat="48.96853" lon="2.19016">
        <ele>70</ele>
        <time>2026-07-19T12:06:31Z</time>
      </trkpt>
      <trkpt lat="48.96845" lon="2.19008">
        <ele>71</ele>
        <time>2026-07-19T12:06:41Z</time>
      </trkpt>
      <trkpt lat="48.96836" lon="2.19002">
        <ele>72</ele>
        <time>2026-07-19T12:06:50Z</time>
      </trkpt>
      <trkpt lat="48.96827" lon="2.19001">
        <ele>73</ele>
        <time>2026-07-19T12:06:58Z</time>
      </trkpt>
      <trkpt lat="48.96818" lon="2.18999">
        <ele>74</ele>
        <time>2026-07-19T12:07:04Z</time>
      </trkpt>
      <trkpt lat="48.96807" lon="2.18998">
        <ele>75</ele>
        <time>2026-07-19T12:07:16Z</time>
      </trkpt>
      <trkpt lat="48.96798" lon="2.18995">
        <ele>73</ele>
        <time>2026-07-19T12:07:24Z</time>
      </trkpt>
      <trkpt lat="48.96789" lon="2.19005">
        <ele>73</ele>
        <time>2026-07-19T12:07:29Z</time>
      </trkpt>
      <trkpt lat="48.96782" lon="2.19003">
        <ele>72</ele>
        <time>2026-07-19T12:07:34Z</time>
      </trkpt>
      <trkpt lat="48.96774" lon="2.18998">
        <ele>71</ele>
        <time>2026-07-19T12:07:42Z</time>
      </trkpt>
      <trkpt lat="48.96766" lon="2.18992">
        <ele>70</ele>
        <time>2026-07-19T12:07:50Z</time>
      </trkpt>
      <trkpt lat="48.96757" lon="2.18984">
        <ele>69</ele>
        <time>2026-07-19T12:08:04Z</time>
      </trkpt>
      <trkpt lat="48.9675" lon="2.18973">
        <ele>69</ele>
        <time>2026-07-19T12:08:42Z</time>
      </trkpt>
      <trkpt lat="48.96744" lon="2.1896">
        <ele>69</ele>
        <time>2026-07-19T12:08:47Z</time>
      </trkpt>
      <trkpt lat="48.96741" lon="2.18946">
        <ele>68</ele>
        <time>2026-07-19T12:08:56Z</time>
      </trkpt>
      <trkpt lat="48.96736" lon="2.18932">
        <ele>69</ele>
        <time>2026-07-19T12:09:05Z</time>
      </trkpt>
      <trkpt lat="48.9673" lon="2.18921">
        <ele>70</ele>
        <time>2026-07-19T12:09:13Z</time>
      </trkpt>
      <trkpt lat="48.96722" lon="2.18913">
        <ele>70</ele>
        <time>2026-07-19T12:09:23Z</time>
      </trkpt>
      <trkpt lat="48.96713" lon="2.18907">
        <ele>69</ele>
        <time>2026-07-19T12:09:34Z</time>
      </trkpt>
      <trkpt lat="48.96704" lon="2.18902">
        <ele>69</ele>
        <time>2026-07-19T12:09:43Z</time>
      </trkpt>
      <trkpt lat="48.96694" lon="2.18897">
        <ele>69</ele>
        <time>2026-07-19T12:09:53Z</time>
      </trkpt>
      <trkpt lat="48.96684" lon="2.18893">
        <ele>68</ele>
        <time>2026-07-19T12:10:02Z</time>
      </trkpt>
      <trkpt lat="48.96675" lon="2.18888">
        <ele>68</ele>
        <time>2026-07-19T12:10:11Z</time>
      </trkpt>
      <trkpt lat="48.96666" lon="2.18885">
        <ele>68</ele>
        <time>2026-07-19T12:10:21Z</time>
      </trkpt>
      <trkpt lat="48.96656" lon="2.18882">
        <ele>69</ele>
        <time>2026-07-19T12:10:30Z</time>
      </trkpt>
      <trkpt lat="48.96647" lon="2.18883">
        <ele>67</ele>
        <time>2026-07-19T12:11:20Z</time>
      </trkpt>
      <trkpt lat="48.96644" lon="2.18873">
        <ele>66</ele>
        <time>2026-07-19T12:11:33Z</time>
      </trkpt>
      <trkpt lat="48.96637" lon="2.18871">
        <ele>65</ele>
        <time>2026-07-19T12:12:15Z</time>
      </trkpt>
      <trkpt lat="48.96629" lon="2.18875">
        <ele>63</ele>
        <time>2026-07-19T12:12:22Z</time>
      </trkpt>
      <trkpt lat="48.96621" lon="2.18874">
        <ele>64</ele>
        <time>2026-07-19T12:12:32Z</time>
      </trkpt>
      <trkpt lat="48.96612" lon="2.1887">
        <ele>64</ele>
        <time>2026-07-19T12:12:38Z</time>
      </trkpt>
      <trkpt lat="48.96608" lon="2.18859">
        <ele>65</ele>
        <time>2026-07-19T12:12:50Z</time>
      </trkpt>
      <trkpt lat="48.966" lon="2.18858">
        <ele>65</ele>
        <time>2026-07-19T12:13:02Z</time>
      </trkpt>
      <trkpt lat="48.96591" lon="2.18857">
        <ele>64</ele>
        <time>2026-07-19T12:13:12Z</time>
      </trkpt>
      <trkpt lat="48.96581" lon="2.18855">
        <ele>64</ele>
        <time>2026-07-19T12:13:23Z</time>
      </trkpt>
      <trkpt lat="48.96572" lon="2.18852">
        <ele>65</ele>
        <time>2026-07-19T12:13:32Z</time>
      </trkpt>
      <trkpt lat="48.96562" lon="2.18848">
        <ele>65</ele>
        <time>2026-07-19T12:13:39Z</time>
      </trkpt>
      <trkpt lat="48.96553" lon="2.18842">
        <ele>65</ele>
        <time>2026-07-19T12:13:57Z</time>
      </trkpt>
      <trkpt lat="48.96544" lon="2.18836">
        <ele>66</ele>
        <time>2026-07-19T12:14:05Z</time>
      </trkpt>
      <trkpt lat="48.96535" lon="2.18828">
        <ele>67</ele>
        <time>2026-07-19T12:14:14Z</time>
      </trkpt>
      <trkpt lat="48.96526" lon="2.18821">
        <ele>66</ele>
        <time>2026-07-19T12:14:22Z</time>
      </trkpt>
      <trkpt lat="48.96517" lon="2.18817">
        <ele>66</ele>
        <time>2026-07-19T12:14:29Z</time>
      </trkpt>
      <trkpt lat="48.96507" lon="2.18811">
        <ele>65</ele>
        <time>2026-07-19T12:14:37Z</time>
      </trkpt>
      <trkpt lat="48.96497" lon="2.18808">
        <ele>65</ele>
        <time>2026-07-19T12:14:44Z</time>
      </trkpt>
      <trkpt lat="48.96488" lon="2.18804">
        <ele>66</ele>
        <time>2026-07-19T12:14:52Z</time>
      </trkpt>
      <trkpt lat="48.96479" lon="2.18798">
        <ele>65</ele>
        <time>2026-07-19T12:15:04Z</time>
      </trkpt>
      <trkpt lat="48.9647" lon="2.18794">
        <ele>66</ele>
        <time>2026-07-19T12:15:13Z</time>
      </trkpt>
      <trkpt lat="48.9646" lon="2.1879">
        <ele>65</ele>
        <time>2026-07-19T12:15:23Z</time>
      </trkpt>
      <trkpt lat="48.96451" lon="2.18784">
        <ele>64</ele>
        <time>2026-07-19T12:15:32Z</time>
      </trkpt>
      <trkpt lat="48.96442" lon="2.1878">
        <ele>62</ele>
        <time>2026-07-19T12:15:41Z</time>
      </trkpt>
      <trkpt lat="48.96432" lon="2.18778">
        <ele>63</ele>
        <time>2026-07-19T12:15:49Z</time>
      </trkpt>
      <trkpt lat="48.96422" lon="2.18776">
        <ele>66</ele>
        <time>2026-07-19T12:15:57Z</time>
      </trkpt>
      <trkpt lat="48.96415" lon="2.1877">
        <ele>67</ele>
        <time>2026-07-19T12:16:05Z</time>
      </trkpt>
      <trkpt lat="48.96408" lon="2.18761">
        <ele>67</ele>
        <time>2026-07-19T12:16:14Z</time>
      </trkpt>
      <trkpt lat="48.96406" lon="2.18748">
        <ele>67</ele>
        <time>2026-07-19T12:16:20Z</time>
      </trkpt>
      <trkpt lat="48.96401" lon="2.18736">
        <ele>67</ele>
        <time>2026-07-19T12:16:27Z</time>
      </trkpt>
      <trkpt lat="48.96398" lon="2.18721">
        <ele>64</ele>
        <time>2026-07-19T12:16:37Z</time>
      </trkpt>
      <trkpt lat="48.96391" lon="2.18715">
        <ele>64</ele>
        <time>2026-07-19T12:16:42Z</time>
      </trkpt>
      <trkpt lat="48.96383" lon="2.1871">
        <ele>61</ele>
        <time>2026-07-19T12:16:48Z</time>
      </trkpt>
      <trkpt lat="48.96376" lon="2.18697">
        <ele>61</ele>
        <time>2026-07-19T12:16:53Z</time>
      </trkpt>
      <trkpt lat="48.96368" lon="2.18688">
        <ele>65</ele>
        <time>2026-07-19T12:17:07Z</time>
      </trkpt>
      <trkpt lat="48.96362" lon="2.18677">
        <ele>66</ele>
        <time>2026-07-19T12:17:18Z</time>
      </trkpt>
      <trkpt lat="48.96356" lon="2.18667">
        <ele>66</ele>
        <time>2026-07-19T12:17:27Z</time>
      </trkpt>
      <trkpt lat="48.9635" lon="2.18655">
        <ele>66</ele>
        <time>2026-07-19T12:17:39Z</time>
      </trkpt>
      <trkpt lat="48.96344" lon="2.18644">
        <ele>65</ele>
        <time>2026-07-19T12:17:47Z</time>
      </trkpt>
      <trkpt lat="48.96338" lon="2.18632">
        <ele>65</ele>
        <time>2026-07-19T12:17:54Z</time>
      </trkpt>
      <trkpt lat="48.96332" lon="2.18621">
        <ele>64</ele>
        <time>2026-07-19T12:18:05Z</time>
      </trkpt>
      <trkpt lat="48.96326" lon="2.18609">
        <ele>63</ele>
        <time>2026-07-19T12:18:13Z</time>
      </trkpt>
      <trkpt lat="48.96321" lon="2.18597">
        <ele>62</ele>
        <time>2026-07-19T12:18:20Z</time>
      </trkpt>
      <trkpt lat="48.96315" lon="2.18585">
        <ele>63</ele>
        <time>2026-07-19T12:18:28Z</time>
      </trkpt>
      <trkpt lat="48.96309" lon="2.18574">
        <ele>63</ele>
        <time>2026-07-19T12:18:36Z</time>
      </trkpt>
      <trkpt lat="48.96304" lon="2.18563">
        <ele>61</ele>
        <time>2026-07-19T12:18:47Z</time>
      </trkpt>
      <trkpt lat="48.96304" lon="2.1855">
        <ele>61</ele>
        <time>2026-07-19T12:18:58Z</time>
      </trkpt>
      <trkpt lat="48.96308" lon="2.18538">
        <ele>62</ele>
        <time>2026-07-19T12:19:16Z</time>
      </trkpt>
      <trkpt lat="48.96312" lon="2.18526">
        <ele>63</ele>
        <time>2026-07-19T12:19:35Z</time>
      </trkpt>
      <trkpt lat="48.96317" lon="2.18514">
        <ele>65</ele>
        <time>2026-07-19T12:19:51Z</time>
      </trkpt>
      <trkpt lat="48.96325" lon="2.18508">
        <ele>66</ele>
        <time>2026-07-19T12:20:04Z</time>
      </trkpt>
      <trkpt lat="48.96334" lon="2.18502">
        <ele>67</ele>
        <time>2026-07-19T12:20:13Z</time>
      </trkpt>
      <trkpt lat="48.96342" lon="2.18496">
        <ele>67</ele>
        <time>2026-07-19T12:20:22Z</time>
      </trkpt>
      <trkpt lat="48.96351" lon="2.1849">
        <ele>66</ele>
        <time>2026-07-19T12:20:32Z</time>
      </trkpt>
      <trkpt lat="48.9636" lon="2.18485">
        <ele>66</ele>
        <time>2026-07-19T12:20:43Z</time>
      </trkpt>
      <trkpt lat="48.96368" lon="2.1848">
        <ele>66</ele>
        <time>2026-07-19T12:20:54Z</time>
      </trkpt>
      <trkpt lat="48.96377" lon="2.18475">
        <ele>67</ele>
        <time>2026-07-19T12:21:04Z</time>
      </trkpt>
      <trkpt lat="48.96385" lon="2.18469">
        <ele>67</ele>
        <time>2026-07-19T12:21:14Z</time>
      </trkpt>
      <trkpt lat="48.96393" lon="2.18458">
        <ele>66</ele>
        <time>2026-07-19T12:21:24Z</time>
      </trkpt>
      <trkpt lat="48.96397" lon="2.18446">
        <ele>65</ele>
        <time>2026-07-19T12:21:32Z</time>
      </trkpt>
      <trkpt lat="48.96399" lon="2.18433">
        <ele>63</ele>
        <time>2026-07-19T12:21:43Z</time>
      </trkpt>
      <trkpt lat="48.96403" lon="2.18419">
        <ele>63</ele>
        <time>2026-07-19T12:21:57Z</time>
      </trkpt>
      <trkpt lat="48.96405" lon="2.18404">
        <ele>62</ele>
        <time>2026-07-19T12:22:05Z</time>
      </trkpt>
      <trkpt lat="48.96403" lon="2.18391">
        <ele>62</ele>
        <time>2026-07-19T12:22:17Z</time>
      </trkpt>
      <trkpt lat="48.96403" lon="2.18376">
        <ele>61</ele>
        <time>2026-07-19T12:22:25Z</time>
      </trkpt>
      <trkpt lat="48.96405" lon="2.18361">
        <ele>60</ele>
        <time>2026-07-19T12:22:34Z</time>
      </trkpt>
      <trkpt lat="48.9641" lon="2.18348">
        <ele>60</ele>
        <time>2026-07-19T12:22:43Z</time>
      </trkpt>
      <trkpt lat="48.96417" lon="2.18341">
        <ele>60</ele>
        <time>2026-07-19T12:22:52Z</time>
      </trkpt>
      <trkpt lat="48.96425" lon="2.18333">
        <ele>59</ele>
        <time>2026-07-19T12:23:05Z</time>
      </trkpt>
      <trkpt lat="48.96433" lon="2.18324">
        <ele>59</ele>
        <time>2026-07-19T12:23:10Z</time>
      </trkpt>
      <trkpt lat="48.96439" lon="2.18328">
        <ele>58</ele>
        <time>2026-07-19T12:23:24Z</time>
      </trkpt>
      <trkpt lat="48.96448" lon="2.18332">
        <ele>56</ele>
        <time>2026-07-19T12:23:32Z</time>
      </trkpt>
      <trkpt lat="48.96457" lon="2.18334">
        <ele>56</ele>
        <time>2026-07-19T12:23:51Z</time>
      </trkpt>
      <trkpt lat="48.96467" lon="2.18335">
        <ele>55</ele>
        <time>2026-07-19T12:24:02Z</time>
      </trkpt>
      <trkpt lat="48.96475" lon="2.1833">
        <ele>54</ele>
        <time>2026-07-19T12:24:15Z</time>
      </trkpt>
      <trkpt lat="48.96484" lon="2.18326">
        <ele>53</ele>
        <time>2026-07-19T12:24:24Z</time>
      </trkpt>
      <trkpt lat="48.96492" lon="2.18329">
        <ele>53</ele>
        <time>2026-07-19T12:24:30Z</time>
      </trkpt>
      <trkpt lat="48.965" lon="2.18328">
        <ele>51</ele>
        <time>2026-07-19T12:24:42Z</time>
      </trkpt>
      <trkpt lat="48.96507" lon="2.1832">
        <ele>49</ele>
        <time>2026-07-19T12:24:47Z</time>
      </trkpt>
      <trkpt lat="48.96516" lon="2.18316">
        <ele>49</ele>
        <time>2026-07-19T12:25:02Z</time>
      </trkpt>
      <trkpt lat="48.96524" lon="2.18321">
        <ele>48</ele>
        <time>2026-07-19T12:25:12Z</time>
      </trkpt>
      <trkpt lat="48.96531" lon="2.18318">
        <ele>47</ele>
        <time>2026-07-19T12:25:24Z</time>
      </trkpt>
      <trkpt lat="48.9654" lon="2.18313">
        <ele>46</ele>
        <time>2026-07-19T12:25:34Z</time>
      </trkpt>
      <trkpt lat="48.9655" lon="2.18313">
        <ele>45</ele>
        <time>2026-07-19T12:25:45Z</time>
      </trkpt>
      <trkpt lat="48.96562" lon="2.18317">
        <ele>50</ele>
        <time>2026-07-19T12:25:50Z</time>
      </trkpt>
      <trkpt lat="48.96573" lon="2.18316">
        <ele>55</ele>
        <time>2026-07-19T12:26:15Z</time>
      </trkpt>
      <trkpt lat="48.96582" lon="2.18317">
        <ele>58</ele>
        <time>2026-07-19T12:26:29Z</time>
      </trkpt>
      <trkpt lat="48.9659" lon="2.18311">
        <ele>59</ele>
        <time>2026-07-19T12:26:39Z</time>
      </trkpt>
      <trkpt lat="48.96599" lon="2.18308">
        <ele>59</ele>
        <time>2026-07-19T12:26:53Z</time>
      </trkpt>
      <trkpt lat="48.96608" lon="2.18309">
        <ele>60</ele>
        <time>2026-07-19T12:27:03Z</time>
      </trkpt>
      <trkpt lat="48.96618" lon="2.18311">
        <ele>59</ele>
        <time>2026-07-19T12:27:10Z</time>
      </trkpt>
      <trkpt lat="48.96628" lon="2.1831">
        <ele>59</ele>
        <time>2026-07-19T12:27:17Z</time>
      </trkpt>
      <trkpt lat="48.96637" lon="2.18313">
        <ele>62</ele>
        <time>2026-07-19T12:27:27Z</time>
      </trkpt>
      <trkpt lat="48.96647" lon="2.18316">
        <ele>62</ele>
        <time>2026-07-19T12:27:36Z</time>
      </trkpt>
      <trkpt lat="48.96656" lon="2.18314">
        <ele>62</ele>
        <time>2026-07-19T12:27:41Z</time>
      </trkpt>
      <trkpt lat="48.96666" lon="2.18312">
        <ele>62</ele>
        <time>2026-07-19T12:27:47Z</time>
      </trkpt>
      <trkpt lat="48.96676" lon="2.1831">
        <ele>61</ele>
        <time>2026-07-19T12:27:53Z</time>
      </trkpt>
      <trkpt lat="48.96685" lon="2.18311">
        <ele>60</ele>
        <time>2026-07-19T12:28:00Z</time>
      </trkpt>
      <trkpt lat="48.96694" lon="2.18314">
        <ele>59</ele>
        <time>2026-07-19T12:28:06Z</time>
      </trkpt>
      <trkpt lat="48.96704" lon="2.18315">
        <ele>59</ele>
        <time>2026-07-19T12:28:22Z</time>
      </trkpt>
      <trkpt lat="48.96713" lon="2.18314">
        <ele>59</ele>
        <time>2026-07-19T12:28:39Z</time>
      </trkpt>
      <trkpt lat="48.96728" lon="2.18309">
        <ele>59</ele>
        <time>2026-07-19T12:28:48Z</time>
      </trkpt>
      <trkpt lat="48.96733" lon="2.18308">
        <ele>61</ele>
        <time>2026-07-19T12:28:58Z</time>
      </trkpt>
      <trkpt lat="48.96741" lon="2.18302">
        <ele>62</ele>
        <time>2026-07-19T12:29:05Z</time>
      </trkpt>
      <trkpt lat="48.9675" lon="2.18298">
        <ele>61</ele>
        <time>2026-07-19T12:29:19Z</time>
      </trkpt>
      <trkpt lat="48.96759" lon="2.18295">
        <ele>61</ele>
        <time>2026-07-19T12:29:29Z</time>
      </trkpt>
      <trkpt lat="48.96769" lon="2.18294">
        <ele>61</ele>
        <time>2026-07-19T12:29:37Z</time>
      </trkpt>
      <trkpt lat="48.96778" lon="2.18293">
        <ele>61</ele>
        <time>2026-07-19T12:29:47Z</time>
      </trkpt>
      <trkpt lat="48.96788" lon="2.18291">
        <ele>60</ele>
        <time>2026-07-19T12:30:02Z</time>
      </trkpt>
      <trkpt lat="48.96797" lon="2.18289">
        <ele>60</ele>
        <time>2026-07-19T12:30:10Z</time>
      </trkpt>
      <trkpt lat="48.96806" lon="2.18292">
        <ele>59</ele>
        <time>2026-07-19T12:30:15Z</time>
      </trkpt>
      <trkpt lat="48.96815" lon="2.18291">
        <ele>61</ele>
        <time>2026-07-19T12:30:24Z</time>
      </trkpt>
      <trkpt lat="48.96825" lon="2.18287">
        <ele>61</ele>
        <time>2026-07-19T12:30:35Z</time>
      </trkpt>
      <trkpt lat="48.96834" lon="2.18282">
        <ele>61</ele>
        <time>2026-07-19T12:30:42Z</time>
      </trkpt>
      <trkpt lat="48.96844" lon="2.18282">
        <ele>61</ele>
        <time>2026-07-19T12:30:52Z</time>
      </trkpt>
      <trkpt lat="48.96855" lon="2.18283">
        <ele>60</ele>
        <time>2026-07-19T12:30:57Z</time>
      </trkpt>
      <trkpt lat="48.96864" lon="2.18277">
        <ele>61</ele>
        <time>2026-07-19T12:31:07Z</time>
      </trkpt>
      <trkpt lat="48.96873" lon="2.18271">
        <ele>62</ele>
        <time>2026-07-19T12:31:12Z</time>
      </trkpt>
      <trkpt lat="48.96882" lon="2.18272">
        <ele>61</ele>
        <time>2026-07-19T12:31:19Z</time>
      </trkpt>
      <trkpt lat="48.96892" lon="2.18271">
        <ele>61</ele>
        <time>2026-07-19T12:31:31Z</time>
      </trkpt>
      <trkpt lat="48.96901" lon="2.18266">
        <ele>60</ele>
        <time>2026-07-19T12:31:38Z</time>
      </trkpt>
      <trkpt lat="48.96911" lon="2.18261">
        <ele>60</ele>
        <time>2026-07-19T12:31:47Z</time>
      </trkpt>
      <trkpt lat="48.9692" lon="2.18258">
        <ele>61</ele>
        <time>2026-07-19T12:31:54Z</time>
      </trkpt>
      <trkpt lat="48.9693" lon="2.18258">
        <ele>61</ele>
        <time>2026-07-19T12:32:08Z</time>
      </trkpt>
      <trkpt lat="48.96939" lon="2.18254">
        <ele>60</ele>
        <time>2026-07-19T12:32:18Z</time>
      </trkpt>
      <trkpt lat="48.96948" lon="2.18253">
        <ele>61</ele>
        <time>2026-07-19T12:32:29Z</time>
      </trkpt>
      <trkpt lat="48.96957" lon="2.18249">
        <ele>61</ele>
        <time>2026-07-19T12:32:35Z</time>
      </trkpt>
      <trkpt lat="48.96967" lon="2.18243">
        <ele>61</ele>
        <time>2026-07-19T12:32:41Z</time>
      </trkpt>
      <trkpt lat="48.96976" lon="2.18237">
        <ele>60</ele>
        <time>2026-07-19T12:32:51Z</time>
      </trkpt>
      <trkpt lat="48.96985" lon="2.18233">
        <ele>60</ele>
        <time>2026-07-19T12:33:02Z</time>
      </trkpt>
      <trkpt lat="48.96994" lon="2.18227">
        <ele>59</ele>
        <time>2026-07-19T12:33:12Z</time>
      </trkpt>
      <trkpt lat="48.97002" lon="2.1822">
        <ele>59</ele>
        <time>2026-07-19T12:33:20Z</time>
      </trkpt>
      <trkpt lat="48.9701" lon="2.18214">
        <ele>59</ele>
        <time>2026-07-19T12:33:29Z</time>
      </trkpt>
      <trkpt lat="48.97019" lon="2.1821">
        <ele>60</ele>
        <time>2026-07-19T12:33:39Z</time>
      </trkpt>
      <trkpt lat="48.97028" lon="2.18205">
        <ele>61</ele>
        <time>2026-07-19T12:33:44Z</time>
      </trkpt>
      <trkpt lat="48.97037" lon="2.18201">
        <ele>61</ele>
        <time>2026-07-19T12:33:50Z</time>
      </trkpt>
      <trkpt lat="48.97047" lon="2.18199">
        <ele>62</ele>
        <time>2026-07-19T12:33:59Z</time>
      </trkpt>
      <trkpt lat="48.97056" lon="2.18195">
        <ele>61</ele>
        <time>2026-07-19T12:34:09Z</time>
      </trkpt>
      <trkpt lat="48.97065" lon="2.18189">
        <ele>59</ele>
        <time>2026-07-19T12:34:15Z</time>
      </trkpt>
      <trkpt lat="48.97071" lon="2.18179">
        <ele>59</ele>
        <time>2026-07-19T12:34:26Z</time>
      </trkpt>
      <trkpt lat="48.97078" lon="2.1817">
        <ele>58</ele>
        <time>2026-07-19T12:34:35Z</time>
      </trkpt>
      <trkpt lat="48.97086" lon="2.18164">
        <ele>58</ele>
        <time>2026-07-19T12:34:41Z</time>
      </trkpt>
      <trkpt lat="48.97095" lon="2.18155">
        <ele>58</ele>
        <time>2026-07-19T12:34:49Z</time>
      </trkpt>
      <trkpt lat="48.97103" lon="2.18149">
        <ele>57</ele>
        <time>2026-07-19T12:35:09Z</time>
      </trkpt>
      <trkpt lat="48.97111" lon="2.18142">
        <ele>56</ele>
        <time>2026-07-19T12:35:16Z</time>
      </trkpt>
      <trkpt lat="48.97119" lon="2.18133">
        <ele>56</ele>
        <time>2026-07-19T12:35:24Z</time>
      </trkpt>
      <trkpt lat="48.97127" lon="2.18125">
        <ele>56</ele>
        <time>2026-07-19T12:35:31Z</time>
      </trkpt>
      <trkpt lat="48.97134" lon="2.18116">
        <ele>58</ele>
        <time>2026-07-19T12:35:47Z</time>
      </trkpt>
      <trkpt lat="48.97142" lon="2.18109">
        <ele>60</ele>
        <time>2026-07-19T12:35:55Z</time>
      </trkpt>
      <trkpt lat="48.97151" lon="2.18104">
        <ele>59</ele>
        <time>2026-07-19T12:36:03Z</time>
      </trkpt>
      <trkpt lat="48.97159" lon="2.18098">
        <ele>59</ele>
        <time>2026-07-19T12:36:26Z</time>
      </trkpt>
      <trkpt lat="48.97174" lon="2.18086">
        <ele>61</ele>
        <time>2026-07-19T12:37:07Z</time>
      </trkpt>
      <trkpt lat="48.9717" lon="2.18092">
        <ele>61</ele>
        <time>2026-07-19T12:37:57Z</time>
      </trkpt>
      <trkpt lat="48.97169" lon="2.18105">
        <ele>62</ele>
        <time>2026-07-19T12:38:05Z</time>
      </trkpt>
      <trkpt lat="48.97166" lon="2.18119">
        <ele>63</ele>
        <time>2026-07-19T12:38:15Z</time>
      </trkpt>
      <trkpt lat="48.97164" lon="2.18135">
        <ele>63</ele>
        <time>2026-07-19T12:38:24Z</time>
      </trkpt>
      <trkpt lat="48.97165" lon="2.1815">
        <ele>63</ele>
        <time>2026-07-19T12:38:33Z</time>
      </trkpt>
      <trkpt lat="48.97167" lon="2.18164">
        <ele>64</ele>
        <time>2026-07-19T12:38:40Z</time>
      </trkpt>
      <trkpt lat="48.97168" lon="2.18179">
        <ele>65</ele>
        <time>2026-07-19T12:38:49Z</time>
      </trkpt>
      <trkpt lat="48.97168" lon="2.18194">
        <ele>66</ele>
        <time>2026-07-19T12:38:57Z</time>
      </trkpt>
      <trkpt lat="48.97168" lon="2.18209">
        <ele>65</ele>
        <time>2026-07-19T12:39:05Z</time>
      </trkpt>
      <trkpt lat="48.97169" lon="2.18223">
        <ele>65</ele>
        <time>2026-07-19T12:39:14Z</time>
      </trkpt>
      <trkpt lat="48.9717" lon="2.18238">
        <ele>65</ele>
        <time>2026-07-19T12:39:22Z</time>
      </trkpt>
      <trkpt lat="48.97169" lon="2.18251">
        <ele>64</ele>
        <time>2026-07-19T12:39:31Z</time>
      </trkpt>
      <trkpt lat="48.9717" lon="2.18266">
        <ele>64</ele>
        <time>2026-07-19T12:39:40Z</time>
      </trkpt>
      <trkpt lat="48.97172" lon="2.18279">
        <ele>65</ele>
        <time>2026-07-19T12:39:48Z</time>
      </trkpt>
      <trkpt lat="48.97174" lon="2.18294">
        <ele>66</ele>
        <time>2026-07-19T12:39:56Z</time>
      </trkpt>
      <trkpt lat="48.97174" lon="2.18308">
        <ele>66</ele>
        <time>2026-07-19T12:40:03Z</time>
      </trkpt>
      <trkpt lat="48.97174" lon="2.18322">
        <ele>66</ele>
        <time>2026-07-19T12:40:11Z</time>
      </trkpt>
      <trkpt lat="48.97177" lon="2.18336">
        <ele>66</ele>
        <time>2026-07-19T12:40:21Z</time>
      </trkpt>
      <trkpt lat="48.97179" lon="2.18349">
        <ele>66</ele>
        <time>2026-07-19T12:40:31Z</time>
      </trkpt>
      <trkpt lat="48.97177" lon="2.18363">
        <ele>67</ele>
        <time>2026-07-19T12:40:39Z</time>
      </trkpt>
      <trkpt lat="48.97176" lon="2.18378">
        <ele>66</ele>
        <time>2026-07-19T12:40:48Z</time>
      </trkpt>
      <trkpt lat="48.97177" lon="2.18392">
        <ele>66</ele>
        <time>2026-07-19T12:40:55Z</time>
      </trkpt>
      <trkpt lat="48.97178" lon="2.18407">
        <ele>66</ele>
        <time>2026-07-19T12:41:06Z</time>
      </trkpt>
      <trkpt lat="48.97179" lon="2.18421">
        <ele>65</ele>
        <time>2026-07-19T12:41:15Z</time>
      </trkpt>
      <trkpt lat="48.97179" lon="2.18435">
        <ele>65</ele>
        <time>2026-07-19T12:41:31Z</time>
      </trkpt>
      <trkpt lat="48.97179" lon="2.18449">
        <ele>66</ele>
        <time>2026-07-19T12:41:38Z</time>
      </trkpt>
      <trkpt lat="48.9718" lon="2.18464">
        <ele>65</ele>
        <time>2026-07-19T12:41:47Z</time>
      </trkpt>
      <trkpt lat="48.97182" lon="2.18479">
        <ele>65</ele>
        <time>2026-07-19T12:41:55Z</time>
      </trkpt>
      <trkpt lat="48.97183" lon="2.18493">
        <ele>65</ele>
        <time>2026-07-19T12:42:02Z</time>
      </trkpt>
      <trkpt lat="48.97186" lon="2.18506">
        <ele>64</ele>
        <time>2026-07-19T12:42:11Z</time>
      </trkpt>
      <trkpt lat="48.97188" lon="2.18521">
        <ele>63</ele>
        <time>2026-07-19T12:42:20Z</time>
      </trkpt>
      <trkpt lat="48.97189" lon="2.18535">
        <ele>63</ele>
        <time>2026-07-19T12:42:31Z</time>
      </trkpt>
      <trkpt lat="48.97195" lon="2.18545">
        <ele>61</ele>
        <time>2026-07-19T12:42:51Z</time>
      </trkpt>
      <trkpt lat="48.97204" lon="2.18551">
        <ele>59</ele>
        <time>2026-07-19T12:43:04Z</time>
      </trkpt>
      <trkpt lat="48.97213" lon="2.18557">
        <ele>59</ele>
        <time>2026-07-19T12:43:14Z</time>
      </trkpt>
      <trkpt lat="48.97222" lon="2.18562">
        <ele>58</ele>
        <time>2026-07-19T12:43:26Z</time>
      </trkpt>
      <trkpt lat="48.97231" lon="2.18565">
        <ele>57</ele>
        <time>2026-07-19T12:43:35Z</time>
      </trkpt>
      <trkpt lat="48.97239" lon="2.18572">
        <ele>56</ele>
        <time>2026-07-19T12:43:44Z</time>
      </trkpt>
      <trkpt lat="48.97243" lon="2.18584">
        <ele>55</ele>
        <time>2026-07-19T12:43:54Z</time>
      </trkpt>
      <trkpt lat="48.97249" lon="2.18593">
        <ele>55</ele>
        <time>2026-07-19T12:44:12Z</time>
      </trkpt>
      <trkpt lat="48.97257" lon="2.1859">
        <ele>56</ele>
        <time>2026-07-19T12:44:21Z</time>
      </trkpt>
      <trkpt lat="48.97265" lon="2.18585">
        <ele>58</ele>
        <time>2026-07-19T12:44:32Z</time>
      </trkpt>
      <trkpt lat="48.97273" lon="2.18579">
        <ele>61</ele>
        <time>2026-07-19T12:44:41Z</time>
      </trkpt>
      <trkpt lat="48.97281" lon="2.18571">
        <ele>62</ele>
        <time>2026-07-19T12:44:52Z</time>
      </trkpt>
      <trkpt lat="48.97289" lon="2.18564">
        <ele>63</ele>
        <time>2026-07-19T12:45:02Z</time>
      </trkpt>
      <trkpt lat="48.97298" lon="2.18554">
        <ele>64</ele>
        <time>2026-07-19T12:45:18Z</time>
      </trkpt>
      <trkpt lat="48.97305" lon="2.18545">
        <ele>63</ele>
        <time>2026-07-19T12:45:33Z</time>
      </trkpt>
      <trkpt lat="48.97312" lon="2.18534">
        <ele>62</ele>
        <time>2026-07-19T12:45:45Z</time>
      </trkpt>
      <trkpt lat="48.97319" lon="2.18526">
        <ele>62</ele>
        <time>2026-07-19T12:45:54Z</time>
      </trkpt>
      <trkpt lat="48.97328" lon="2.18516">
        <ele>61</ele>
        <time>2026-07-19T12:46:04Z</time>
      </trkpt>
      <trkpt lat="48.97335" lon="2.18506">
        <ele>61</ele>
        <time>2026-07-19T12:46:12Z</time>
      </trkpt>
      <trkpt lat="48.97342" lon="2.18497">
        <ele>62</ele>
        <time>2026-07-19T12:46:20Z</time>
      </trkpt>
      <trkpt lat="48.97349" lon="2.18486">
        <ele>63</ele>
        <time>2026-07-19T12:46:28Z</time>
      </trkpt>
      <trkpt lat="48.97356" lon="2.18477">
        <ele>66</ele>
        <time>2026-07-19T12:46:36Z</time>
      </trkpt>
      <trkpt lat="48.97363" lon="2.18468">
        <ele>68</ele>
        <time>2026-07-19T12:46:45Z</time>
      </trkpt>
      <trkpt lat="48.9737" lon="2.1846">
        <ele>69</ele>
        <time>2026-07-19T12:46:53Z</time>
      </trkpt>
      <trkpt lat="48.97379" lon="2.18452">
        <ele>70</ele>
        <time>2026-07-19T12:47:01Z</time>
      </trkpt>
      <trkpt lat="48.97387" lon="2.18445">
        <ele>71</ele>
        <time>2026-07-19T12:47:10Z</time>
      </trkpt>
      <trkpt lat="48.97395" lon="2.18438">
        <ele>72</ele>
        <time>2026-07-19T12:47:19Z</time>
      </trkpt>
      <trkpt lat="48.97403" lon="2.18432">
        <ele>72</ele>
        <time>2026-07-19T12:47:27Z</time>
      </trkpt>
      <trkpt lat="48.97412" lon="2.18425">
        <ele>73</ele>
        <time>2026-07-19T12:47:36Z</time>
      </trkpt>
      <trkpt lat="48.9742" lon="2.18417">
        <ele>72</ele>
        <time>2026-07-19T12:47:45Z</time>
      </trkpt>
      <trkpt lat="48.97428" lon="2.18408">
        <ele>72</ele>
        <time>2026-07-19T12:47:53Z</time>
      </trkpt>
      <trkpt lat="48.97436" lon="2.184">
        <ele>71</ele>
        <time>2026-07-19T12:48:01Z</time>
      </trkpt>
      <trkpt lat="48.97444" lon="2.18393">
        <ele>71</ele>
        <time>2026-07-19T12:48:09Z</time>
      </trkpt>
      <trkpt lat="48.97452" lon="2.18385">
        <ele>71</ele>
        <time>2026-07-19T12:48:20Z</time>
      </trkpt>
      <trkpt lat="48.9746" lon="2.18378">
        <ele>71</ele>
        <time>2026-07-19T12:48:28Z</time>
      </trkpt>
      <trkpt lat="48.97468" lon="2.18371">
        <ele>70</ele>
        <time>2026-07-19T12:48:38Z</time>
      </trkpt>
      <trkpt lat="48.97476" lon="2.18364">
        <ele>71</ele>
        <time>2026-07-19T12:48:49Z</time>
      </trkpt>
      <trkpt lat="48.97485" lon="2.18361">
        <ele>70</ele>
        <time>2026-07-19T12:48:56Z</time>
      </trkpt>
      <trkpt lat="48.97494" lon="2.18353">
        <ele>68</ele>
        <time>2026-07-19T12:49:07Z</time>
      </trkpt>
      <trkpt lat="48.97502" lon="2.18346">
        <ele>67</ele>
        <time>2026-07-19T12:49:14Z</time>
      </trkpt>
      <trkpt lat="48.97509" lon="2.18336">
        <ele>65</ele>
        <time>2026-07-19T12:49:24Z</time>
      </trkpt>
      <trkpt lat="48.97518" lon="2.18332">
        <ele>64</ele>
        <time>2026-07-19T12:49:30Z</time>
      </trkpt>
      <trkpt lat="48.97527" lon="2.18326">
        <ele>63</ele>
        <time>2026-07-19T12:49:37Z</time>
      </trkpt>
      <trkpt lat="48.97535" lon="2.1832">
        <ele>64</ele>
        <time>2026-07-19T12:49:43Z</time>
      </trkpt>
      <trkpt lat="48.97542" lon="2.1831">
        <ele>64</ele>
        <time>2026-07-19T12:49:54Z</time>
      </trkpt>
      <trkpt lat="48.97549" lon="2.18303">
        <ele>64</ele>
        <time>2026-07-19T12:50:04Z</time>
      </trkpt>
      <trkpt lat="48.97557" lon="2.18295">
        <ele>64</ele>
        <time>2026-07-19T12:50:12Z</time>
      </trkpt>
      <trkpt lat="48.97566" lon="2.1829">
        <ele>64</ele>
        <time>2026-07-19T12:50:21Z</time>
      </trkpt>
      <trkpt lat="48.97574" lon="2.18284">
        <ele>63</ele>
        <time>2026-07-19T12:50:30Z</time>
      </trkpt>
      <trkpt lat="48.97582" lon="2.18277">
        <ele>61</ele>
        <time>2026-07-19T12:50:39Z</time>
      </trkpt>
      <trkpt lat="48.97593" lon="2.18276">
        <ele>61</ele>
        <time>2026-07-19T12:50:44Z</time>
      </trkpt>
      <trkpt lat="48.97598" lon="2.18265">
        <ele>58</ele>
        <time>2026-07-19T12:50:56Z</time>
      </trkpt>
      <trkpt lat="48.97605" lon="2.18256">
        <ele>57</ele>
        <time>2026-07-19T12:51:07Z</time>
      </trkpt>
      <trkpt lat="48.97613" lon="2.1825">
        <ele>57</ele>
        <time>2026-07-19T12:51:13Z</time>
      </trkpt>
      <trkpt lat="48.97621" lon="2.18243">
        <ele>57</ele>
        <time>2026-07-19T12:51:20Z</time>
      </trkpt>
      <trkpt lat="48.9763" lon="2.18237">
        <ele>57</ele>
        <time>2026-07-19T12:51:33Z</time>
      </trkpt>
      <trkpt lat="48.97638" lon="2.18229">
        <ele>58</ele>
        <time>2026-07-19T12:51:39Z</time>
      </trkpt>
      <trkpt lat="48.97646" lon="2.18221">
        <ele>57</ele>
        <time>2026-07-19T12:51:51Z</time>
      </trkpt>
      <trkpt lat="48.97654" lon="2.18212">
        <ele>57</ele>
        <time>2026-07-19T12:51:57Z</time>
      </trkpt>
      <trkpt lat="48.97662" lon="2.18209">
        <ele>55</ele>
        <time>2026-07-19T12:52:05Z</time>
      </trkpt>
      <trkpt lat="48.97672" lon="2.18206">
        <ele>53</ele>
        <time>2026-07-19T12:52:14Z</time>
      </trkpt>
      <trkpt lat="48.97682" lon="2.18201">
        <ele>50</ele>
        <time>2026-07-19T12:52:19Z</time>
      </trkpt>
      <trkpt lat="48.97692" lon="2.18199">
        <ele>51</ele>
        <time>2026-07-19T12:52:24Z</time>
      </trkpt>
      <trkpt lat="48.97702" lon="2.18195">
        <ele>51</ele>
        <time>2026-07-19T12:52:32Z</time>
      </trkpt>
      <trkpt lat="48.97711" lon="2.18193">
        <ele>51</ele>
        <time>2026-07-19T12:52:44Z</time>
      </trkpt>
      <trkpt lat="48.9772" lon="2.18186">
        <ele>50</ele>
        <time>2026-07-19T12:52:53Z</time>
      </trkpt>
      <trkpt lat="48.97726" lon="2.18175">
        <ele>50</ele>
        <time>2026-07-19T12:53:00Z</time>
      </trkpt>
      <trkpt lat="48.97733" lon="2.18165">
        <ele>49</ele>
        <time>2026-07-19T12:53:08Z</time>
      </trkpt>
      <trkpt lat="48.97741" lon="2.18158">
        <ele>50</ele>
        <time>2026-07-19T12:53:16Z</time>
      </trkpt>
      <trkpt lat="48.97748" lon="2.18149">
        <ele>50</ele>
        <time>2026-07-19T12:53:25Z</time>
      </trkpt>
      <trkpt lat="48.97755" lon="2.18141">
        <ele>51</ele>
        <time>2026-07-19T12:53:32Z</time>
      </trkpt>
      <trkpt lat="48.97763" lon="2.18135">
        <ele>52</ele>
        <time>2026-07-19T12:53:38Z</time>
      </trkpt>
      <trkpt lat="48.97772" lon="2.1813">
        <ele>53</ele>
        <time>2026-07-19T12:53:45Z</time>
      </trkpt>
      <trkpt lat="48.97781" lon="2.18126">
        <ele>54</ele>
        <time>2026-07-19T12:53:59Z</time>
      </trkpt>
      <trkpt lat="48.97789" lon="2.1812">
        <ele>54</ele>
        <time>2026-07-19T12:54:04Z</time>
      </trkpt>
      <trkpt lat="48.97798" lon="2.18116">
        <ele>54</ele>
        <time>2026-07-19T12:54:12Z</time>
      </trkpt>
      <trkpt lat="48.97806" lon="2.1811">
        <ele>54</ele>
        <time>2026-07-19T12:54:19Z</time>
      </trkpt>
      <trkpt lat="48.97815" lon="2.18102">
        <ele>52</ele>
        <time>2026-07-19T12:54:29Z</time>
      </trkpt>
      <trkpt lat="48.97823" lon="2.18092">
        <ele>51</ele>
        <time>2026-07-19T12:54:34Z</time>
      </trkpt>
      <trkpt lat="48.9783" lon="2.18083">
        <ele>52</ele>
        <time>2026-07-19T12:54:44Z</time>
      </trkpt>
      <trkpt lat="48.97839" lon="2.18076">
        <ele>51</ele>
        <time>2026-07-19T12:54:53Z</time>
      </trkpt>
      <trkpt lat="48.97848" lon="2.18072">
        <ele>51</ele>
        <time>2026-07-19T12:54:59Z</time>
      </trkpt>
      <trkpt lat="48.97857" lon="2.18067">
        <ele>52</ele>
        <time>2026-07-19T12:55:04Z</time>
      </trkpt>
      <trkpt lat="48.97868" lon="2.18064">
        <ele>53</ele>
        <time>2026-07-19T12:55:09Z</time>
      </trkpt>
      <trkpt lat="48.9787" lon="2.18055">
        <ele>54</ele>
        <time>2026-07-19T12:55:21Z</time>
      </trkpt>
      <trkpt lat="48.97877" lon="2.18055">
        <ele>54</ele>
        <time>2026-07-19T12:55:40Z</time>
      </trkpt>
      <trkpt lat="48.97885" lon="2.18057">
        <ele>53</ele>
        <time>2026-07-19T12:55:55Z</time>
      </trkpt>
      <trkpt lat="48.97892" lon="2.18064">
        <ele>50</ele>
        <time>2026-07-19T12:56:13Z</time>
      </trkpt>
      <trkpt lat="48.97901" lon="2.18066">
        <ele>48</ele>
        <time>2026-07-19T12:56:19Z</time>
      </trkpt>
      <trkpt lat="48.97909" lon="2.1807">
        <ele>47</ele>
        <time>2026-07-19T12:56:25Z</time>
      </trkpt>
      <trkpt lat="48.97919" lon="2.18073">
        <ele>46</ele>
        <time>2026-07-19T12:56:34Z</time>
      </trkpt>
      <trkpt lat="48.97927" lon="2.18069">
        <ele>45</ele>
        <time>2026-07-19T12:56:45Z</time>
      </trkpt>
      <trkpt lat="48.97937" lon="2.18063">
        <ele>44</ele>
        <time>2026-07-19T12:56:56Z</time>
      </trkpt>
      <trkpt lat="48.97946" lon="2.18058">
        <ele>43</ele>
        <time>2026-07-19T12:57:01Z</time>
      </trkpt>
      <trkpt lat="48.97954" lon="2.18052">
        <ele>43</ele>
        <time>2026-07-19T12:57:09Z</time>
      </trkpt>
      <trkpt lat="48.97965" lon="2.18052">
        <ele>43</ele>
        <time>2026-07-19T12:57:14Z</time>
      </trkpt>
      <trkpt lat="48.97976" lon="2.18056">
        <ele>42</ele>
        <time>2026-07-19T12:57:19Z</time>
      </trkpt>
      <trkpt lat="48.97986" lon="2.18055">
        <ele>43</ele>
        <time>2026-07-19T12:57:25Z</time>
      </trkpt>
      <trkpt lat="48.97993" lon="2.18048">
        <ele>44</ele>
        <time>2026-07-19T12:57:38Z</time>
      </trkpt>
      <trkpt lat="48.98" lon="2.1804">
        <ele>45</ele>
        <time>2026-07-19T12:57:47Z</time>
      </trkpt>
      <trkpt lat="48.98002" lon="2.18028">
        <ele>46</ele>
        <time>2026-07-19T12:57:57Z</time>
      </trkpt>
    </trkseg>
  </trk>
</gpx>